<?xml version="1.0" encoding="UTF-8" standalone="no" ?>
<gpx xmlns="http://www.topografix.com/GPX/1/1" xmlns:xsi="http://www.w3.org/2001/XMLSchema-instance" xsi:schemaLocation="http://www.topografix.com/GPX/1/1 http://www.topografix.com/GPX/1/1/gpx.xsd" version="1.1" creator="VisuGPX - https://www.visugpx.com">
  <metadata>
    <name>Rocher des vierges Vtt Enduro</name>
    <desc><![CDATA[Petite Sortie typée enduro au départ du pied du rochers des vierges. On part par la piste direction la bergerie puis on prend un sentier à gauche qui grimpe fort pour nous amener à la cabane des chasseurs. de la on repart sur la piste pour aller chercher un sentier descendant un peu technique qui aboutit sur une piste que l'on redescend jusqu’à la trace de "pipou". Descente sur single avec des passages très pentus, voire même très très pentu mais ça passe !
direction St Jean par piste et GR puis retour vers le Rocher par une longue piste. pour finir par la descente classique (pente, sauts, virages relevés.....).
Une très bone sortie de 2h environs.
]]></desc>
  </metadata>
  <trk>
    <name><![CDATA[Rocher des vierges Vtt Enduro_1]]></name>
    <trkseg>
      <trkpt lat="43.70668" lon="3.46755">
        <ele>337.5</ele>
        <time>2016-11-13T07:34:04Z</time>
      </trkpt>
      <trkpt lat="43.70668" lon="3.46755">
        <ele>337.5</ele>
        <time>2016-11-13T07:34:15Z</time>
      </trkpt>
      <trkpt lat="43.7067" lon="3.46767">
        <ele>334.6</ele>
        <time>2016-11-13T07:34:16Z</time>
      </trkpt>
      <trkpt lat="43.70672" lon="3.46771">
        <ele>341.4</ele>
        <time>2016-11-13T07:39:25Z</time>
      </trkpt>
      <trkpt lat="43.7068" lon="3.46773">
        <ele>341.3</ele>
        <time>2016-11-13T07:39:37Z</time>
      </trkpt>
      <trkpt lat="43.70686" lon="3.4677">
        <ele>341.4</ele>
        <time>2016-11-13T07:39:41Z</time>
      </trkpt>
      <trkpt lat="43.70693" lon="3.46766">
        <ele>341.4</ele>
        <time>2016-11-13T07:39:47Z</time>
      </trkpt>
      <trkpt lat="43.707" lon="3.46763">
        <ele>341.5</ele>
        <time>2016-11-13T07:39:54Z</time>
      </trkpt>
      <trkpt lat="43.70702" lon="3.4676">
        <ele>341.7</ele>
        <time>2016-11-13T07:40:01Z</time>
      </trkpt>
      <trkpt lat="43.70696" lon="3.46764">
        <ele>341.7</ele>
        <time>2016-11-13T07:40:08Z</time>
      </trkpt>
      <trkpt lat="43.70699" lon="3.46765">
        <ele>341.6</ele>
        <time>2016-11-13T07:40:15Z</time>
      </trkpt>
      <trkpt lat="43.70698" lon="3.46763">
        <ele>341.6</ele>
        <time>2016-11-13T07:40:22Z</time>
      </trkpt>
      <trkpt lat="43.70699" lon="3.46759">
        <ele>341.6</ele>
        <time>2016-11-13T07:40:29Z</time>
      </trkpt>
      <trkpt lat="43.70708" lon="3.46769">
        <ele>339.7</ele>
        <time>2016-11-13T07:42:50Z</time>
      </trkpt>
      <trkpt lat="43.70715" lon="3.46773">
        <ele>339.6</ele>
        <time>2016-11-13T07:42:55Z</time>
      </trkpt>
      <trkpt lat="43.70723" lon="3.46777">
        <ele>339.8</ele>
        <time>2016-11-13T07:43:00Z</time>
      </trkpt>
      <trkpt lat="43.70732" lon="3.46781">
        <ele>340.1</ele>
        <time>2016-11-13T07:43:05Z</time>
      </trkpt>
      <trkpt lat="43.7074" lon="3.46783">
        <ele>340.4</ele>
        <time>2016-11-13T07:43:09Z</time>
      </trkpt>
      <trkpt lat="43.70748" lon="3.46786">
        <ele>340.8</ele>
        <time>2016-11-13T07:43:14Z</time>
      </trkpt>
      <trkpt lat="43.70755" lon="3.46789">
        <ele>341</ele>
        <time>2016-11-13T07:43:18Z</time>
      </trkpt>
      <trkpt lat="43.70763" lon="3.46792">
        <ele>341.2</ele>
        <time>2016-11-13T07:43:22Z</time>
      </trkpt>
      <trkpt lat="43.7077" lon="3.46799">
        <ele>341.5</ele>
        <time>2016-11-13T07:43:26Z</time>
      </trkpt>
      <trkpt lat="43.70769" lon="3.4681">
        <ele>341.8</ele>
        <time>2016-11-13T07:43:30Z</time>
      </trkpt>
      <trkpt lat="43.70764" lon="3.4682">
        <ele>342</ele>
        <time>2016-11-13T07:43:34Z</time>
      </trkpt>
      <trkpt lat="43.70757" lon="3.46828">
        <ele>342</ele>
        <time>2016-11-13T07:43:38Z</time>
      </trkpt>
      <trkpt lat="43.70751" lon="3.46834">
        <ele>342.1</ele>
        <time>2016-11-13T07:43:42Z</time>
      </trkpt>
      <trkpt lat="43.70744" lon="3.46838">
        <ele>342.4</ele>
        <time>2016-11-13T07:43:47Z</time>
      </trkpt>
      <trkpt lat="43.70737" lon="3.46845">
        <ele>342.8</ele>
        <time>2016-11-13T07:43:52Z</time>
      </trkpt>
      <trkpt lat="43.70732" lon="3.46853">
        <ele>343</ele>
        <time>2016-11-13T07:43:57Z</time>
      </trkpt>
      <trkpt lat="43.70727" lon="3.46862">
        <ele>343</ele>
        <time>2016-11-13T07:44:01Z</time>
      </trkpt>
      <trkpt lat="43.70722" lon="3.46872">
        <ele>343</ele>
        <time>2016-11-13T07:44:06Z</time>
      </trkpt>
      <trkpt lat="43.70717" lon="3.46881">
        <ele>343.1</ele>
        <time>2016-11-13T07:44:10Z</time>
      </trkpt>
      <trkpt lat="43.70713" lon="3.46891">
        <ele>343.3</ele>
        <time>2016-11-13T07:44:15Z</time>
      </trkpt>
      <trkpt lat="43.70708" lon="3.469">
        <ele>343.7</ele>
        <time>2016-11-13T07:44:20Z</time>
      </trkpt>
      <trkpt lat="43.70705" lon="3.46912">
        <ele>344.1</ele>
        <time>2016-11-13T07:44:25Z</time>
      </trkpt>
      <trkpt lat="43.70701" lon="3.46921">
        <ele>344.5</ele>
        <time>2016-11-13T07:44:29Z</time>
      </trkpt>
      <trkpt lat="43.70698" lon="3.4693">
        <ele>345</ele>
        <time>2016-11-13T07:44:33Z</time>
      </trkpt>
      <trkpt lat="43.70694" lon="3.46942">
        <ele>345.6</ele>
        <time>2016-11-13T07:44:38Z</time>
      </trkpt>
      <trkpt lat="43.70692" lon="3.46952">
        <ele>346</ele>
        <time>2016-11-13T07:44:42Z</time>
      </trkpt>
      <trkpt lat="43.7069" lon="3.46964">
        <ele>346.5</ele>
        <time>2016-11-13T07:44:47Z</time>
      </trkpt>
      <trkpt lat="43.70689" lon="3.46974">
        <ele>347</ele>
        <time>2016-11-13T07:44:51Z</time>
      </trkpt>
      <trkpt lat="43.70689" lon="3.46985">
        <ele>347.5</ele>
        <time>2016-11-13T07:44:55Z</time>
      </trkpt>
      <trkpt lat="43.7069" lon="3.46996">
        <ele>348</ele>
        <time>2016-11-13T07:44:59Z</time>
      </trkpt>
      <trkpt lat="43.70691" lon="3.47007">
        <ele>348.6</ele>
        <time>2016-11-13T07:45:04Z</time>
      </trkpt>
      <trkpt lat="43.70694" lon="3.47016">
        <ele>349.1</ele>
        <time>2016-11-13T07:45:08Z</time>
      </trkpt>
      <trkpt lat="43.70696" lon="3.47027">
        <ele>349.6</ele>
        <time>2016-11-13T07:45:12Z</time>
      </trkpt>
      <trkpt lat="43.70699" lon="3.47037">
        <ele>350.2</ele>
        <time>2016-11-13T07:45:17Z</time>
      </trkpt>
      <trkpt lat="43.70702" lon="3.47048">
        <ele>350.7</ele>
        <time>2016-11-13T07:45:21Z</time>
      </trkpt>
      <trkpt lat="43.70706" lon="3.47058">
        <ele>351.2</ele>
        <time>2016-11-13T07:45:26Z</time>
      </trkpt>
      <trkpt lat="43.70711" lon="3.47067">
        <ele>351.9</ele>
        <time>2016-11-13T07:45:31Z</time>
      </trkpt>
      <trkpt lat="43.70716" lon="3.47076">
        <ele>352.4</ele>
        <time>2016-11-13T07:45:35Z</time>
      </trkpt>
      <trkpt lat="43.70724" lon="3.47081">
        <ele>353</ele>
        <time>2016-11-13T07:45:39Z</time>
      </trkpt>
      <trkpt lat="43.70731" lon="3.47085">
        <ele>353.7</ele>
        <time>2016-11-13T07:45:42Z</time>
      </trkpt>
      <trkpt lat="43.70738" lon="3.4709">
        <ele>355.1</ele>
        <time>2016-11-13T07:45:47Z</time>
      </trkpt>
      <trkpt lat="43.70747" lon="3.47095">
        <ele>356.7</ele>
        <time>2016-11-13T07:45:52Z</time>
      </trkpt>
      <trkpt lat="43.70755" lon="3.471">
        <ele>358.4</ele>
        <time>2016-11-13T07:45:59Z</time>
      </trkpt>
      <trkpt lat="43.70761" lon="3.47105">
        <ele>358.8</ele>
        <time>2016-11-13T07:46:03Z</time>
      </trkpt>
      <trkpt lat="43.70769" lon="3.47107">
        <ele>359.3</ele>
        <time>2016-11-13T07:46:07Z</time>
      </trkpt>
      <trkpt lat="43.70776" lon="3.47108">
        <ele>359.8</ele>
        <time>2016-11-13T07:46:11Z</time>
      </trkpt>
      <trkpt lat="43.70784" lon="3.4711">
        <ele>360.4</ele>
        <time>2016-11-13T07:46:15Z</time>
      </trkpt>
      <trkpt lat="43.70792" lon="3.47111">
        <ele>361.1</ele>
        <time>2016-11-13T07:46:19Z</time>
      </trkpt>
      <trkpt lat="43.708" lon="3.47112">
        <ele>362</ele>
        <time>2016-11-13T07:46:24Z</time>
      </trkpt>
      <trkpt lat="43.70809" lon="3.47113">
        <ele>362.8</ele>
        <time>2016-11-13T07:46:30Z</time>
      </trkpt>
      <trkpt lat="43.70817" lon="3.47114">
        <ele>363.4</ele>
        <time>2016-11-13T07:46:34Z</time>
      </trkpt>
      <trkpt lat="43.70826" lon="3.47114">
        <ele>364</ele>
        <time>2016-11-13T07:46:38Z</time>
      </trkpt>
      <trkpt lat="43.70833" lon="3.47116">
        <ele>365</ele>
        <time>2016-11-13T07:46:43Z</time>
      </trkpt>
      <trkpt lat="43.70841" lon="3.47117">
        <ele>365.4</ele>
        <time>2016-11-13T07:46:47Z</time>
      </trkpt>
      <trkpt lat="43.7085" lon="3.47117">
        <ele>365.7</ele>
        <time>2016-11-13T07:46:51Z</time>
      </trkpt>
      <trkpt lat="43.70858" lon="3.47116">
        <ele>366.3</ele>
        <time>2016-11-13T07:46:55Z</time>
      </trkpt>
      <trkpt lat="43.70865" lon="3.47113">
        <ele>366.8</ele>
        <time>2016-11-13T07:46:59Z</time>
      </trkpt>
      <trkpt lat="43.70873" lon="3.47112">
        <ele>367.3</ele>
        <time>2016-11-13T07:47:03Z</time>
      </trkpt>
      <trkpt lat="43.70881" lon="3.4711">
        <ele>368</ele>
        <time>2016-11-13T07:47:07Z</time>
      </trkpt>
      <trkpt lat="43.70889" lon="3.47109">
        <ele>368.5</ele>
        <time>2016-11-13T07:47:11Z</time>
      </trkpt>
      <trkpt lat="43.70897" lon="3.47107">
        <ele>369</ele>
        <time>2016-11-13T07:47:15Z</time>
      </trkpt>
      <trkpt lat="43.70905" lon="3.47105">
        <ele>369.6</ele>
        <time>2016-11-13T07:47:19Z</time>
      </trkpt>
      <trkpt lat="43.70913" lon="3.47103">
        <ele>370.4</ele>
        <time>2016-11-13T07:47:23Z</time>
      </trkpt>
      <trkpt lat="43.70921" lon="3.471">
        <ele>371.5</ele>
        <time>2016-11-13T07:47:29Z</time>
      </trkpt>
      <trkpt lat="43.70928" lon="3.47096">
        <ele>372</ele>
        <time>2016-11-13T07:47:33Z</time>
      </trkpt>
      <trkpt lat="43.70935" lon="3.4709">
        <ele>372.4</ele>
        <time>2016-11-13T07:47:37Z</time>
      </trkpt>
      <trkpt lat="43.70942" lon="3.47085">
        <ele>372.8</ele>
        <time>2016-11-13T07:47:41Z</time>
      </trkpt>
      <trkpt lat="43.70948" lon="3.4708">
        <ele>373.3</ele>
        <time>2016-11-13T07:47:45Z</time>
      </trkpt>
      <trkpt lat="43.70956" lon="3.47072">
        <ele>374</ele>
        <time>2016-11-13T07:47:51Z</time>
      </trkpt>
      <trkpt lat="43.70962" lon="3.47066">
        <ele>374.4</ele>
        <time>2016-11-13T07:47:55Z</time>
      </trkpt>
      <trkpt lat="43.70969" lon="3.47059">
        <ele>374.8</ele>
        <time>2016-11-13T07:47:59Z</time>
      </trkpt>
      <trkpt lat="43.70975" lon="3.47053">
        <ele>375.3</ele>
        <time>2016-11-13T07:48:03Z</time>
      </trkpt>
      <trkpt lat="43.70981" lon="3.47046">
        <ele>375.7</ele>
        <time>2016-11-13T07:48:07Z</time>
      </trkpt>
      <trkpt lat="43.70987" lon="3.4704">
        <ele>376.3</ele>
        <time>2016-11-13T07:48:11Z</time>
      </trkpt>
      <trkpt lat="43.70993" lon="3.47034">
        <ele>377</ele>
        <time>2016-11-13T07:48:15Z</time>
      </trkpt>
      <trkpt lat="43.70999" lon="3.47027">
        <ele>377.8</ele>
        <time>2016-11-13T07:48:19Z</time>
      </trkpt>
      <trkpt lat="43.71005" lon="3.4702">
        <ele>378.4</ele>
        <time>2016-11-13T07:48:23Z</time>
      </trkpt>
      <trkpt lat="43.7101" lon="3.47013">
        <ele>379.1</ele>
        <time>2016-11-13T07:48:28Z</time>
      </trkpt>
      <trkpt lat="43.71016" lon="3.47004">
        <ele>379.6</ele>
        <time>2016-11-13T07:48:33Z</time>
      </trkpt>
      <trkpt lat="43.71022" lon="3.46995">
        <ele>380.3</ele>
        <time>2016-11-13T07:48:38Z</time>
      </trkpt>
      <trkpt lat="43.71028" lon="3.46988">
        <ele>380.8</ele>
        <time>2016-11-13T07:48:42Z</time>
      </trkpt>
      <trkpt lat="43.71034" lon="3.46983">
        <ele>381.2</ele>
        <time>2016-11-13T07:48:46Z</time>
      </trkpt>
      <trkpt lat="43.71041" lon="3.46977">
        <ele>381.6</ele>
        <time>2016-11-13T07:48:50Z</time>
      </trkpt>
      <trkpt lat="43.71048" lon="3.4697">
        <ele>382</ele>
        <time>2016-11-13T07:48:54Z</time>
      </trkpt>
      <trkpt lat="43.71055" lon="3.46966">
        <ele>382.5</ele>
        <time>2016-11-13T07:48:58Z</time>
      </trkpt>
      <trkpt lat="43.71062" lon="3.46962">
        <ele>382.9</ele>
        <time>2016-11-13T07:49:02Z</time>
      </trkpt>
      <trkpt lat="43.7107" lon="3.46959">
        <ele>383.4</ele>
        <time>2016-11-13T07:49:06Z</time>
      </trkpt>
      <trkpt lat="43.71079" lon="3.46955">
        <ele>384</ele>
        <time>2016-11-13T07:49:10Z</time>
      </trkpt>
      <trkpt lat="43.71086" lon="3.46953">
        <ele>384.8</ele>
        <time>2016-11-13T07:49:15Z</time>
      </trkpt>
      <trkpt lat="43.71093" lon="3.46952">
        <ele>385.5</ele>
        <time>2016-11-13T07:49:19Z</time>
      </trkpt>
      <trkpt lat="43.71101" lon="3.4695">
        <ele>386.1</ele>
        <time>2016-11-13T07:49:23Z</time>
      </trkpt>
      <trkpt lat="43.71109" lon="3.46948">
        <ele>386.8</ele>
        <time>2016-11-13T07:49:27Z</time>
      </trkpt>
      <trkpt lat="43.71117" lon="3.46946">
        <ele>387.3</ele>
        <time>2016-11-13T07:49:31Z</time>
      </trkpt>
      <trkpt lat="43.71126" lon="3.46943">
        <ele>388</ele>
        <time>2016-11-13T07:49:35Z</time>
      </trkpt>
      <trkpt lat="43.71135" lon="3.46942">
        <ele>388.8</ele>
        <time>2016-11-13T07:49:39Z</time>
      </trkpt>
      <trkpt lat="43.71144" lon="3.46939">
        <ele>389.9</ele>
        <time>2016-11-13T07:49:44Z</time>
      </trkpt>
      <trkpt lat="43.71152" lon="3.46936">
        <ele>390.9</ele>
        <time>2016-11-13T07:49:49Z</time>
      </trkpt>
      <trkpt lat="43.71159" lon="3.46934">
        <ele>392.2</ele>
        <time>2016-11-13T07:49:55Z</time>
      </trkpt>
      <trkpt lat="43.71168" lon="3.46933">
        <ele>393</ele>
        <time>2016-11-13T07:50:00Z</time>
      </trkpt>
      <trkpt lat="43.71176" lon="3.4693">
        <ele>393.5</ele>
        <time>2016-11-13T07:50:04Z</time>
      </trkpt>
      <trkpt lat="43.71185" lon="3.46928">
        <ele>394.1</ele>
        <time>2016-11-13T07:50:09Z</time>
      </trkpt>
      <trkpt lat="43.71193" lon="3.46927">
        <ele>394.7</ele>
        <time>2016-11-13T07:50:14Z</time>
      </trkpt>
      <trkpt lat="43.712" lon="3.46925">
        <ele>395.2</ele>
        <time>2016-11-13T07:50:18Z</time>
      </trkpt>
      <trkpt lat="43.71209" lon="3.46925">
        <ele>395.7</ele>
        <time>2016-11-13T07:50:22Z</time>
      </trkpt>
      <trkpt lat="43.71218" lon="3.46927">
        <ele>396.2</ele>
        <time>2016-11-13T07:50:26Z</time>
      </trkpt>
      <trkpt lat="43.71225" lon="3.4693">
        <ele>396.8</ele>
        <time>2016-11-13T07:50:30Z</time>
      </trkpt>
      <trkpt lat="43.71231" lon="3.46936">
        <ele>397.4</ele>
        <time>2016-11-13T07:50:34Z</time>
      </trkpt>
      <trkpt lat="43.71236" lon="3.46946">
        <ele>398</ele>
        <time>2016-11-13T07:50:39Z</time>
      </trkpt>
      <trkpt lat="43.71238" lon="3.46957">
        <ele>398.5</ele>
        <time>2016-11-13T07:50:43Z</time>
      </trkpt>
      <trkpt lat="43.7124" lon="3.46967">
        <ele>399.1</ele>
        <time>2016-11-13T07:50:47Z</time>
      </trkpt>
      <trkpt lat="43.71243" lon="3.46978">
        <ele>399.8</ele>
        <time>2016-11-13T07:50:51Z</time>
      </trkpt>
      <trkpt lat="43.71249" lon="3.46985">
        <ele>400.3</ele>
        <time>2016-11-13T07:50:55Z</time>
      </trkpt>
      <trkpt lat="43.71257" lon="3.46986">
        <ele>400.8</ele>
        <time>2016-11-13T07:50:58Z</time>
      </trkpt>
      <trkpt lat="43.71264" lon="3.46978">
        <ele>401.7</ele>
        <time>2016-11-13T07:51:03Z</time>
      </trkpt>
      <trkpt lat="43.71267" lon="3.46968">
        <ele>402.3</ele>
        <time>2016-11-13T07:51:07Z</time>
      </trkpt>
      <trkpt lat="43.7127" lon="3.46957">
        <ele>403</ele>
        <time>2016-11-13T07:51:12Z</time>
      </trkpt>
      <trkpt lat="43.71272" lon="3.46947">
        <ele>403.6</ele>
        <time>2016-11-13T07:51:16Z</time>
      </trkpt>
      <trkpt lat="43.71273" lon="3.46937">
        <ele>404.2</ele>
        <time>2016-11-13T07:51:21Z</time>
      </trkpt>
      <trkpt lat="43.71276" lon="3.46927">
        <ele>404.8</ele>
        <time>2016-11-13T07:51:25Z</time>
      </trkpt>
      <trkpt lat="43.7128" lon="3.46917">
        <ele>405.3</ele>
        <time>2016-11-13T07:51:29Z</time>
      </trkpt>
      <trkpt lat="43.71284" lon="3.46907">
        <ele>405.9</ele>
        <time>2016-11-13T07:51:34Z</time>
      </trkpt>
      <trkpt lat="43.71288" lon="3.46898">
        <ele>406.4</ele>
        <time>2016-11-13T07:51:38Z</time>
      </trkpt>
      <trkpt lat="43.71294" lon="3.46888">
        <ele>406.9</ele>
        <time>2016-11-13T07:51:42Z</time>
      </trkpt>
      <trkpt lat="43.71299" lon="3.4688">
        <ele>407.2</ele>
        <time>2016-11-13T07:51:46Z</time>
      </trkpt>
      <trkpt lat="43.71305" lon="3.46871">
        <ele>407.6</ele>
        <time>2016-11-13T07:51:50Z</time>
      </trkpt>
      <trkpt lat="43.71311" lon="3.46862">
        <ele>408</ele>
        <time>2016-11-13T07:51:54Z</time>
      </trkpt>
      <trkpt lat="43.71313" lon="3.46853">
        <ele>408.5</ele>
        <time>2016-11-13T07:51:58Z</time>
      </trkpt>
      <trkpt lat="43.71315" lon="3.46843">
        <ele>409.1</ele>
        <time>2016-11-13T07:52:02Z</time>
      </trkpt>
      <trkpt lat="43.71315" lon="3.46831">
        <ele>409.9</ele>
        <time>2016-11-13T07:52:06Z</time>
      </trkpt>
      <trkpt lat="43.71315" lon="3.46818">
        <ele>410.8</ele>
        <time>2016-11-13T07:52:10Z</time>
      </trkpt>
      <trkpt lat="43.71314" lon="3.46806">
        <ele>411.6</ele>
        <time>2016-11-13T07:52:15Z</time>
      </trkpt>
      <trkpt lat="43.71312" lon="3.46795">
        <ele>412.7</ele>
        <time>2016-11-13T07:52:19Z</time>
      </trkpt>
      <trkpt lat="43.7131" lon="3.46784">
        <ele>413.8</ele>
        <time>2016-11-13T07:52:23Z</time>
      </trkpt>
      <trkpt lat="43.71308" lon="3.46773">
        <ele>415.1</ele>
        <time>2016-11-13T07:52:27Z</time>
      </trkpt>
      <trkpt lat="43.71306" lon="3.46763">
        <ele>416.2</ele>
        <time>2016-11-13T07:52:31Z</time>
      </trkpt>
      <trkpt lat="43.71304" lon="3.46752">
        <ele>417.4</ele>
        <time>2016-11-13T07:52:35Z</time>
      </trkpt>
      <trkpt lat="43.71303" lon="3.4674">
        <ele>418.7</ele>
        <time>2016-11-13T07:52:40Z</time>
      </trkpt>
      <trkpt lat="43.71301" lon="3.46729">
        <ele>420.1</ele>
        <time>2016-11-13T07:52:45Z</time>
      </trkpt>
      <trkpt lat="43.71298" lon="3.46718">
        <ele>421.5</ele>
        <time>2016-11-13T07:52:49Z</time>
      </trkpt>
      <trkpt lat="43.71294" lon="3.46708">
        <ele>422.8</ele>
        <time>2016-11-13T07:52:53Z</time>
      </trkpt>
      <trkpt lat="43.71292" lon="3.46698">
        <ele>424.1</ele>
        <time>2016-11-13T07:52:57Z</time>
      </trkpt>
      <trkpt lat="43.71289" lon="3.46686">
        <ele>424.9</ele>
        <time>2016-11-13T07:53:01Z</time>
      </trkpt>
      <trkpt lat="43.71288" lon="3.46675">
        <ele>425.4</ele>
        <time>2016-11-13T07:53:05Z</time>
      </trkpt>
      <trkpt lat="43.71287" lon="3.46663">
        <ele>426</ele>
        <time>2016-11-13T07:53:09Z</time>
      </trkpt>
      <trkpt lat="43.71285" lon="3.46652">
        <ele>427.1</ele>
        <time>2016-11-13T07:53:14Z</time>
      </trkpt>
      <trkpt lat="43.71277" lon="3.46645">
        <ele>427.7</ele>
        <time>2016-11-13T07:53:19Z</time>
      </trkpt>
      <trkpt lat="43.71268" lon="3.46642">
        <ele>428</ele>
        <time>2016-11-13T07:53:22Z</time>
      </trkpt>
      <trkpt lat="43.71259" lon="3.4664">
        <ele>428.2</ele>
        <time>2016-11-13T07:53:26Z</time>
      </trkpt>
      <trkpt lat="43.71251" lon="3.46635">
        <ele>428.4</ele>
        <time>2016-11-13T07:53:30Z</time>
      </trkpt>
      <trkpt lat="43.71249" lon="3.46622">
        <ele>428.5</ele>
        <time>2016-11-13T07:53:34Z</time>
      </trkpt>
      <trkpt lat="43.7125" lon="3.4661">
        <ele>428.4</ele>
        <time>2016-11-13T07:53:37Z</time>
      </trkpt>
      <trkpt lat="43.71253" lon="3.46598">
        <ele>428.2</ele>
        <time>2016-11-13T07:53:41Z</time>
      </trkpt>
      <trkpt lat="43.71255" lon="3.46588">
        <ele>428.3</ele>
        <time>2016-11-13T07:53:44Z</time>
      </trkpt>
      <trkpt lat="43.71258" lon="3.46578">
        <ele>428.2</ele>
        <time>2016-11-13T07:53:48Z</time>
      </trkpt>
      <trkpt lat="43.71262" lon="3.46568">
        <ele>428.3</ele>
        <time>2016-11-13T07:53:54Z</time>
      </trkpt>
      <trkpt lat="43.71268" lon="3.4656">
        <ele>428.1</ele>
        <time>2016-11-13T07:53:59Z</time>
      </trkpt>
      <trkpt lat="43.71277" lon="3.46557">
        <ele>427.9</ele>
        <time>2016-11-13T07:54:03Z</time>
      </trkpt>
      <trkpt lat="43.71285" lon="3.46555">
        <ele>427.6</ele>
        <time>2016-11-13T07:54:07Z</time>
      </trkpt>
      <trkpt lat="43.71294" lon="3.46553">
        <ele>427.3</ele>
        <time>2016-11-13T07:54:11Z</time>
      </trkpt>
      <trkpt lat="43.71302" lon="3.4655">
        <ele>427</ele>
        <time>2016-11-13T07:54:15Z</time>
      </trkpt>
      <trkpt lat="43.71309" lon="3.46548">
        <ele>426.7</ele>
        <time>2016-11-13T07:54:19Z</time>
      </trkpt>
      <trkpt lat="43.71319" lon="3.46547">
        <ele>426.5</ele>
        <time>2016-11-13T07:54:23Z</time>
      </trkpt>
      <trkpt lat="43.71328" lon="3.46546">
        <ele>426.2</ele>
        <time>2016-11-13T07:54:27Z</time>
      </trkpt>
      <trkpt lat="43.71335" lon="3.46547">
        <ele>426</ele>
        <time>2016-11-13T07:54:30Z</time>
      </trkpt>
      <trkpt lat="43.71343" lon="3.46548">
        <ele>425.7</ele>
        <time>2016-11-13T07:54:33Z</time>
      </trkpt>
      <trkpt lat="43.71349" lon="3.46549">
        <ele>425.5</ele>
        <time>2016-11-13T07:54:36Z</time>
      </trkpt>
      <trkpt lat="43.71357" lon="3.46551">
        <ele>425.3</ele>
        <time>2016-11-13T07:54:39Z</time>
      </trkpt>
      <trkpt lat="43.71365" lon="3.46551">
        <ele>425.1</ele>
        <time>2016-11-13T07:54:42Z</time>
      </trkpt>
      <trkpt lat="43.71373" lon="3.46551">
        <ele>425.2</ele>
        <time>2016-11-13T07:54:46Z</time>
      </trkpt>
      <trkpt lat="43.71382" lon="3.46548">
        <ele>425.2</ele>
        <time>2016-11-13T07:54:50Z</time>
      </trkpt>
      <trkpt lat="43.71391" lon="3.46547">
        <ele>425.2</ele>
        <time>2016-11-13T07:54:53Z</time>
      </trkpt>
      <trkpt lat="43.71399" lon="3.46545">
        <ele>425.4</ele>
        <time>2016-11-13T07:54:56Z</time>
      </trkpt>
      <trkpt lat="43.71408" lon="3.46541">
        <ele>425.7</ele>
        <time>2016-11-13T07:55:01Z</time>
      </trkpt>
      <trkpt lat="43.71415" lon="3.4654">
        <ele>425.8</ele>
        <time>2016-11-13T07:55:04Z</time>
      </trkpt>
      <trkpt lat="43.71423" lon="3.46538">
        <ele>426</ele>
        <time>2016-11-13T07:55:08Z</time>
      </trkpt>
      <trkpt lat="43.71432" lon="3.46536">
        <ele>426.4</ele>
        <time>2016-11-13T07:55:12Z</time>
      </trkpt>
      <trkpt lat="43.7144" lon="3.46534">
        <ele>426.6</ele>
        <time>2016-11-13T07:55:15Z</time>
      </trkpt>
      <trkpt lat="43.71447" lon="3.46532">
        <ele>426.7</ele>
        <time>2016-11-13T07:55:18Z</time>
      </trkpt>
      <trkpt lat="43.71456" lon="3.4653">
        <ele>426.7</ele>
        <time>2016-11-13T07:55:22Z</time>
      </trkpt>
      <trkpt lat="43.71464" lon="3.46526">
        <ele>426.7</ele>
        <time>2016-11-13T07:55:25Z</time>
      </trkpt>
      <trkpt lat="43.71472" lon="3.46523">
        <ele>426.7</ele>
        <time>2016-11-13T07:55:28Z</time>
      </trkpt>
      <trkpt lat="43.7148" lon="3.46518">
        <ele>426.7</ele>
        <time>2016-11-13T07:55:31Z</time>
      </trkpt>
      <trkpt lat="43.71486" lon="3.4651">
        <ele>427</ele>
        <time>2016-11-13T07:55:35Z</time>
      </trkpt>
      <trkpt lat="43.71491" lon="3.46502">
        <ele>427.2</ele>
        <time>2016-11-13T07:55:38Z</time>
      </trkpt>
      <trkpt lat="43.71495" lon="3.46494">
        <ele>427.4</ele>
        <time>2016-11-13T07:55:41Z</time>
      </trkpt>
      <trkpt lat="43.715" lon="3.46484">
        <ele>427.5</ele>
        <time>2016-11-13T07:55:44Z</time>
      </trkpt>
      <trkpt lat="43.71505" lon="3.46474">
        <ele>427.7</ele>
        <time>2016-11-13T07:55:47Z</time>
      </trkpt>
      <trkpt lat="43.71509" lon="3.46465">
        <ele>428.1</ele>
        <time>2016-11-13T07:55:50Z</time>
      </trkpt>
      <trkpt lat="43.71513" lon="3.46454">
        <ele>428.4</ele>
        <time>2016-11-13T07:55:53Z</time>
      </trkpt>
      <trkpt lat="43.71517" lon="3.46445">
        <ele>428.8</ele>
        <time>2016-11-13T07:55:57Z</time>
      </trkpt>
      <trkpt lat="43.71521" lon="3.46437">
        <ele>429</ele>
        <time>2016-11-13T07:56:00Z</time>
      </trkpt>
      <trkpt lat="43.71528" lon="3.46428">
        <ele>429.2</ele>
        <time>2016-11-13T07:56:04Z</time>
      </trkpt>
      <trkpt lat="43.71535" lon="3.4642">
        <ele>429.2</ele>
        <time>2016-11-13T07:56:07Z</time>
      </trkpt>
      <trkpt lat="43.71542" lon="3.46413">
        <ele>429.1</ele>
        <time>2016-11-13T07:56:11Z</time>
      </trkpt>
      <trkpt lat="43.71551" lon="3.46408">
        <ele>429.2</ele>
        <time>2016-11-13T07:56:14Z</time>
      </trkpt>
      <trkpt lat="43.71559" lon="3.46403">
        <ele>429.4</ele>
        <time>2016-11-13T07:56:17Z</time>
      </trkpt>
      <trkpt lat="43.71567" lon="3.46398">
        <ele>429.7</ele>
        <time>2016-11-13T07:56:20Z</time>
      </trkpt>
      <trkpt lat="43.71574" lon="3.46391">
        <ele>430</ele>
        <time>2016-11-13T07:56:23Z</time>
      </trkpt>
      <trkpt lat="43.71582" lon="3.46384">
        <ele>430.3</ele>
        <time>2016-11-13T07:56:26Z</time>
      </trkpt>
      <trkpt lat="43.71587" lon="3.46377">
        <ele>430.5</ele>
        <time>2016-11-13T07:56:29Z</time>
      </trkpt>
      <trkpt lat="43.71593" lon="3.46368">
        <ele>430.8</ele>
        <time>2016-11-13T07:56:32Z</time>
      </trkpt>
      <trkpt lat="43.71598" lon="3.4636">
        <ele>431</ele>
        <time>2016-11-13T07:56:35Z</time>
      </trkpt>
      <trkpt lat="43.71604" lon="3.46348">
        <ele>431.2</ele>
        <time>2016-11-13T07:56:38Z</time>
      </trkpt>
      <trkpt lat="43.71611" lon="3.46338">
        <ele>431.5</ele>
        <time>2016-11-13T07:56:41Z</time>
      </trkpt>
      <trkpt lat="43.71615" lon="3.46328">
        <ele>431.8</ele>
        <time>2016-11-13T07:56:44Z</time>
      </trkpt>
      <trkpt lat="43.7162" lon="3.46317">
        <ele>432.1</ele>
        <time>2016-11-13T07:56:47Z</time>
      </trkpt>
      <trkpt lat="43.71625" lon="3.46309">
        <ele>432.2</ele>
        <time>2016-11-13T07:56:50Z</time>
      </trkpt>
      <trkpt lat="43.71629" lon="3.46301">
        <ele>432.4</ele>
        <time>2016-11-13T07:56:53Z</time>
      </trkpt>
      <trkpt lat="43.71633" lon="3.4629">
        <ele>432.5</ele>
        <time>2016-11-13T07:56:56Z</time>
      </trkpt>
      <trkpt lat="43.71637" lon="3.4628">
        <ele>432.6</ele>
        <time>2016-11-13T07:56:59Z</time>
      </trkpt>
      <trkpt lat="43.7164" lon="3.4627">
        <ele>432.7</ele>
        <time>2016-11-13T07:57:02Z</time>
      </trkpt>
      <trkpt lat="43.71642" lon="3.46258">
        <ele>432.7</ele>
        <time>2016-11-13T07:57:05Z</time>
      </trkpt>
      <trkpt lat="43.71645" lon="3.46248">
        <ele>432.7</ele>
        <time>2016-11-13T07:57:08Z</time>
      </trkpt>
      <trkpt lat="43.71647" lon="3.46239">
        <ele>432.6</ele>
        <time>2016-11-13T07:57:11Z</time>
      </trkpt>
      <trkpt lat="43.71649" lon="3.46226">
        <ele>432.8</ele>
        <time>2016-11-13T07:57:14Z</time>
      </trkpt>
      <trkpt lat="43.7165" lon="3.46213">
        <ele>433.1</ele>
        <time>2016-11-13T07:57:17Z</time>
      </trkpt>
      <trkpt lat="43.71652" lon="3.46202">
        <ele>433.3</ele>
        <time>2016-11-13T07:57:20Z</time>
      </trkpt>
      <trkpt lat="43.71656" lon="3.46191">
        <ele>433.6</ele>
        <time>2016-11-13T07:57:23Z</time>
      </trkpt>
      <trkpt lat="43.71663" lon="3.4618">
        <ele>434</ele>
        <time>2016-11-13T07:57:26Z</time>
      </trkpt>
      <trkpt lat="43.71668" lon="3.46171">
        <ele>434.4</ele>
        <time>2016-11-13T07:57:29Z</time>
      </trkpt>
      <trkpt lat="43.71674" lon="3.4616">
        <ele>434.7</ele>
        <time>2016-11-13T07:57:32Z</time>
      </trkpt>
      <trkpt lat="43.7168" lon="3.46149">
        <ele>435</ele>
        <time>2016-11-13T07:57:35Z</time>
      </trkpt>
      <trkpt lat="43.71685" lon="3.46139">
        <ele>435.4</ele>
        <time>2016-11-13T07:57:38Z</time>
      </trkpt>
      <trkpt lat="43.7169" lon="3.46132">
        <ele>435.8</ele>
        <time>2016-11-13T07:57:41Z</time>
      </trkpt>
      <trkpt lat="43.71696" lon="3.46122">
        <ele>436</ele>
        <time>2016-11-13T07:57:44Z</time>
      </trkpt>
      <trkpt lat="43.71702" lon="3.46114">
        <ele>436.3</ele>
        <time>2016-11-13T07:57:47Z</time>
      </trkpt>
      <trkpt lat="43.71707" lon="3.46104">
        <ele>436.8</ele>
        <time>2016-11-13T07:57:50Z</time>
      </trkpt>
      <trkpt lat="43.7171" lon="3.46092">
        <ele>437.1</ele>
        <time>2016-11-13T07:57:53Z</time>
      </trkpt>
      <trkpt lat="43.71712" lon="3.46081">
        <ele>437.5</ele>
        <time>2016-11-13T07:57:56Z</time>
      </trkpt>
      <trkpt lat="43.71716" lon="3.4607">
        <ele>437.8</ele>
        <time>2016-11-13T07:57:59Z</time>
      </trkpt>
      <trkpt lat="43.71718" lon="3.46059">
        <ele>438.1</ele>
        <time>2016-11-13T07:58:02Z</time>
      </trkpt>
      <trkpt lat="43.71721" lon="3.46049">
        <ele>438.2</ele>
        <time>2016-11-13T07:58:05Z</time>
      </trkpt>
      <trkpt lat="43.71725" lon="3.46039">
        <ele>438.4</ele>
        <time>2016-11-13T07:58:08Z</time>
      </trkpt>
      <trkpt lat="43.71729" lon="3.46028">
        <ele>438.5</ele>
        <time>2016-11-13T07:58:11Z</time>
      </trkpt>
      <trkpt lat="43.71736" lon="3.46018">
        <ele>438.5</ele>
        <time>2016-11-13T07:58:15Z</time>
      </trkpt>
      <trkpt lat="43.71742" lon="3.46012">
        <ele>438.5</ele>
        <time>2016-11-13T07:58:17Z</time>
      </trkpt>
      <trkpt lat="43.71747" lon="3.46003">
        <ele>438.5</ele>
        <time>2016-11-13T07:58:20Z</time>
      </trkpt>
      <trkpt lat="43.71753" lon="3.45995">
        <ele>438.5</ele>
        <time>2016-11-13T07:58:23Z</time>
      </trkpt>
      <trkpt lat="43.71759" lon="3.45984">
        <ele>438.4</ele>
        <time>2016-11-13T07:58:26Z</time>
      </trkpt>
      <trkpt lat="43.71764" lon="3.45974">
        <ele>438.3</ele>
        <time>2016-11-13T07:58:29Z</time>
      </trkpt>
      <trkpt lat="43.71769" lon="3.45964">
        <ele>438.5</ele>
        <time>2016-11-13T07:58:32Z</time>
      </trkpt>
      <trkpt lat="43.71774" lon="3.45955">
        <ele>438.5</ele>
        <time>2016-11-13T07:58:35Z</time>
      </trkpt>
      <trkpt lat="43.71781" lon="3.4595">
        <ele>438.4</ele>
        <time>2016-11-13T07:58:38Z</time>
      </trkpt>
      <trkpt lat="43.7179" lon="3.45951">
        <ele>438.5</ele>
        <time>2016-11-13T07:58:42Z</time>
      </trkpt>
      <trkpt lat="43.71798" lon="3.4595">
        <ele>438.6</ele>
        <time>2016-11-13T07:58:45Z</time>
      </trkpt>
      <trkpt lat="43.71806" lon="3.45947">
        <ele>438.7</ele>
        <time>2016-11-13T07:58:47Z</time>
      </trkpt>
      <trkpt lat="43.71813" lon="3.45945">
        <ele>438.7</ele>
        <time>2016-11-13T07:58:49Z</time>
      </trkpt>
      <trkpt lat="43.71822" lon="3.45942">
        <ele>438.7</ele>
        <time>2016-11-13T07:58:52Z</time>
      </trkpt>
      <trkpt lat="43.71831" lon="3.45938">
        <ele>438.8</ele>
        <time>2016-11-13T07:58:56Z</time>
      </trkpt>
      <trkpt lat="43.71837" lon="3.45933">
        <ele>438.9</ele>
        <time>2016-11-13T07:58:59Z</time>
      </trkpt>
      <trkpt lat="43.71846" lon="3.45927">
        <ele>438.8</ele>
        <time>2016-11-13T07:59:02Z</time>
      </trkpt>
      <trkpt lat="43.71852" lon="3.4592">
        <ele>438.9</ele>
        <time>2016-11-13T07:59:05Z</time>
      </trkpt>
      <trkpt lat="43.71858" lon="3.45912">
        <ele>438.8</ele>
        <time>2016-11-13T07:59:08Z</time>
      </trkpt>
      <trkpt lat="43.71865" lon="3.45903">
        <ele>438.8</ele>
        <time>2016-11-13T07:59:11Z</time>
      </trkpt>
      <trkpt lat="43.71871" lon="3.45896">
        <ele>438.8</ele>
        <time>2016-11-13T07:59:13Z</time>
      </trkpt>
      <trkpt lat="43.7188" lon="3.45892">
        <ele>438.8</ele>
        <time>2016-11-13T07:59:16Z</time>
      </trkpt>
      <trkpt lat="43.71888" lon="3.4589">
        <ele>438.9</ele>
        <time>2016-11-13T07:59:19Z</time>
      </trkpt>
      <trkpt lat="43.71897" lon="3.45885">
        <ele>439.1</ele>
        <time>2016-11-13T07:59:22Z</time>
      </trkpt>
      <trkpt lat="43.71905" lon="3.4588">
        <ele>439.3</ele>
        <time>2016-11-13T07:59:25Z</time>
      </trkpt>
      <trkpt lat="43.71912" lon="3.45875">
        <ele>439.5</ele>
        <time>2016-11-13T07:59:28Z</time>
      </trkpt>
      <trkpt lat="43.7192" lon="3.4587">
        <ele>439.7</ele>
        <time>2016-11-13T07:59:31Z</time>
      </trkpt>
      <trkpt lat="43.7193" lon="3.45869">
        <ele>439.9</ele>
        <time>2016-11-13T07:59:34Z</time>
      </trkpt>
      <trkpt lat="43.71937" lon="3.45873">
        <ele>440.1</ele>
        <time>2016-11-13T07:59:36Z</time>
      </trkpt>
      <trkpt lat="43.71945" lon="3.45877">
        <ele>440.5</ele>
        <time>2016-11-13T07:59:39Z</time>
      </trkpt>
      <trkpt lat="43.71953" lon="3.45883">
        <ele>441</ele>
        <time>2016-11-13T07:59:42Z</time>
      </trkpt>
      <trkpt lat="43.71961" lon="3.45891">
        <ele>441.5</ele>
        <time>2016-11-13T07:59:45Z</time>
      </trkpt>
      <trkpt lat="43.7197" lon="3.459">
        <ele>442</ele>
        <time>2016-11-13T07:59:48Z</time>
      </trkpt>
      <trkpt lat="43.71979" lon="3.45907">
        <ele>442.6</ele>
        <time>2016-11-13T07:59:51Z</time>
      </trkpt>
      <trkpt lat="43.71986" lon="3.45912">
        <ele>443.1</ele>
        <time>2016-11-13T07:59:53Z</time>
      </trkpt>
      <trkpt lat="43.71992" lon="3.4592">
        <ele>443.7</ele>
        <time>2016-11-13T07:59:57Z</time>
      </trkpt>
      <trkpt lat="43.71997" lon="3.45928">
        <ele>444.3</ele>
        <time>2016-11-13T08:00:00Z</time>
      </trkpt>
      <trkpt lat="43.72005" lon="3.45935">
        <ele>444.8</ele>
        <time>2016-11-13T08:00:03Z</time>
      </trkpt>
      <trkpt lat="43.72011" lon="3.45942">
        <ele>445.3</ele>
        <time>2016-11-13T08:00:07Z</time>
      </trkpt>
      <trkpt lat="43.72016" lon="3.45952">
        <ele>445.3</ele>
        <time>2016-11-13T08:00:11Z</time>
      </trkpt>
      <trkpt lat="43.72023" lon="3.4596">
        <ele>445.2</ele>
        <time>2016-11-13T08:00:14Z</time>
      </trkpt>
      <trkpt lat="43.7203" lon="3.45964">
        <ele>445.3</ele>
        <time>2016-11-13T08:00:17Z</time>
      </trkpt>
      <trkpt lat="43.72037" lon="3.45962">
        <ele>445.4</ele>
        <time>2016-11-13T08:00:19Z</time>
      </trkpt>
      <trkpt lat="43.72045" lon="3.45958">
        <ele>445.6</ele>
        <time>2016-11-13T08:00:21Z</time>
      </trkpt>
      <trkpt lat="43.72053" lon="3.45953">
        <ele>445.6</ele>
        <time>2016-11-13T08:00:23Z</time>
      </trkpt>
      <trkpt lat="43.72059" lon="3.45947">
        <ele>445.5</ele>
        <time>2016-11-13T08:00:25Z</time>
      </trkpt>
      <trkpt lat="43.72067" lon="3.45937">
        <ele>445.5</ele>
        <time>2016-11-13T08:00:29Z</time>
      </trkpt>
      <trkpt lat="43.72071" lon="3.45927">
        <ele>445.1</ele>
        <time>2016-11-13T08:00:31Z</time>
      </trkpt>
      <trkpt lat="43.72077" lon="3.45919">
        <ele>443.6</ele>
        <time>2016-11-13T08:00:33Z</time>
      </trkpt>
      <trkpt lat="43.72086" lon="3.45909">
        <ele>441.9</ele>
        <time>2016-11-13T08:00:35Z</time>
      </trkpt>
      <trkpt lat="43.72095" lon="3.45901">
        <ele>440.9</ele>
        <time>2016-11-13T08:00:37Z</time>
      </trkpt>
      <trkpt lat="43.72106" lon="3.45894">
        <ele>440.3</ele>
        <time>2016-11-13T08:00:39Z</time>
      </trkpt>
      <trkpt lat="43.72116" lon="3.4589">
        <ele>439.9</ele>
        <time>2016-11-13T08:00:41Z</time>
      </trkpt>
      <trkpt lat="43.72125" lon="3.45886">
        <ele>439.5</ele>
        <time>2016-11-13T08:00:43Z</time>
      </trkpt>
      <trkpt lat="43.72133" lon="3.45883">
        <ele>438.5</ele>
        <time>2016-11-13T08:00:45Z</time>
      </trkpt>
      <trkpt lat="43.72141" lon="3.45879">
        <ele>437.6</ele>
        <time>2016-11-13T08:00:47Z</time>
      </trkpt>
      <trkpt lat="43.72149" lon="3.45873">
        <ele>438</ele>
        <time>2016-11-13T08:00:49Z</time>
      </trkpt>
      <trkpt lat="43.72157" lon="3.45866">
        <ele>438.2</ele>
        <time>2016-11-13T08:00:52Z</time>
      </trkpt>
      <trkpt lat="43.72165" lon="3.4586">
        <ele>438.2</ele>
        <time>2016-11-13T08:00:55Z</time>
      </trkpt>
      <trkpt lat="43.72174" lon="3.45851">
        <ele>438</ele>
        <time>2016-11-13T08:00:58Z</time>
      </trkpt>
      <trkpt lat="43.72181" lon="3.45844">
        <ele>436.8</ele>
        <time>2016-11-13T08:01:00Z</time>
      </trkpt>
      <trkpt lat="43.72188" lon="3.45839">
        <ele>436.7</ele>
        <time>2016-11-13T08:01:02Z</time>
      </trkpt>
      <trkpt lat="43.72196" lon="3.45833">
        <ele>436.4</ele>
        <time>2016-11-13T08:01:05Z</time>
      </trkpt>
      <trkpt lat="43.72203" lon="3.45824">
        <ele>436.3</ele>
        <time>2016-11-13T08:01:08Z</time>
      </trkpt>
      <trkpt lat="43.72209" lon="3.45812">
        <ele>436.3</ele>
        <time>2016-11-13T08:01:11Z</time>
      </trkpt>
      <trkpt lat="43.72215" lon="3.45803">
        <ele>436.3</ele>
        <time>2016-11-13T08:01:15Z</time>
      </trkpt>
      <trkpt lat="43.72221" lon="3.45792">
        <ele>436.4</ele>
        <time>2016-11-13T08:01:18Z</time>
      </trkpt>
      <trkpt lat="43.72226" lon="3.45784">
        <ele>436.4</ele>
        <time>2016-11-13T08:01:20Z</time>
      </trkpt>
      <trkpt lat="43.72233" lon="3.45776">
        <ele>436.4</ele>
        <time>2016-11-13T08:01:23Z</time>
      </trkpt>
      <trkpt lat="43.72241" lon="3.45769">
        <ele>436.3</ele>
        <time>2016-11-13T08:01:27Z</time>
      </trkpt>
      <trkpt lat="43.72248" lon="3.45763">
        <ele>436.5</ele>
        <time>2016-11-13T08:01:31Z</time>
      </trkpt>
      <trkpt lat="43.72254" lon="3.45756">
        <ele>436.9</ele>
        <time>2016-11-13T08:01:35Z</time>
      </trkpt>
      <trkpt lat="43.72261" lon="3.45749">
        <ele>437.2</ele>
        <time>2016-11-13T08:01:41Z</time>
      </trkpt>
      <trkpt lat="43.72267" lon="3.45742">
        <ele>437.4</ele>
        <time>2016-11-13T08:01:46Z</time>
      </trkpt>
      <trkpt lat="43.72274" lon="3.45737">
        <ele>437.4</ele>
        <time>2016-11-13T08:01:51Z</time>
      </trkpt>
      <trkpt lat="43.72281" lon="3.45731">
        <ele>437.6</ele>
        <time>2016-11-13T08:01:57Z</time>
      </trkpt>
      <trkpt lat="43.72287" lon="3.45723">
        <ele>437.7</ele>
        <time>2016-11-13T08:02:03Z</time>
      </trkpt>
      <trkpt lat="43.72293" lon="3.45716">
        <ele>438</ele>
        <time>2016-11-13T08:02:07Z</time>
      </trkpt>
      <trkpt lat="43.723" lon="3.4571">
        <ele>438.1</ele>
        <time>2016-11-13T08:02:12Z</time>
      </trkpt>
      <trkpt lat="43.72307" lon="3.45706">
        <ele>438.3</ele>
        <time>2016-11-13T08:02:17Z</time>
      </trkpt>
      <trkpt lat="43.72317" lon="3.45705">
        <ele>439</ele>
        <time>2016-11-13T08:02:23Z</time>
      </trkpt>
      <trkpt lat="43.72325" lon="3.45702">
        <ele>439.6</ele>
        <time>2016-11-13T08:02:28Z</time>
      </trkpt>
      <trkpt lat="43.72331" lon="3.45695">
        <ele>440.1</ele>
        <time>2016-11-13T08:02:34Z</time>
      </trkpt>
      <trkpt lat="43.72335" lon="3.45685">
        <ele>441</ele>
        <time>2016-11-13T08:02:40Z</time>
      </trkpt>
      <trkpt lat="43.72328" lon="3.4568">
        <ele>442.1</ele>
        <time>2016-11-13T08:02:45Z</time>
      </trkpt>
      <trkpt lat="43.72321" lon="3.45675">
        <ele>443.2</ele>
        <time>2016-11-13T08:02:51Z</time>
      </trkpt>
      <trkpt lat="43.7232" lon="3.45665">
        <ele>444.4</ele>
        <time>2016-11-13T08:02:58Z</time>
      </trkpt>
      <trkpt lat="43.72319" lon="3.45655">
        <ele>445.4</ele>
        <time>2016-11-13T08:03:03Z</time>
      </trkpt>
      <trkpt lat="43.72316" lon="3.45644">
        <ele>446.7</ele>
        <time>2016-11-13T08:03:09Z</time>
      </trkpt>
      <trkpt lat="43.7231" lon="3.45636">
        <ele>448.6</ele>
        <time>2016-11-13T08:03:16Z</time>
      </trkpt>
      <trkpt lat="43.72304" lon="3.45632">
        <ele>449.9</ele>
        <time>2016-11-13T08:03:21Z</time>
      </trkpt>
      <trkpt lat="43.72303" lon="3.4563">
        <ele>451.8</ele>
        <time>2016-11-13T08:03:28Z</time>
      </trkpt>
      <trkpt lat="43.723" lon="3.45631">
        <ele>453.3</ele>
        <time>2016-11-13T08:03:35Z</time>
      </trkpt>
      <trkpt lat="43.72295" lon="3.45636">
        <ele>454.8</ele>
        <time>2016-11-13T08:03:42Z</time>
      </trkpt>
      <trkpt lat="43.72287" lon="3.45639">
        <ele>459.4</ele>
        <time>2016-11-13T08:04:03Z</time>
      </trkpt>
      <trkpt lat="43.72279" lon="3.4564">
        <ele>460.4</ele>
        <time>2016-11-13T08:04:09Z</time>
      </trkpt>
      <trkpt lat="43.72271" lon="3.45641">
        <ele>461.6</ele>
        <time>2016-11-13T08:04:16Z</time>
      </trkpt>
      <trkpt lat="43.72263" lon="3.45639">
        <ele>462.5</ele>
        <time>2016-11-13T08:04:22Z</time>
      </trkpt>
      <trkpt lat="43.72256" lon="3.45637">
        <ele>463.5</ele>
        <time>2016-11-13T08:04:29Z</time>
      </trkpt>
      <trkpt lat="43.72249" lon="3.45636">
        <ele>465.4</ele>
        <time>2016-11-13T08:04:36Z</time>
      </trkpt>
      <trkpt lat="43.72241" lon="3.4564">
        <ele>466.2</ele>
        <time>2016-11-13T08:04:42Z</time>
      </trkpt>
      <trkpt lat="43.72234" lon="3.45641">
        <ele>467.3</ele>
        <time>2016-11-13T08:04:49Z</time>
      </trkpt>
      <trkpt lat="43.72226" lon="3.45644">
        <ele>469.8</ele>
        <time>2016-11-13T08:05:03Z</time>
      </trkpt>
      <trkpt lat="43.72222" lon="3.45644">
        <ele>471.1</ele>
        <time>2016-11-13T08:05:10Z</time>
      </trkpt>
      <trkpt lat="43.72224" lon="3.45645">
        <ele>471.7</ele>
        <time>2016-11-13T08:05:17Z</time>
      </trkpt>
      <trkpt lat="43.72218" lon="3.45645">
        <ele>472.5</ele>
        <time>2016-11-13T08:05:24Z</time>
      </trkpt>
      <trkpt lat="43.7221" lon="3.45645">
        <ele>473.1</ele>
        <time>2016-11-13T08:05:30Z</time>
      </trkpt>
      <trkpt lat="43.72204" lon="3.45647">
        <ele>473.8</ele>
        <time>2016-11-13T08:05:37Z</time>
      </trkpt>
      <trkpt lat="43.72198" lon="3.4565">
        <ele>474.9</ele>
        <time>2016-11-13T08:05:44Z</time>
      </trkpt>
      <trkpt lat="43.72194" lon="3.45652">
        <ele>475.9</ele>
        <time>2016-11-13T08:05:51Z</time>
      </trkpt>
      <trkpt lat="43.72186" lon="3.45655">
        <ele>476.8</ele>
        <time>2016-11-13T08:05:57Z</time>
      </trkpt>
      <trkpt lat="43.72179" lon="3.4566">
        <ele>477.7</ele>
        <time>2016-11-13T08:06:02Z</time>
      </trkpt>
      <trkpt lat="43.72173" lon="3.45665">
        <ele>478.5</ele>
        <time>2016-11-13T08:06:07Z</time>
      </trkpt>
      <trkpt lat="43.72166" lon="3.45669">
        <ele>479.4</ele>
        <time>2016-11-13T08:06:13Z</time>
      </trkpt>
      <trkpt lat="43.7216" lon="3.45674">
        <ele>479.9</ele>
        <time>2016-11-13T08:06:17Z</time>
      </trkpt>
      <trkpt lat="43.72153" lon="3.4568">
        <ele>481.1</ele>
        <time>2016-11-13T08:06:23Z</time>
      </trkpt>
      <trkpt lat="43.72145" lon="3.45682">
        <ele>482</ele>
        <time>2016-11-13T08:06:28Z</time>
      </trkpt>
      <trkpt lat="43.72139" lon="3.45687">
        <ele>483</ele>
        <time>2016-11-13T08:06:33Z</time>
      </trkpt>
      <trkpt lat="43.72131" lon="3.45689">
        <ele>484</ele>
        <time>2016-11-13T08:06:38Z</time>
      </trkpt>
      <trkpt lat="43.72123" lon="3.45689">
        <ele>485.2</ele>
        <time>2016-11-13T08:06:43Z</time>
      </trkpt>
      <trkpt lat="43.72115" lon="3.45688">
        <ele>486.4</ele>
        <time>2016-11-13T08:06:49Z</time>
      </trkpt>
      <trkpt lat="43.72107" lon="3.45691">
        <ele>487.6</ele>
        <time>2016-11-13T08:06:55Z</time>
      </trkpt>
      <trkpt lat="43.72099" lon="3.45693">
        <ele>488.7</ele>
        <time>2016-11-13T08:07:00Z</time>
      </trkpt>
      <trkpt lat="43.72091" lon="3.45693">
        <ele>489.8</ele>
        <time>2016-11-13T08:07:05Z</time>
      </trkpt>
      <trkpt lat="43.72084" lon="3.45691">
        <ele>490.7</ele>
        <time>2016-11-13T08:07:10Z</time>
      </trkpt>
      <trkpt lat="43.72075" lon="3.4569">
        <ele>491.5</ele>
        <time>2016-11-13T08:07:15Z</time>
      </trkpt>
      <trkpt lat="43.72068" lon="3.45687">
        <ele>492.5</ele>
        <time>2016-11-13T08:07:20Z</time>
      </trkpt>
      <trkpt lat="43.7206" lon="3.45688">
        <ele>493.6</ele>
        <time>2016-11-13T08:07:26Z</time>
      </trkpt>
      <trkpt lat="43.72052" lon="3.4569">
        <ele>494.6</ele>
        <time>2016-11-13T08:07:32Z</time>
      </trkpt>
      <trkpt lat="43.72044" lon="3.45692">
        <ele>495.7</ele>
        <time>2016-11-13T08:07:39Z</time>
      </trkpt>
      <trkpt lat="43.72036" lon="3.45695">
        <ele>496.4</ele>
        <time>2016-11-13T08:07:44Z</time>
      </trkpt>
      <trkpt lat="43.7203" lon="3.45687">
        <ele>497.1</ele>
        <time>2016-11-13T08:07:50Z</time>
      </trkpt>
      <trkpt lat="43.72025" lon="3.45679">
        <ele>497.5</ele>
        <time>2016-11-13T08:07:54Z</time>
      </trkpt>
      <trkpt lat="43.72023" lon="3.45668">
        <ele>497.7</ele>
        <time>2016-11-13T08:07:58Z</time>
      </trkpt>
      <trkpt lat="43.72019" lon="3.45658">
        <ele>497.9</ele>
        <time>2016-11-13T08:08:03Z</time>
      </trkpt>
      <trkpt lat="43.72015" lon="3.45647">
        <ele>498.4</ele>
        <time>2016-11-13T08:08:07Z</time>
      </trkpt>
      <trkpt lat="43.7201" lon="3.45639">
        <ele>499.2</ele>
        <time>2016-11-13T08:08:12Z</time>
      </trkpt>
      <trkpt lat="43.72005" lon="3.45631">
        <ele>499.9</ele>
        <time>2016-11-13T08:08:16Z</time>
      </trkpt>
      <trkpt lat="43.71999" lon="3.45624">
        <ele>500.6</ele>
        <time>2016-11-13T08:08:21Z</time>
      </trkpt>
      <trkpt lat="43.71993" lon="3.45617">
        <ele>501.1</ele>
        <time>2016-11-13T08:08:25Z</time>
      </trkpt>
      <trkpt lat="43.71986" lon="3.45609">
        <ele>501.7</ele>
        <time>2016-11-13T08:08:30Z</time>
      </trkpt>
      <trkpt lat="43.71978" lon="3.45603">
        <ele>502.4</ele>
        <time>2016-11-13T08:08:35Z</time>
      </trkpt>
      <trkpt lat="43.71971" lon="3.45601">
        <ele>503.2</ele>
        <time>2016-11-13T08:08:39Z</time>
      </trkpt>
      <trkpt lat="43.71963" lon="3.45604">
        <ele>504.1</ele>
        <time>2016-11-13T08:08:44Z</time>
      </trkpt>
      <trkpt lat="43.71956" lon="3.45611">
        <ele>505.1</ele>
        <time>2016-11-13T08:08:49Z</time>
      </trkpt>
      <trkpt lat="43.71949" lon="3.4561">
        <ele>506.3</ele>
        <time>2016-11-13T08:08:55Z</time>
      </trkpt>
      <trkpt lat="43.71941" lon="3.45611">
        <ele>507.8</ele>
        <time>2016-11-13T08:09:01Z</time>
      </trkpt>
      <trkpt lat="43.71935" lon="3.45617">
        <ele>509</ele>
        <time>2016-11-13T08:09:08Z</time>
      </trkpt>
      <trkpt lat="43.71929" lon="3.45623">
        <ele>509.7</ele>
        <time>2016-11-13T08:09:13Z</time>
      </trkpt>
      <trkpt lat="43.71922" lon="3.45626">
        <ele>510.5</ele>
        <time>2016-11-13T08:09:19Z</time>
      </trkpt>
      <trkpt lat="43.71915" lon="3.45627">
        <ele>511.6</ele>
        <time>2016-11-13T08:09:26Z</time>
      </trkpt>
      <trkpt lat="43.71908" lon="3.45632">
        <ele>512.2</ele>
        <time>2016-11-13T08:09:31Z</time>
      </trkpt>
      <trkpt lat="43.719" lon="3.45639">
        <ele>513.2</ele>
        <time>2016-11-13T08:09:38Z</time>
      </trkpt>
      <trkpt lat="43.71891" lon="3.45645">
        <ele>513.5</ele>
        <time>2016-11-13T08:09:41Z</time>
      </trkpt>
      <trkpt lat="43.71885" lon="3.4565">
        <ele>513.7</ele>
        <time>2016-11-13T08:09:43Z</time>
      </trkpt>
      <trkpt lat="43.71877" lon="3.45653">
        <ele>514</ele>
        <time>2016-11-13T08:09:45Z</time>
      </trkpt>
      <trkpt lat="43.71869" lon="3.45654">
        <ele>514.4</ele>
        <time>2016-11-13T08:09:49Z</time>
      </trkpt>
      <trkpt lat="43.71862" lon="3.45658">
        <ele>514.7</ele>
        <time>2016-11-13T08:09:52Z</time>
      </trkpt>
      <trkpt lat="43.71854" lon="3.45655">
        <ele>515</ele>
        <time>2016-11-13T08:09:55Z</time>
      </trkpt>
      <trkpt lat="43.71846" lon="3.45659">
        <ele>515.6</ele>
        <time>2016-11-13T08:09:59Z</time>
      </trkpt>
      <trkpt lat="43.71838" lon="3.45663">
        <ele>515.7</ele>
        <time>2016-11-13T08:10:02Z</time>
      </trkpt>
      <trkpt lat="43.71829" lon="3.4566">
        <ele>515.9</ele>
        <time>2016-11-13T08:10:05Z</time>
      </trkpt>
      <trkpt lat="43.71822" lon="3.45657">
        <ele>516.4</ele>
        <time>2016-11-13T08:10:09Z</time>
      </trkpt>
      <trkpt lat="43.71813" lon="3.45658">
        <ele>516.9</ele>
        <time>2016-11-13T08:10:13Z</time>
      </trkpt>
      <trkpt lat="43.71806" lon="3.45651">
        <ele>517.4</ele>
        <time>2016-11-13T08:10:17Z</time>
      </trkpt>
      <trkpt lat="43.71802" lon="3.45642">
        <ele>518.2</ele>
        <time>2016-11-13T08:10:23Z</time>
      </trkpt>
      <trkpt lat="43.71797" lon="3.45638">
        <ele>519.3</ele>
        <time>2016-11-13T08:10:30Z</time>
      </trkpt>
      <trkpt lat="43.71795" lon="3.45629">
        <ele>524</ele>
        <time>2016-11-13T08:14:26Z</time>
      </trkpt>
      <trkpt lat="43.71789" lon="3.45622">
        <ele>524.3</ele>
        <time>2016-11-13T08:14:31Z</time>
      </trkpt>
      <trkpt lat="43.71786" lon="3.45612">
        <ele>524.4</ele>
        <time>2016-11-13T08:14:34Z</time>
      </trkpt>
      <trkpt lat="43.71788" lon="3.45602">
        <ele>524.3</ele>
        <time>2016-11-13T08:14:38Z</time>
      </trkpt>
      <trkpt lat="43.71788" lon="3.45591">
        <ele>524.3</ele>
        <time>2016-11-13T08:14:42Z</time>
      </trkpt>
      <trkpt lat="43.7179" lon="3.4558">
        <ele>524.3</ele>
        <time>2016-11-13T08:14:46Z</time>
      </trkpt>
      <trkpt lat="43.71795" lon="3.45572">
        <ele>524.3</ele>
        <time>2016-11-13T08:14:49Z</time>
      </trkpt>
      <trkpt lat="43.71801" lon="3.45565">
        <ele>524.7</ele>
        <time>2016-11-13T08:14:53Z</time>
      </trkpt>
      <trkpt lat="43.71806" lon="3.45556">
        <ele>525.1</ele>
        <time>2016-11-13T08:14:58Z</time>
      </trkpt>
      <trkpt lat="43.71809" lon="3.45547">
        <ele>525.2</ele>
        <time>2016-11-13T08:15:02Z</time>
      </trkpt>
      <trkpt lat="43.71813" lon="3.45539">
        <ele>525.2</ele>
        <time>2016-11-13T08:15:06Z</time>
      </trkpt>
      <trkpt lat="43.7182" lon="3.45532">
        <ele>525.4</ele>
        <time>2016-11-13T08:15:12Z</time>
      </trkpt>
      <trkpt lat="43.71827" lon="3.45526">
        <ele>525.7</ele>
        <time>2016-11-13T08:15:17Z</time>
      </trkpt>
      <trkpt lat="43.71835" lon="3.45519">
        <ele>525.8</ele>
        <time>2016-11-13T08:15:20Z</time>
      </trkpt>
      <trkpt lat="43.7184" lon="3.45509">
        <ele>525.8</ele>
        <time>2016-11-13T08:15:22Z</time>
      </trkpt>
      <trkpt lat="43.71849" lon="3.455">
        <ele>524.7</ele>
        <time>2016-11-13T08:15:24Z</time>
      </trkpt>
      <trkpt lat="43.71858" lon="3.45494">
        <ele>524</ele>
        <time>2016-11-13T08:15:26Z</time>
      </trkpt>
      <trkpt lat="43.71864" lon="3.4549">
        <ele>524.2</ele>
        <time>2016-11-13T08:15:30Z</time>
      </trkpt>
      <trkpt lat="43.71871" lon="3.45483">
        <ele>524.5</ele>
        <time>2016-11-13T08:15:34Z</time>
      </trkpt>
      <trkpt lat="43.71876" lon="3.45473">
        <ele>524.4</ele>
        <time>2016-11-13T08:15:38Z</time>
      </trkpt>
      <trkpt lat="43.71879" lon="3.45462">
        <ele>524.5</ele>
        <time>2016-11-13T08:15:43Z</time>
      </trkpt>
      <trkpt lat="43.71879" lon="3.4545">
        <ele>525</ele>
        <time>2016-11-13T08:15:48Z</time>
      </trkpt>
      <trkpt lat="43.71878" lon="3.45439">
        <ele>525.5</ele>
        <time>2016-11-13T08:15:52Z</time>
      </trkpt>
      <trkpt lat="43.71877" lon="3.45429">
        <ele>526</ele>
        <time>2016-11-13T08:15:57Z</time>
      </trkpt>
      <trkpt lat="43.71878" lon="3.45418">
        <ele>526.3</ele>
        <time>2016-11-13T08:16:01Z</time>
      </trkpt>
      <trkpt lat="43.71878" lon="3.45408">
        <ele>526.7</ele>
        <time>2016-11-13T08:16:05Z</time>
      </trkpt>
      <trkpt lat="43.71881" lon="3.45398">
        <ele>526.8</ele>
        <time>2016-11-13T08:16:11Z</time>
      </trkpt>
      <trkpt lat="43.71882" lon="3.45387">
        <ele>527.1</ele>
        <time>2016-11-13T08:16:17Z</time>
      </trkpt>
      <trkpt lat="43.71882" lon="3.45379">
        <ele>527.9</ele>
        <time>2016-11-13T08:16:24Z</time>
      </trkpt>
      <trkpt lat="43.71882" lon="3.45366">
        <ele>529.1</ele>
        <time>2016-11-13T08:17:24Z</time>
      </trkpt>
      <trkpt lat="43.71881" lon="3.45353">
        <ele>530</ele>
        <time>2016-11-13T08:17:26Z</time>
      </trkpt>
      <trkpt lat="43.71881" lon="3.45338">
        <ele>529.9</ele>
        <time>2016-11-13T08:17:28Z</time>
      </trkpt>
      <trkpt lat="43.71882" lon="3.4532">
        <ele>529.8</ele>
        <time>2016-11-13T08:17:30Z</time>
      </trkpt>
      <trkpt lat="43.71883" lon="3.45302">
        <ele>529.9</ele>
        <time>2016-11-13T08:17:32Z</time>
      </trkpt>
      <trkpt lat="43.71885" lon="3.45285">
        <ele>529.8</ele>
        <time>2016-11-13T08:17:34Z</time>
      </trkpt>
      <trkpt lat="43.71886" lon="3.45267">
        <ele>529.1</ele>
        <time>2016-11-13T08:17:36Z</time>
      </trkpt>
      <trkpt lat="43.71887" lon="3.45249">
        <ele>528.6</ele>
        <time>2016-11-13T08:17:38Z</time>
      </trkpt>
      <trkpt lat="43.71887" lon="3.45232">
        <ele>528.7</ele>
        <time>2016-11-13T08:17:40Z</time>
      </trkpt>
      <trkpt lat="43.71887" lon="3.4522">
        <ele>529.5</ele>
        <time>2016-11-13T08:17:42Z</time>
      </trkpt>
      <trkpt lat="43.71888" lon="3.4521">
        <ele>529.9</ele>
        <time>2016-11-13T08:17:44Z</time>
      </trkpt>
      <trkpt lat="43.71888" lon="3.45199">
        <ele>530.1</ele>
        <time>2016-11-13T08:17:46Z</time>
      </trkpt>
      <trkpt lat="43.71888" lon="3.45188">
        <ele>529.9</ele>
        <time>2016-11-13T08:17:48Z</time>
      </trkpt>
      <trkpt lat="43.71888" lon="3.45177">
        <ele>529.9</ele>
        <time>2016-11-13T08:17:50Z</time>
      </trkpt>
      <trkpt lat="43.71888" lon="3.45166">
        <ele>529.8</ele>
        <time>2016-11-13T08:17:53Z</time>
      </trkpt>
      <trkpt lat="43.71891" lon="3.45155">
        <ele>529.8</ele>
        <time>2016-11-13T08:17:56Z</time>
      </trkpt>
      <trkpt lat="43.71893" lon="3.45145">
        <ele>529.9</ele>
        <time>2016-11-13T08:17:59Z</time>
      </trkpt>
      <trkpt lat="43.71896" lon="3.45132">
        <ele>529.9</ele>
        <time>2016-11-13T08:18:03Z</time>
      </trkpt>
      <trkpt lat="43.71898" lon="3.4512">
        <ele>529.8</ele>
        <time>2016-11-13T08:18:07Z</time>
      </trkpt>
      <trkpt lat="43.719" lon="3.45109">
        <ele>529.8</ele>
        <time>2016-11-13T08:18:10Z</time>
      </trkpt>
      <trkpt lat="43.71902" lon="3.45096">
        <ele>529.8</ele>
        <time>2016-11-13T08:18:14Z</time>
      </trkpt>
      <trkpt lat="43.71902" lon="3.45086">
        <ele>530.2</ele>
        <time>2016-11-13T08:18:19Z</time>
      </trkpt>
      <trkpt lat="43.71904" lon="3.45075">
        <ele>530.5</ele>
        <time>2016-11-13T08:18:23Z</time>
      </trkpt>
      <trkpt lat="43.71906" lon="3.45063">
        <ele>531.1</ele>
        <time>2016-11-13T08:18:25Z</time>
      </trkpt>
      <trkpt lat="43.71909" lon="3.4505">
        <ele>531.1</ele>
        <time>2016-11-13T08:18:27Z</time>
      </trkpt>
      <trkpt lat="43.71912" lon="3.45037">
        <ele>531</ele>
        <time>2016-11-13T08:18:29Z</time>
      </trkpt>
      <trkpt lat="43.71914" lon="3.45024">
        <ele>530.5</ele>
        <time>2016-11-13T08:18:32Z</time>
      </trkpt>
      <trkpt lat="43.71916" lon="3.45014">
        <ele>530.3</ele>
        <time>2016-11-13T08:18:35Z</time>
      </trkpt>
      <trkpt lat="43.71911" lon="3.45006">
        <ele>530</ele>
        <time>2016-11-13T08:18:42Z</time>
      </trkpt>
      <trkpt lat="43.71904" lon="3.44997">
        <ele>529.5</ele>
        <time>2016-11-13T08:18:45Z</time>
      </trkpt>
      <trkpt lat="43.71899" lon="3.44988">
        <ele>527.3</ele>
        <time>2016-11-13T08:18:48Z</time>
      </trkpt>
      <trkpt lat="43.71906" lon="3.44979">
        <ele>526.6</ele>
        <time>2016-11-13T08:18:53Z</time>
      </trkpt>
      <trkpt lat="43.71912" lon="3.4497">
        <ele>526.1</ele>
        <time>2016-11-13T08:18:56Z</time>
      </trkpt>
      <trkpt lat="43.71917" lon="3.44963">
        <ele>525.6</ele>
        <time>2016-11-13T08:18:59Z</time>
      </trkpt>
      <trkpt lat="43.71923" lon="3.44953">
        <ele>525</ele>
        <time>2016-11-13T08:19:03Z</time>
      </trkpt>
      <trkpt lat="43.7193" lon="3.44948">
        <ele>524.6</ele>
        <time>2016-11-13T08:19:06Z</time>
      </trkpt>
      <trkpt lat="43.71936" lon="3.44943">
        <ele>524.5</ele>
        <time>2016-11-13T08:19:08Z</time>
      </trkpt>
      <trkpt lat="43.7194" lon="3.44927">
        <ele>524.4</ele>
        <time>2016-11-13T08:19:12Z</time>
      </trkpt>
      <trkpt lat="43.71941" lon="3.44914">
        <ele>523.4</ele>
        <time>2016-11-13T08:19:14Z</time>
      </trkpt>
      <trkpt lat="43.71946" lon="3.44902">
        <ele>522.5</ele>
        <time>2016-11-13T08:19:16Z</time>
      </trkpt>
      <trkpt lat="43.71951" lon="3.44891">
        <ele>522</ele>
        <time>2016-11-13T08:19:18Z</time>
      </trkpt>
      <trkpt lat="43.71955" lon="3.4488">
        <ele>520.8</ele>
        <time>2016-11-13T08:19:20Z</time>
      </trkpt>
      <trkpt lat="43.71957" lon="3.44871">
        <ele>520.2</ele>
        <time>2016-11-13T08:19:22Z</time>
      </trkpt>
      <trkpt lat="43.71958" lon="3.44856">
        <ele>519.9</ele>
        <time>2016-11-13T08:19:25Z</time>
      </trkpt>
      <trkpt lat="43.7196" lon="3.44843">
        <ele>519.5</ele>
        <time>2016-11-13T08:19:27Z</time>
      </trkpt>
      <trkpt lat="43.71963" lon="3.44834">
        <ele>519.6</ele>
        <time>2016-11-13T08:19:29Z</time>
      </trkpt>
      <trkpt lat="43.71968" lon="3.44824">
        <ele>519.4</ele>
        <time>2016-11-13T08:19:32Z</time>
      </trkpt>
      <trkpt lat="43.71977" lon="3.44815">
        <ele>519.3</ele>
        <time>2016-11-13T08:19:35Z</time>
      </trkpt>
      <trkpt lat="43.71986" lon="3.44811">
        <ele>519.4</ele>
        <time>2016-11-13T08:19:38Z</time>
      </trkpt>
      <trkpt lat="43.71995" lon="3.4481">
        <ele>519.3</ele>
        <time>2016-11-13T08:19:42Z</time>
      </trkpt>
      <trkpt lat="43.72005" lon="3.4481">
        <ele>519.3</ele>
        <time>2016-11-13T08:19:45Z</time>
      </trkpt>
      <trkpt lat="43.72014" lon="3.44811">
        <ele>519</ele>
        <time>2016-11-13T08:19:48Z</time>
      </trkpt>
      <trkpt lat="43.72021" lon="3.44814">
        <ele>518.8</ele>
        <time>2016-11-13T08:19:51Z</time>
      </trkpt>
      <trkpt lat="43.72029" lon="3.44818">
        <ele>518.7</ele>
        <time>2016-11-13T08:19:54Z</time>
      </trkpt>
      <trkpt lat="43.72037" lon="3.44823">
        <ele>519</ele>
        <time>2016-11-13T08:19:58Z</time>
      </trkpt>
      <trkpt lat="43.72044" lon="3.44828">
        <ele>519.4</ele>
        <time>2016-11-13T08:20:02Z</time>
      </trkpt>
      <trkpt lat="43.72052" lon="3.44833">
        <ele>519.7</ele>
        <time>2016-11-13T08:20:05Z</time>
      </trkpt>
      <trkpt lat="43.7206" lon="3.44837">
        <ele>520.1</ele>
        <time>2016-11-13T08:20:09Z</time>
      </trkpt>
      <trkpt lat="43.72068" lon="3.44842">
        <ele>520.4</ele>
        <time>2016-11-13T08:20:13Z</time>
      </trkpt>
      <trkpt lat="43.72075" lon="3.44847">
        <ele>520.9</ele>
        <time>2016-11-13T08:20:17Z</time>
      </trkpt>
      <trkpt lat="43.72084" lon="3.44853">
        <ele>521.3</ele>
        <time>2016-11-13T08:20:21Z</time>
      </trkpt>
      <trkpt lat="43.72093" lon="3.44858">
        <ele>521.5</ele>
        <time>2016-11-13T08:20:25Z</time>
      </trkpt>
      <trkpt lat="43.721" lon="3.44861">
        <ele>521.7</ele>
        <time>2016-11-13T08:20:28Z</time>
      </trkpt>
      <trkpt lat="43.72109" lon="3.44864">
        <ele>522.2</ele>
        <time>2016-11-13T08:20:32Z</time>
      </trkpt>
      <trkpt lat="43.72116" lon="3.44867">
        <ele>522.6</ele>
        <time>2016-11-13T08:20:35Z</time>
      </trkpt>
      <trkpt lat="43.72124" lon="3.44868">
        <ele>523</ele>
        <time>2016-11-13T08:20:38Z</time>
      </trkpt>
      <trkpt lat="43.72133" lon="3.44873">
        <ele>523.6</ele>
        <time>2016-11-13T08:20:42Z</time>
      </trkpt>
      <trkpt lat="43.7214" lon="3.44875">
        <ele>523.8</ele>
        <time>2016-11-13T08:20:45Z</time>
      </trkpt>
      <trkpt lat="43.72148" lon="3.4487">
        <ele>524.1</ele>
        <time>2016-11-13T08:20:49Z</time>
      </trkpt>
      <trkpt lat="43.72155" lon="3.44865">
        <ele>524.2</ele>
        <time>2016-11-13T08:20:52Z</time>
      </trkpt>
      <trkpt lat="43.72162" lon="3.44861">
        <ele>524.4</ele>
        <time>2016-11-13T08:20:55Z</time>
      </trkpt>
      <trkpt lat="43.72169" lon="3.44858">
        <ele>524.9</ele>
        <time>2016-11-13T08:20:58Z</time>
      </trkpt>
      <trkpt lat="43.72178" lon="3.44857">
        <ele>525.2</ele>
        <time>2016-11-13T08:21:00Z</time>
      </trkpt>
      <trkpt lat="43.72187" lon="3.44854">
        <ele>525.3</ele>
        <time>2016-11-13T08:21:02Z</time>
      </trkpt>
      <trkpt lat="43.72194" lon="3.44847">
        <ele>525.2</ele>
        <time>2016-11-13T08:21:04Z</time>
      </trkpt>
      <trkpt lat="43.72207" lon="3.44855">
        <ele>524.8</ele>
        <time>2016-11-13T08:21:06Z</time>
      </trkpt>
      <trkpt lat="43.72218" lon="3.44855">
        <ele>524.7</ele>
        <time>2016-11-13T08:21:08Z</time>
      </trkpt>
      <trkpt lat="43.72223" lon="3.44847">
        <ele>524.6</ele>
        <time>2016-11-13T08:21:10Z</time>
      </trkpt>
      <trkpt lat="43.72223" lon="3.44835">
        <ele>524.6</ele>
        <time>2016-11-13T08:21:13Z</time>
      </trkpt>
      <trkpt lat="43.72222" lon="3.44825">
        <ele>524.6</ele>
        <time>2016-11-13T08:21:16Z</time>
      </trkpt>
      <trkpt lat="43.7222" lon="3.44812">
        <ele>524.9</ele>
        <time>2016-11-13T08:21:19Z</time>
      </trkpt>
      <trkpt lat="43.72217" lon="3.44801">
        <ele>525.1</ele>
        <time>2016-11-13T08:21:22Z</time>
      </trkpt>
      <trkpt lat="43.72214" lon="3.44792">
        <ele>525.4</ele>
        <time>2016-11-13T08:21:24Z</time>
      </trkpt>
      <trkpt lat="43.72217" lon="3.44781">
        <ele>525.6</ele>
        <time>2016-11-13T08:21:29Z</time>
      </trkpt>
      <trkpt lat="43.72223" lon="3.44774">
        <ele>525.2</ele>
        <time>2016-11-13T08:21:35Z</time>
      </trkpt>
      <trkpt lat="43.72232" lon="3.44776">
        <ele>524.7</ele>
        <time>2016-11-13T08:21:41Z</time>
      </trkpt>
      <trkpt lat="43.72238" lon="3.44781">
        <ele>524.5</ele>
        <time>2016-11-13T08:21:45Z</time>
      </trkpt>
      <trkpt lat="43.72244" lon="3.44788">
        <ele>524.3</ele>
        <time>2016-11-13T08:21:50Z</time>
      </trkpt>
      <trkpt lat="43.72252" lon="3.44791">
        <ele>523.8</ele>
        <time>2016-11-13T08:21:55Z</time>
      </trkpt>
      <trkpt lat="43.72259" lon="3.44794">
        <ele>523.7</ele>
        <time>2016-11-13T08:22:00Z</time>
      </trkpt>
      <trkpt lat="43.72261" lon="3.44797">
        <ele>523.6</ele>
        <time>2016-11-13T08:22:07Z</time>
      </trkpt>
      <trkpt lat="43.72266" lon="3.44781">
        <ele>523.7</ele>
        <time>2016-11-13T08:22:20Z</time>
      </trkpt>
      <trkpt lat="43.72272" lon="3.44774">
        <ele>523.7</ele>
        <time>2016-11-13T08:22:24Z</time>
      </trkpt>
      <trkpt lat="43.72277" lon="3.4477">
        <ele>524.1</ele>
        <time>2016-11-13T08:22:31Z</time>
      </trkpt>
      <trkpt lat="43.72271" lon="3.44763">
        <ele>524.4</ele>
        <time>2016-11-13T08:22:35Z</time>
      </trkpt>
      <trkpt lat="43.72268" lon="3.44754">
        <ele>524.8</ele>
        <time>2016-11-13T08:22:41Z</time>
      </trkpt>
      <trkpt lat="43.72259" lon="3.44743">
        <ele>525.8</ele>
        <time>2016-11-13T08:22:48Z</time>
      </trkpt>
      <trkpt lat="43.7226" lon="3.44735">
        <ele>526.5</ele>
        <time>2016-11-13T08:22:55Z</time>
      </trkpt>
      <trkpt lat="43.72265" lon="3.44729">
        <ele>528.4</ele>
        <time>2016-11-13T08:23:21Z</time>
      </trkpt>
      <trkpt lat="43.72271" lon="3.44717">
        <ele>531.4</ele>
        <time>2016-11-13T08:23:35Z</time>
      </trkpt>
      <trkpt lat="43.72271" lon="3.44708">
        <ele>533.2</ele>
        <time>2016-11-13T08:23:50Z</time>
      </trkpt>
      <trkpt lat="43.72283" lon="3.44701">
        <ele>535.1</ele>
        <time>2016-11-13T08:24:21Z</time>
      </trkpt>
      <trkpt lat="43.72291" lon="3.447">
        <ele>535.5</ele>
        <time>2016-11-13T08:24:25Z</time>
      </trkpt>
      <trkpt lat="43.72301" lon="3.44698">
        <ele>536.6</ele>
        <time>2016-11-13T08:24:33Z</time>
      </trkpt>
      <trkpt lat="43.72309" lon="3.44696">
        <ele>537.6</ele>
        <time>2016-11-13T08:24:38Z</time>
      </trkpt>
      <trkpt lat="43.72317" lon="3.44694">
        <ele>538</ele>
        <time>2016-11-13T08:24:41Z</time>
      </trkpt>
      <trkpt lat="43.72325" lon="3.44692">
        <ele>538.3</ele>
        <time>2016-11-13T08:24:44Z</time>
      </trkpt>
      <trkpt lat="43.72333" lon="3.44691">
        <ele>538.7</ele>
        <time>2016-11-13T08:24:48Z</time>
      </trkpt>
      <trkpt lat="43.72337" lon="3.44691">
        <ele>539</ele>
        <time>2016-11-13T08:24:55Z</time>
      </trkpt>
      <trkpt lat="43.72352" lon="3.44683">
        <ele>539.2</ele>
        <time>2016-11-13T08:24:28Z</time>
      </trkpt>
      <trkpt lat="43.72357" lon="3.44675">
        <ele>539</ele>
        <time>2016-11-13T08:25:37Z</time>
      </trkpt>
      <trkpt lat="43.72363" lon="3.44669">
        <ele>538.5</ele>
        <time>2016-11-13T08:25:42Z</time>
      </trkpt>
      <trkpt lat="43.72371" lon="3.4467">
        <ele>537.7</ele>
        <time>2016-11-13T08:25:47Z</time>
      </trkpt>
      <trkpt lat="43.72379" lon="3.44673">
        <ele>537.5</ele>
        <time>2016-11-13T08:25:50Z</time>
      </trkpt>
      <trkpt lat="43.72387" lon="3.44678">
        <ele>537.2</ele>
        <time>2016-11-13T08:25:55Z</time>
      </trkpt>
      <trkpt lat="43.72394" lon="3.44673">
        <ele>536.9</ele>
        <time>2016-11-13T08:25:58Z</time>
      </trkpt>
      <trkpt lat="43.72399" lon="3.44662">
        <ele>535.8</ele>
        <time>2016-11-13T08:26:03Z</time>
      </trkpt>
      <trkpt lat="43.72402" lon="3.44649">
        <ele>535.1</ele>
        <time>2016-11-13T08:26:06Z</time>
      </trkpt>
      <trkpt lat="43.72404" lon="3.44639">
        <ele>533.5</ele>
        <time>2016-11-13T08:26:11Z</time>
      </trkpt>
      <trkpt lat="43.72403" lon="3.44626">
        <ele>531.9</ele>
        <time>2016-11-13T08:26:16Z</time>
      </trkpt>
      <trkpt lat="43.724" lon="3.44616">
        <ele>531.1</ele>
        <time>2016-11-13T08:26:18Z</time>
      </trkpt>
      <trkpt lat="43.72396" lon="3.44604">
        <ele>529.8</ele>
        <time>2016-11-13T08:26:21Z</time>
      </trkpt>
      <trkpt lat="43.72393" lon="3.44593">
        <ele>526.5</ele>
        <time>2016-11-13T08:26:35Z</time>
      </trkpt>
      <trkpt lat="43.72393" lon="3.44583">
        <ele>524.8</ele>
        <time>2016-11-13T08:26:42Z</time>
      </trkpt>
      <trkpt lat="43.72391" lon="3.44572">
        <ele>523.3</ele>
        <time>2016-11-13T08:26:46Z</time>
      </trkpt>
      <trkpt lat="43.72387" lon="3.44561">
        <ele>521.6</ele>
        <time>2016-11-13T08:26:50Z</time>
      </trkpt>
      <trkpt lat="43.72385" lon="3.44549">
        <ele>520.6</ele>
        <time>2016-11-13T08:26:52Z</time>
      </trkpt>
      <trkpt lat="43.72383" lon="3.44539">
        <ele>519.6</ele>
        <time>2016-11-13T08:26:54Z</time>
      </trkpt>
      <trkpt lat="43.72383" lon="3.44529">
        <ele>517.4</ele>
        <time>2016-11-13T08:26:58Z</time>
      </trkpt>
      <trkpt lat="43.72383" lon="3.44519">
        <ele>515.6</ele>
        <time>2016-11-13T08:27:01Z</time>
      </trkpt>
      <trkpt lat="43.72386" lon="3.44507">
        <ele>512.9</ele>
        <time>2016-11-13T08:27:06Z</time>
      </trkpt>
      <trkpt lat="43.72385" lon="3.44497">
        <ele>511.3</ele>
        <time>2016-11-13T08:27:09Z</time>
      </trkpt>
      <trkpt lat="43.72379" lon="3.44485">
        <ele>509.1</ele>
        <time>2016-11-13T08:27:13Z</time>
      </trkpt>
      <trkpt lat="43.72378" lon="3.44474">
        <ele>507.6</ele>
        <time>2016-11-13T08:27:16Z</time>
      </trkpt>
      <trkpt lat="43.72377" lon="3.44464">
        <ele>506.5</ele>
        <time>2016-11-13T08:27:18Z</time>
      </trkpt>
      <trkpt lat="43.72374" lon="3.4445">
        <ele>505</ele>
        <time>2016-11-13T08:27:21Z</time>
      </trkpt>
      <trkpt lat="43.7237" lon="3.4444">
        <ele>503.4</ele>
        <time>2016-11-13T08:27:24Z</time>
      </trkpt>
      <trkpt lat="43.72369" lon="3.44427">
        <ele>501.4</ele>
        <time>2016-11-13T08:27:27Z</time>
      </trkpt>
      <trkpt lat="43.72372" lon="3.44414">
        <ele>499.1</ele>
        <time>2016-11-13T08:27:30Z</time>
      </trkpt>
      <trkpt lat="43.72371" lon="3.444">
        <ele>497</ele>
        <time>2016-11-13T08:27:33Z</time>
      </trkpt>
      <trkpt lat="43.72365" lon="3.44392">
        <ele>494.9</ele>
        <time>2016-11-13T08:27:36Z</time>
      </trkpt>
      <trkpt lat="43.72362" lon="3.44375">
        <ele>486.2</ele>
        <time>2016-11-13T08:27:39Z</time>
      </trkpt>
      <trkpt lat="43.72363" lon="3.44363">
        <ele>479.5</ele>
        <time>2016-11-13T08:27:41Z</time>
      </trkpt>
      <trkpt lat="43.72365" lon="3.44351">
        <ele>470.1</ele>
        <time>2016-11-13T08:27:43Z</time>
      </trkpt>
      <trkpt lat="43.72365" lon="3.44335">
        <ele>463.5</ele>
        <time>2016-11-13T08:27:45Z</time>
      </trkpt>
      <trkpt lat="43.72366" lon="3.44324">
        <ele>462.8</ele>
        <time>2016-11-13T08:27:48Z</time>
      </trkpt>
      <trkpt lat="43.72367" lon="3.44312">
        <ele>457.7</ele>
        <time>2016-11-13T08:27:50Z</time>
      </trkpt>
      <trkpt lat="43.72368" lon="3.443">
        <ele>456</ele>
        <time>2016-11-13T08:27:52Z</time>
      </trkpt>
      <trkpt lat="43.72367" lon="3.44289">
        <ele>455.6</ele>
        <time>2016-11-13T08:27:55Z</time>
      </trkpt>
      <trkpt lat="43.72372" lon="3.44279">
        <ele>454.5</ele>
        <time>2016-11-13T08:28:02Z</time>
      </trkpt>
      <trkpt lat="43.72368" lon="3.44271">
        <ele>449.7</ele>
        <time>2016-11-13T08:29:03Z</time>
      </trkpt>
      <trkpt lat="43.72369" lon="3.44275">
        <ele>449.7</ele>
        <time>2016-11-13T08:29:10Z</time>
      </trkpt>
      <trkpt lat="43.72372" lon="3.4427">
        <ele>449.2</ele>
        <time>2016-11-13T08:29:17Z</time>
      </trkpt>
      <trkpt lat="43.72376" lon="3.44265">
        <ele>448.7</ele>
        <time>2016-11-13T08:29:24Z</time>
      </trkpt>
      <trkpt lat="43.72379" lon="3.44263">
        <ele>448.5</ele>
        <time>2016-11-13T08:29:31Z</time>
      </trkpt>
      <trkpt lat="43.72377" lon="3.44265">
        <ele>448.2</ele>
        <time>2016-11-13T08:29:38Z</time>
      </trkpt>
      <trkpt lat="43.72372" lon="3.44271">
        <ele>447.7</ele>
        <time>2016-11-13T08:29:45Z</time>
      </trkpt>
      <trkpt lat="43.7237" lon="3.44272">
        <ele>447.6</ele>
        <time>2016-11-13T08:29:52Z</time>
      </trkpt>
      <trkpt lat="43.72368" lon="3.4427">
        <ele>447.5</ele>
        <time>2016-11-13T08:30:01Z</time>
      </trkpt>
      <trkpt lat="43.72373" lon="3.44273">
        <ele>447.4</ele>
        <time>2016-11-13T08:30:11Z</time>
      </trkpt>
      <trkpt lat="43.72375" lon="3.44275">
        <ele>447</ele>
        <time>2016-11-13T08:30:18Z</time>
      </trkpt>
      <trkpt lat="43.72373" lon="3.44266">
        <ele>445.2</ele>
        <time>2016-11-13T08:30:39Z</time>
      </trkpt>
      <trkpt lat="43.72378" lon="3.44259">
        <ele>445</ele>
        <time>2016-11-13T08:30:43Z</time>
      </trkpt>
      <trkpt lat="43.72386" lon="3.44256">
        <ele>444.9</ele>
        <time>2016-11-13T08:30:47Z</time>
      </trkpt>
      <trkpt lat="43.72392" lon="3.44252">
        <ele>444.9</ele>
        <time>2016-11-13T08:30:54Z</time>
      </trkpt>
      <trkpt lat="43.72396" lon="3.44243">
        <ele>444.9</ele>
        <time>2016-11-13T08:31:43Z</time>
      </trkpt>
      <trkpt lat="43.72396" lon="3.44236">
        <ele>445.1</ele>
        <time>2016-11-13T08:31:50Z</time>
      </trkpt>
      <trkpt lat="43.72397" lon="3.44224">
        <ele>445.3</ele>
        <time>2016-11-13T08:31:56Z</time>
      </trkpt>
      <trkpt lat="43.724" lon="3.44215">
        <ele>445</ele>
        <time>2016-11-13T08:32:03Z</time>
      </trkpt>
      <trkpt lat="43.72405" lon="3.44204">
        <ele>444.5</ele>
        <time>2016-11-13T08:32:09Z</time>
      </trkpt>
      <trkpt lat="43.72412" lon="3.44197">
        <ele>443.9</ele>
        <time>2016-11-13T08:32:13Z</time>
      </trkpt>
      <trkpt lat="43.72413" lon="3.44185">
        <ele>443.2</ele>
        <time>2016-11-13T08:32:17Z</time>
      </trkpt>
      <trkpt lat="43.7241" lon="3.44175">
        <ele>441.4</ele>
        <time>2016-11-13T08:32:31Z</time>
      </trkpt>
      <trkpt lat="43.72408" lon="3.44166">
        <ele>440.6</ele>
        <time>2016-11-13T08:32:36Z</time>
      </trkpt>
      <trkpt lat="43.72409" lon="3.44145">
        <ele>438.5</ele>
        <time>2016-11-13T08:32:47Z</time>
      </trkpt>
      <trkpt lat="43.72405" lon="3.44134">
        <ele>438.1</ele>
        <time>2016-11-13T08:32:50Z</time>
      </trkpt>
      <trkpt lat="43.72401" lon="3.44124">
        <ele>437.3</ele>
        <time>2016-11-13T08:32:54Z</time>
      </trkpt>
      <trkpt lat="43.72398" lon="3.44114">
        <ele>436.6</ele>
        <time>2016-11-13T08:32:57Z</time>
      </trkpt>
      <trkpt lat="43.72393" lon="3.44107">
        <ele>436</ele>
        <time>2016-11-13T08:32:59Z</time>
      </trkpt>
      <trkpt lat="43.72391" lon="3.44104">
        <ele>434.7</ele>
        <time>2016-11-13T08:33:06Z</time>
      </trkpt>
      <trkpt lat="43.72387" lon="3.44096">
        <ele>430.9</ele>
        <time>2016-11-13T08:33:28Z</time>
      </trkpt>
      <trkpt lat="43.72377" lon="3.4409">
        <ele>430.4</ele>
        <time>2016-11-13T08:33:31Z</time>
      </trkpt>
      <trkpt lat="43.7237" lon="3.44088">
        <ele>429.2</ele>
        <time>2016-11-13T08:33:36Z</time>
      </trkpt>
      <trkpt lat="43.72362" lon="3.44081">
        <ele>428.2</ele>
        <time>2016-11-13T08:33:39Z</time>
      </trkpt>
      <trkpt lat="43.72361" lon="3.44078">
        <ele>426.1</ele>
        <time>2016-11-13T08:33:46Z</time>
      </trkpt>
      <trkpt lat="43.7236" lon="3.44074">
        <ele>423.6</ele>
        <time>2016-11-13T08:34:04Z</time>
      </trkpt>
      <trkpt lat="43.72361" lon="3.44064">
        <ele>421.5</ele>
        <time>2016-11-13T08:34:16Z</time>
      </trkpt>
      <trkpt lat="43.72359" lon="3.44056">
        <ele>419.8</ele>
        <time>2016-11-13T08:34:23Z</time>
      </trkpt>
      <trkpt lat="43.72359" lon="3.44046">
        <ele>418.7</ele>
        <time>2016-11-13T08:34:27Z</time>
      </trkpt>
      <trkpt lat="43.72361" lon="3.44035">
        <ele>417.4</ele>
        <time>2016-11-13T08:34:31Z</time>
      </trkpt>
      <trkpt lat="43.72362" lon="3.44024">
        <ele>415.6</ele>
        <time>2016-11-13T08:34:36Z</time>
      </trkpt>
      <trkpt lat="43.72357" lon="3.44017">
        <ele>413.6</ele>
        <time>2016-11-13T08:34:41Z</time>
      </trkpt>
      <trkpt lat="43.72354" lon="3.44006">
        <ele>411.8</ele>
        <time>2016-11-13T08:34:45Z</time>
      </trkpt>
      <trkpt lat="43.72354" lon="3.44007">
        <ele>408.9</ele>
        <time>2016-11-13T08:34:52Z</time>
      </trkpt>
      <trkpt lat="43.72355" lon="3.44005">
        <ele>405.5</ele>
        <time>2016-11-13T08:35:02Z</time>
      </trkpt>
      <trkpt lat="43.72355" lon="3.44003">
        <ele>405.3</ele>
        <time>2016-11-13T08:35:09Z</time>
      </trkpt>
      <trkpt lat="43.72352" lon="3.44006">
        <ele>403.6</ele>
        <time>2016-11-13T08:35:28Z</time>
      </trkpt>
      <trkpt lat="43.72348" lon="3.44008">
        <ele>402.1</ele>
        <time>2016-11-13T08:35:35Z</time>
      </trkpt>
      <trkpt lat="43.7234" lon="3.44012">
        <ele>400.8</ele>
        <time>2016-11-13T08:35:40Z</time>
      </trkpt>
      <trkpt lat="43.72336" lon="3.44017">
        <ele>399.3</ele>
        <time>2016-11-13T08:35:47Z</time>
      </trkpt>
      <trkpt lat="43.72334" lon="3.4402">
        <ele>398</ele>
        <time>2016-11-13T08:35:54Z</time>
      </trkpt>
      <trkpt lat="43.72331" lon="3.44021">
        <ele>396.8</ele>
        <time>2016-11-13T08:36:01Z</time>
      </trkpt>
      <trkpt lat="43.72325" lon="3.44023">
        <ele>395.6</ele>
        <time>2016-11-13T08:36:08Z</time>
      </trkpt>
      <trkpt lat="43.72318" lon="3.44026">
        <ele>394.8</ele>
        <time>2016-11-13T08:36:14Z</time>
      </trkpt>
      <trkpt lat="43.72312" lon="3.44032">
        <ele>394.2</ele>
        <time>2016-11-13T08:36:19Z</time>
      </trkpt>
      <trkpt lat="43.72306" lon="3.44033">
        <ele>393.7</ele>
        <time>2016-11-13T08:36:26Z</time>
      </trkpt>
      <trkpt lat="43.72298" lon="3.44039">
        <ele>393.2</ele>
        <time>2016-11-13T08:36:31Z</time>
      </trkpt>
      <trkpt lat="43.72291" lon="3.44039">
        <ele>392.8</ele>
        <time>2016-11-13T08:36:36Z</time>
      </trkpt>
      <trkpt lat="43.72283" lon="3.44043">
        <ele>392.4</ele>
        <time>2016-11-13T08:36:41Z</time>
      </trkpt>
      <trkpt lat="43.72276" lon="3.44049">
        <ele>392.1</ele>
        <time>2016-11-13T08:36:45Z</time>
      </trkpt>
      <trkpt lat="43.72272" lon="3.44055">
        <ele>391.9</ele>
        <time>2016-11-13T08:36:52Z</time>
      </trkpt>
      <trkpt lat="43.72271" lon="3.44059">
        <ele>391.6</ele>
        <time>2016-11-13T08:36:59Z</time>
      </trkpt>
      <trkpt lat="43.72267" lon="3.44067">
        <ele>391.5</ele>
        <time>2016-11-13T08:37:13Z</time>
      </trkpt>
      <trkpt lat="43.72268" lon="3.44072">
        <ele>391.1</ele>
        <time>2016-11-13T08:37:20Z</time>
      </trkpt>
      <trkpt lat="43.72268" lon="3.44076">
        <ele>391.5</ele>
        <time>2016-11-13T08:37:27Z</time>
      </trkpt>
      <trkpt lat="43.72265" lon="3.44079">
        <ele>391.9</ele>
        <time>2016-11-13T08:37:34Z</time>
      </trkpt>
      <trkpt lat="43.72264" lon="3.44083">
        <ele>392.1</ele>
        <time>2016-11-13T08:37:41Z</time>
      </trkpt>
      <trkpt lat="43.72261" lon="3.4409">
        <ele>392.4</ele>
        <time>2016-11-13T08:37:48Z</time>
      </trkpt>
      <trkpt lat="43.72257" lon="3.44098">
        <ele>392.8</ele>
        <time>2016-11-13T08:38:02Z</time>
      </trkpt>
      <trkpt lat="43.72254" lon="3.44104">
        <ele>392.5</ele>
        <time>2016-11-13T08:38:16Z</time>
      </trkpt>
      <trkpt lat="43.72253" lon="3.44106">
        <ele>392.9</ele>
        <time>2016-11-13T08:38:27Z</time>
      </trkpt>
      <trkpt lat="43.72248" lon="3.44111">
        <ele>393</ele>
        <time>2016-11-13T08:38:34Z</time>
      </trkpt>
      <trkpt lat="43.72244" lon="3.44114">
        <ele>393.3</ele>
        <time>2016-11-13T08:38:48Z</time>
      </trkpt>
      <trkpt lat="43.72241" lon="3.44115">
        <ele>393.8</ele>
        <time>2016-11-13T08:38:55Z</time>
      </trkpt>
      <trkpt lat="43.72237" lon="3.44119">
        <ele>393.7</ele>
        <time>2016-11-13T08:39:06Z</time>
      </trkpt>
      <trkpt lat="43.72232" lon="3.44124">
        <ele>393.9</ele>
        <time>2016-11-13T08:39:13Z</time>
      </trkpt>
      <trkpt lat="43.72229" lon="3.44128">
        <ele>393.8</ele>
        <time>2016-11-13T08:39:20Z</time>
      </trkpt>
      <trkpt lat="43.72224" lon="3.44136">
        <ele>393.9</ele>
        <time>2016-11-13T08:39:26Z</time>
      </trkpt>
      <trkpt lat="43.7222" lon="3.44145">
        <ele>394.1</ele>
        <time>2016-11-13T08:39:33Z</time>
      </trkpt>
      <trkpt lat="43.72214" lon="3.44153">
        <ele>394.4</ele>
        <time>2016-11-13T08:39:39Z</time>
      </trkpt>
      <trkpt lat="43.72208" lon="3.44161">
        <ele>396.7</ele>
        <time>2016-11-13T08:40:19Z</time>
      </trkpt>
      <trkpt lat="43.722" lon="3.44166">
        <ele>397</ele>
        <time>2016-11-13T08:40:22Z</time>
      </trkpt>
      <trkpt lat="43.72191" lon="3.44171">
        <ele>396.8</ele>
        <time>2016-11-13T08:40:24Z</time>
      </trkpt>
      <trkpt lat="43.7218" lon="3.44178">
        <ele>396.2</ele>
        <time>2016-11-13T08:40:26Z</time>
      </trkpt>
      <trkpt lat="43.72166" lon="3.44183">
        <ele>395.7</ele>
        <time>2016-11-13T08:40:28Z</time>
      </trkpt>
      <trkpt lat="43.7216" lon="3.44187">
        <ele>395.6</ele>
        <time>2016-11-13T08:40:29Z</time>
      </trkpt>
      <trkpt lat="43.72153" lon="3.4419">
        <ele>395.2</ele>
        <time>2016-11-13T08:40:30Z</time>
      </trkpt>
      <trkpt lat="43.72147" lon="3.44197">
        <ele>394.7</ele>
        <time>2016-11-13T08:40:31Z</time>
      </trkpt>
      <trkpt lat="43.72136" lon="3.44211">
        <ele>392.5</ele>
        <time>2016-11-13T08:40:33Z</time>
      </trkpt>
      <trkpt lat="43.72131" lon="3.44219">
        <ele>391.7</ele>
        <time>2016-11-13T08:40:34Z</time>
      </trkpt>
      <trkpt lat="43.72126" lon="3.44226">
        <ele>391.4</ele>
        <time>2016-11-13T08:40:35Z</time>
      </trkpt>
      <trkpt lat="43.72119" lon="3.44235">
        <ele>390.9</ele>
        <time>2016-11-13T08:40:36Z</time>
      </trkpt>
      <trkpt lat="43.72112" lon="3.44243">
        <ele>390.3</ele>
        <time>2016-11-13T08:40:37Z</time>
      </trkpt>
      <trkpt lat="43.72106" lon="3.44252">
        <ele>390</ele>
        <time>2016-11-13T08:40:38Z</time>
      </trkpt>
      <trkpt lat="43.72099" lon="3.44262">
        <ele>389.3</ele>
        <time>2016-11-13T08:40:39Z</time>
      </trkpt>
      <trkpt lat="43.72092" lon="3.4427">
        <ele>388.2</ele>
        <time>2016-11-13T08:40:40Z</time>
      </trkpt>
      <trkpt lat="43.72086" lon="3.44276">
        <ele>387.2</ele>
        <time>2016-11-13T08:40:41Z</time>
      </trkpt>
      <trkpt lat="43.72079" lon="3.44284">
        <ele>386.1</ele>
        <time>2016-11-13T08:40:42Z</time>
      </trkpt>
      <trkpt lat="43.72071" lon="3.44291">
        <ele>384.8</ele>
        <time>2016-11-13T08:40:43Z</time>
      </trkpt>
      <trkpt lat="43.72062" lon="3.44298">
        <ele>383.7</ele>
        <time>2016-11-13T08:40:44Z</time>
      </trkpt>
      <trkpt lat="43.72054" lon="3.44301">
        <ele>382.4</ele>
        <time>2016-11-13T08:40:45Z</time>
      </trkpt>
      <trkpt lat="43.72045" lon="3.44304">
        <ele>381.6</ele>
        <time>2016-11-13T08:40:46Z</time>
      </trkpt>
      <trkpt lat="43.72036" lon="3.44306">
        <ele>380.9</ele>
        <time>2016-11-13T08:40:47Z</time>
      </trkpt>
      <trkpt lat="43.72027" lon="3.4431">
        <ele>380.6</ele>
        <time>2016-11-13T08:40:48Z</time>
      </trkpt>
      <trkpt lat="43.72019" lon="3.44317">
        <ele>380.8</ele>
        <time>2016-11-13T08:40:49Z</time>
      </trkpt>
      <trkpt lat="43.72011" lon="3.44323">
        <ele>380.8</ele>
        <time>2016-11-13T08:40:50Z</time>
      </trkpt>
      <trkpt lat="43.72" lon="3.44327">
        <ele>380.2</ele>
        <time>2016-11-13T08:40:51Z</time>
      </trkpt>
      <trkpt lat="43.7199" lon="3.4433">
        <ele>380</ele>
        <time>2016-11-13T08:40:52Z</time>
      </trkpt>
      <trkpt lat="43.7198" lon="3.44328">
        <ele>379.3</ele>
        <time>2016-11-13T08:40:53Z</time>
      </trkpt>
      <trkpt lat="43.7197" lon="3.44324">
        <ele>379</ele>
        <time>2016-11-13T08:40:54Z</time>
      </trkpt>
      <trkpt lat="43.71961" lon="3.4432">
        <ele>378.9</ele>
        <time>2016-11-13T08:40:55Z</time>
      </trkpt>
      <trkpt lat="43.71953" lon="3.44317">
        <ele>378.2</ele>
        <time>2016-11-13T08:40:56Z</time>
      </trkpt>
      <trkpt lat="43.71943" lon="3.44314">
        <ele>378.1</ele>
        <time>2016-11-13T08:40:57Z</time>
      </trkpt>
      <trkpt lat="43.71934" lon="3.44314">
        <ele>377.4</ele>
        <time>2016-11-13T08:40:58Z</time>
      </trkpt>
      <trkpt lat="43.71925" lon="3.44313">
        <ele>376.5</ele>
        <time>2016-11-13T08:40:59Z</time>
      </trkpt>
      <trkpt lat="43.71916" lon="3.44313">
        <ele>375.5</ele>
        <time>2016-11-13T08:41:00Z</time>
      </trkpt>
      <trkpt lat="43.71907" lon="3.44314">
        <ele>374.5</ele>
        <time>2016-11-13T08:41:01Z</time>
      </trkpt>
      <trkpt lat="43.71897" lon="3.44314">
        <ele>373.4</ele>
        <time>2016-11-13T08:41:02Z</time>
      </trkpt>
      <trkpt lat="43.71887" lon="3.44317">
        <ele>372.7</ele>
        <time>2016-11-13T08:41:03Z</time>
      </trkpt>
      <trkpt lat="43.71878" lon="3.44319">
        <ele>372.2</ele>
        <time>2016-11-13T08:41:04Z</time>
      </trkpt>
      <trkpt lat="43.7187" lon="3.44321">
        <ele>371.2</ele>
        <time>2016-11-13T08:41:05Z</time>
      </trkpt>
      <trkpt lat="43.71862" lon="3.44327">
        <ele>370.1</ele>
        <time>2016-11-13T08:41:06Z</time>
      </trkpt>
      <trkpt lat="43.71855" lon="3.44332">
        <ele>368.8</ele>
        <time>2016-11-13T08:41:07Z</time>
      </trkpt>
      <trkpt lat="43.71848" lon="3.44339">
        <ele>367.6</ele>
        <time>2016-11-13T08:41:08Z</time>
      </trkpt>
      <trkpt lat="43.7184" lon="3.44345">
        <ele>366.5</ele>
        <time>2016-11-13T08:41:09Z</time>
      </trkpt>
      <trkpt lat="43.71832" lon="3.44348">
        <ele>366.3</ele>
        <time>2016-11-13T08:41:10Z</time>
      </trkpt>
      <trkpt lat="43.71824" lon="3.44349">
        <ele>366</ele>
        <time>2016-11-13T08:41:11Z</time>
      </trkpt>
      <trkpt lat="43.71816" lon="3.44351">
        <ele>365.6</ele>
        <time>2016-11-13T08:41:12Z</time>
      </trkpt>
      <trkpt lat="43.71808" lon="3.44354">
        <ele>365.1</ele>
        <time>2016-11-13T08:41:13Z</time>
      </trkpt>
      <trkpt lat="43.718" lon="3.44357">
        <ele>364.6</ele>
        <time>2016-11-13T08:41:14Z</time>
      </trkpt>
      <trkpt lat="43.7179" lon="3.44361">
        <ele>363.2</ele>
        <time>2016-11-13T08:41:16Z</time>
      </trkpt>
      <trkpt lat="43.71783" lon="3.44364">
        <ele>362.6</ele>
        <time>2016-11-13T08:41:18Z</time>
      </trkpt>
      <trkpt lat="43.71774" lon="3.44366">
        <ele>362.4</ele>
        <time>2016-11-13T08:41:22Z</time>
      </trkpt>
      <trkpt lat="43.71769" lon="3.44373">
        <ele>361.8</ele>
        <time>2016-11-13T08:41:29Z</time>
      </trkpt>
      <trkpt lat="43.71771" lon="3.44362">
        <ele>361.6</ele>
        <time>2016-11-13T08:41:55Z</time>
      </trkpt>
      <trkpt lat="43.71773" lon="3.4435">
        <ele>361.9</ele>
        <time>2016-11-13T08:41:57Z</time>
      </trkpt>
      <trkpt lat="43.71771" lon="3.44339">
        <ele>360.6</ele>
        <time>2016-11-13T08:41:59Z</time>
      </trkpt>
      <trkpt lat="43.71766" lon="3.44327">
        <ele>358.2</ele>
        <time>2016-11-13T08:42:01Z</time>
      </trkpt>
      <trkpt lat="43.71763" lon="3.44316">
        <ele>356.8</ele>
        <time>2016-11-13T08:42:03Z</time>
      </trkpt>
      <trkpt lat="43.71759" lon="3.44302">
        <ele>354.5</ele>
        <time>2016-11-13T08:42:06Z</time>
      </trkpt>
      <trkpt lat="43.71757" lon="3.44292">
        <ele>353.2</ele>
        <time>2016-11-13T08:42:07Z</time>
      </trkpt>
      <trkpt lat="43.71756" lon="3.44281">
        <ele>351.9</ele>
        <time>2016-11-13T08:42:09Z</time>
      </trkpt>
      <trkpt lat="43.71753" lon="3.44267">
        <ele>349.5</ele>
        <time>2016-11-13T08:42:12Z</time>
      </trkpt>
      <trkpt lat="43.71751" lon="3.44256">
        <ele>348.4</ele>
        <time>2016-11-13T08:42:14Z</time>
      </trkpt>
      <trkpt lat="43.71748" lon="3.44245">
        <ele>347.5</ele>
        <time>2016-11-13T08:42:16Z</time>
      </trkpt>
      <trkpt lat="43.71743" lon="3.44233">
        <ele>346</ele>
        <time>2016-11-13T08:42:18Z</time>
      </trkpt>
      <trkpt lat="43.71734" lon="3.44228">
        <ele>345.6</ele>
        <time>2016-11-13T08:42:21Z</time>
      </trkpt>
      <trkpt lat="43.71731" lon="3.44216">
        <ele>343.1</ele>
        <time>2016-11-13T08:42:25Z</time>
      </trkpt>
      <trkpt lat="43.71731" lon="3.44203">
        <ele>340.1</ele>
        <time>2016-11-13T08:42:28Z</time>
      </trkpt>
      <trkpt lat="43.71729" lon="3.4419">
        <ele>337.1</ele>
        <time>2016-11-13T08:42:30Z</time>
      </trkpt>
      <trkpt lat="43.71726" lon="3.4418">
        <ele>332.5</ele>
        <time>2016-11-13T08:42:32Z</time>
      </trkpt>
      <trkpt lat="43.71724" lon="3.4417">
        <ele>328.1</ele>
        <time>2016-11-13T08:42:34Z</time>
      </trkpt>
      <trkpt lat="43.71723" lon="3.44159">
        <ele>326.3</ele>
        <time>2016-11-13T08:42:36Z</time>
      </trkpt>
      <trkpt lat="43.7172" lon="3.44144">
        <ele>325.9</ele>
        <time>2016-11-13T08:42:39Z</time>
      </trkpt>
      <trkpt lat="43.71717" lon="3.44141">
        <ele>325.2</ele>
        <time>2016-11-13T08:42:46Z</time>
      </trkpt>
      <trkpt lat="43.71721" lon="3.44136">
        <ele>319.9</ele>
        <time>2016-11-13T08:42:30Z</time>
      </trkpt>
      <trkpt lat="43.71721" lon="3.44123">
        <ele>317.2</ele>
        <time>2016-11-13T08:42:32Z</time>
      </trkpt>
      <trkpt lat="43.7172" lon="3.44112">
        <ele>316.8</ele>
        <time>2016-11-13T08:43:41Z</time>
      </trkpt>
      <trkpt lat="43.71721" lon="3.441">
        <ele>313.9</ele>
        <time>2016-11-13T08:43:44Z</time>
      </trkpt>
      <trkpt lat="43.71722" lon="3.4409">
        <ele>312.8</ele>
        <time>2016-11-13T08:43:51Z</time>
      </trkpt>
      <trkpt lat="43.71733" lon="3.44071">
        <ele>309</ele>
        <time>2016-11-13T08:44:34Z</time>
      </trkpt>
      <trkpt lat="43.71738" lon="3.44062">
        <ele>308.6</ele>
        <time>2016-11-13T08:44:37Z</time>
      </trkpt>
      <trkpt lat="43.71739" lon="3.44051">
        <ele>308.2</ele>
        <time>2016-11-13T08:44:39Z</time>
      </trkpt>
      <trkpt lat="43.71739" lon="3.44039">
        <ele>307.4</ele>
        <time>2016-11-13T08:44:42Z</time>
      </trkpt>
      <trkpt lat="43.71735" lon="3.44027">
        <ele>306.6</ele>
        <time>2016-11-13T08:44:45Z</time>
      </trkpt>
      <trkpt lat="43.71734" lon="3.44026">
        <ele>305.3</ele>
        <time>2016-11-13T08:44:52Z</time>
      </trkpt>
      <trkpt lat="43.71745" lon="3.44031">
        <ele>301.3</ele>
        <time>2016-11-13T08:45:11Z</time>
      </trkpt>
      <trkpt lat="43.71747" lon="3.44031">
        <ele>300.7</ele>
        <time>2016-11-13T08:45:18Z</time>
      </trkpt>
      <trkpt lat="43.71746" lon="3.44034">
        <ele>298</ele>
        <time>2016-11-13T08:45:15Z</time>
      </trkpt>
      <trkpt lat="43.71745" lon="3.44029">
        <ele>297.6</ele>
        <time>2016-11-13T08:46:33Z</time>
      </trkpt>
      <trkpt lat="43.71745" lon="3.44025">
        <ele>297.7</ele>
        <time>2016-11-13T08:46:40Z</time>
      </trkpt>
      <trkpt lat="43.71742" lon="3.4403">
        <ele>297.4</ele>
        <time>2016-11-13T08:46:59Z</time>
      </trkpt>
      <trkpt lat="43.71745" lon="3.44033">
        <ele>296.3</ele>
        <time>2016-11-13T08:47:13Z</time>
      </trkpt>
      <trkpt lat="43.71747" lon="3.44027">
        <ele>295.9</ele>
        <time>2016-11-13T08:47:34Z</time>
      </trkpt>
      <trkpt lat="43.71756" lon="3.44026">
        <ele>295.8</ele>
        <time>2016-11-13T08:47:41Z</time>
      </trkpt>
      <trkpt lat="43.71764" lon="3.44032">
        <ele>295.7</ele>
        <time>2016-11-13T08:47:44Z</time>
      </trkpt>
      <trkpt lat="43.71771" lon="3.44032">
        <ele>295.5</ele>
        <time>2016-11-13T08:47:47Z</time>
      </trkpt>
      <trkpt lat="43.71777" lon="3.44024">
        <ele>295.4</ele>
        <time>2016-11-13T08:47:52Z</time>
      </trkpt>
      <trkpt lat="43.71775" lon="3.44015">
        <ele>295.4</ele>
        <time>2016-11-13T08:47:55Z</time>
      </trkpt>
      <trkpt lat="43.71772" lon="3.44003">
        <ele>295.4</ele>
        <time>2016-11-13T08:47:59Z</time>
      </trkpt>
      <trkpt lat="43.71771" lon="3.43992">
        <ele>295.5</ele>
        <time>2016-11-13T08:48:02Z</time>
      </trkpt>
      <trkpt lat="43.71773" lon="3.43979">
        <ele>295.7</ele>
        <time>2016-11-13T08:48:05Z</time>
      </trkpt>
      <trkpt lat="43.71776" lon="3.4397">
        <ele>296.4</ele>
        <time>2016-11-13T08:48:07Z</time>
      </trkpt>
      <trkpt lat="43.71782" lon="3.43962">
        <ele>296.4</ele>
        <time>2016-11-13T08:48:10Z</time>
      </trkpt>
      <trkpt lat="43.71791" lon="3.4396">
        <ele>296.1</ele>
        <time>2016-11-13T08:48:15Z</time>
      </trkpt>
      <trkpt lat="43.71792" lon="3.43955">
        <ele>295.9</ele>
        <time>2016-11-13T08:48:22Z</time>
      </trkpt>
      <trkpt lat="43.71786" lon="3.43948">
        <ele>295.4</ele>
        <time>2016-11-13T08:48:29Z</time>
      </trkpt>
      <trkpt lat="43.71779" lon="3.43942">
        <ele>295.2</ele>
        <time>2016-11-13T08:48:31Z</time>
      </trkpt>
      <trkpt lat="43.71771" lon="3.43938">
        <ele>294.4</ele>
        <time>2016-11-13T08:48:37Z</time>
      </trkpt>
      <trkpt lat="43.71764" lon="3.4393">
        <ele>293.6</ele>
        <time>2016-11-13T08:48:41Z</time>
      </trkpt>
      <trkpt lat="43.7176" lon="3.43921">
        <ele>292</ele>
        <time>2016-11-13T08:48:43Z</time>
      </trkpt>
      <trkpt lat="43.71755" lon="3.43914">
        <ele>291.6</ele>
        <time>2016-11-13T08:48:49Z</time>
      </trkpt>
      <trkpt lat="43.71755" lon="3.43911">
        <ele>290.7</ele>
        <time>2016-11-13T08:49:09Z</time>
      </trkpt>
      <trkpt lat="43.71752" lon="3.43905">
        <ele>290.4</ele>
        <time>2016-11-13T08:49:16Z</time>
      </trkpt>
      <trkpt lat="43.71752" lon="3.43893">
        <ele>290.2</ele>
        <time>2016-11-13T08:49:20Z</time>
      </trkpt>
      <trkpt lat="43.7175" lon="3.43884">
        <ele>290.2</ele>
        <time>2016-11-13T08:49:22Z</time>
      </trkpt>
      <trkpt lat="43.7175" lon="3.43873">
        <ele>290.1</ele>
        <time>2016-11-13T08:49:24Z</time>
      </trkpt>
      <trkpt lat="43.71752" lon="3.43863">
        <ele>289.5</ele>
        <time>2016-11-13T08:49:26Z</time>
      </trkpt>
      <trkpt lat="43.71753" lon="3.43851">
        <ele>288.5</ele>
        <time>2016-11-13T08:49:28Z</time>
      </trkpt>
      <trkpt lat="43.71756" lon="3.43837">
        <ele>286.7</ele>
        <time>2016-11-13T08:49:30Z</time>
      </trkpt>
      <trkpt lat="43.71757" lon="3.43821">
        <ele>284.9</ele>
        <time>2016-11-13T08:49:32Z</time>
      </trkpt>
      <trkpt lat="43.71754" lon="3.43808">
        <ele>283.7</ele>
        <time>2016-11-13T08:49:34Z</time>
      </trkpt>
      <trkpt lat="43.71757" lon="3.43797">
        <ele>283.6</ele>
        <time>2016-11-13T08:49:37Z</time>
      </trkpt>
      <trkpt lat="43.7176" lon="3.43782">
        <ele>283.4</ele>
        <time>2016-11-13T08:49:40Z</time>
      </trkpt>
      <trkpt lat="43.7176" lon="3.43769">
        <ele>281.8</ele>
        <time>2016-11-13T08:49:42Z</time>
      </trkpt>
      <trkpt lat="43.7176" lon="3.43753">
        <ele>280.3</ele>
        <time>2016-11-13T08:49:44Z</time>
      </trkpt>
      <trkpt lat="43.7176" lon="3.43738">
        <ele>278.8</ele>
        <time>2016-11-13T08:49:46Z</time>
      </trkpt>
      <trkpt lat="43.71756" lon="3.43721">
        <ele>277.3</ele>
        <time>2016-11-13T08:49:48Z</time>
      </trkpt>
      <trkpt lat="43.71754" lon="3.43703">
        <ele>275.5</ele>
        <time>2016-11-13T08:49:50Z</time>
      </trkpt>
      <trkpt lat="43.71751" lon="3.43684">
        <ele>272.7</ele>
        <time>2016-11-13T08:49:52Z</time>
      </trkpt>
      <trkpt lat="43.7175" lon="3.43674">
        <ele>271.2</ele>
        <time>2016-11-13T08:49:53Z</time>
      </trkpt>
      <trkpt lat="43.71748" lon="3.43656">
        <ele>268.5</ele>
        <time>2016-11-13T08:49:55Z</time>
      </trkpt>
      <trkpt lat="43.71742" lon="3.43644">
        <ele>267.4</ele>
        <time>2016-11-13T08:52:05Z</time>
      </trkpt>
      <trkpt lat="43.71734" lon="3.43634">
        <ele>267.1</ele>
        <time>2016-11-13T08:52:08Z</time>
      </trkpt>
      <trkpt lat="43.71728" lon="3.43626">
        <ele>266.2</ele>
        <time>2016-11-13T08:52:10Z</time>
      </trkpt>
      <trkpt lat="43.71723" lon="3.43619">
        <ele>265.8</ele>
        <time>2016-11-13T08:52:12Z</time>
      </trkpt>
      <trkpt lat="43.71718" lon="3.4361">
        <ele>265.4</ele>
        <time>2016-11-13T08:52:14Z</time>
      </trkpt>
      <trkpt lat="43.71712" lon="3.436">
        <ele>265</ele>
        <time>2016-11-13T08:52:16Z</time>
      </trkpt>
      <trkpt lat="43.71707" lon="3.43589">
        <ele>265</ele>
        <time>2016-11-13T08:52:18Z</time>
      </trkpt>
      <trkpt lat="43.71703" lon="3.43576">
        <ele>265.9</ele>
        <time>2016-11-13T08:52:20Z</time>
      </trkpt>
      <trkpt lat="43.71698" lon="3.43563">
        <ele>266.8</ele>
        <time>2016-11-13T08:52:22Z</time>
      </trkpt>
      <trkpt lat="43.71694" lon="3.4355">
        <ele>267.4</ele>
        <time>2016-11-13T08:52:24Z</time>
      </trkpt>
      <trkpt lat="43.71691" lon="3.43537">
        <ele>267.7</ele>
        <time>2016-11-13T08:52:26Z</time>
      </trkpt>
      <trkpt lat="43.71687" lon="3.43523">
        <ele>268.3</ele>
        <time>2016-11-13T08:52:28Z</time>
      </trkpt>
      <trkpt lat="43.71688" lon="3.43508">
        <ele>269</ele>
        <time>2016-11-13T08:52:30Z</time>
      </trkpt>
      <trkpt lat="43.71691" lon="3.43489">
        <ele>268.9</ele>
        <time>2016-11-13T08:52:32Z</time>
      </trkpt>
      <trkpt lat="43.71692" lon="3.43479">
        <ele>268.6</ele>
        <time>2016-11-13T08:52:33Z</time>
      </trkpt>
      <trkpt lat="43.71691" lon="3.43469">
        <ele>268.2</ele>
        <time>2016-11-13T08:52:34Z</time>
      </trkpt>
      <trkpt lat="43.71688" lon="3.4346">
        <ele>267.5</ele>
        <time>2016-11-13T08:52:35Z</time>
      </trkpt>
      <trkpt lat="43.71684" lon="3.43451">
        <ele>266.4</ele>
        <time>2016-11-13T08:52:36Z</time>
      </trkpt>
      <trkpt lat="43.71674" lon="3.4344">
        <ele>264.2</ele>
        <time>2016-11-13T08:52:38Z</time>
      </trkpt>
      <trkpt lat="43.71663" lon="3.43431">
        <ele>262.3</ele>
        <time>2016-11-13T08:52:40Z</time>
      </trkpt>
      <trkpt lat="43.7165" lon="3.43421">
        <ele>260.8</ele>
        <time>2016-11-13T08:52:42Z</time>
      </trkpt>
      <trkpt lat="43.71643" lon="3.43415">
        <ele>260.1</ele>
        <time>2016-11-13T08:52:43Z</time>
      </trkpt>
      <trkpt lat="43.71637" lon="3.43409">
        <ele>259.4</ele>
        <time>2016-11-13T08:52:44Z</time>
      </trkpt>
      <trkpt lat="43.71631" lon="3.43402">
        <ele>258.7</ele>
        <time>2016-11-13T08:52:45Z</time>
      </trkpt>
      <trkpt lat="43.71622" lon="3.4339">
        <ele>257.6</ele>
        <time>2016-11-13T08:52:47Z</time>
      </trkpt>
      <trkpt lat="43.71621" lon="3.43374">
        <ele>257</ele>
        <time>2016-11-13T08:52:49Z</time>
      </trkpt>
      <trkpt lat="43.71624" lon="3.4336">
        <ele>256.5</ele>
        <time>2016-11-13T08:52:51Z</time>
      </trkpt>
      <trkpt lat="43.71619" lon="3.43347">
        <ele>255.9</ele>
        <time>2016-11-13T08:52:53Z</time>
      </trkpt>
      <trkpt lat="43.71612" lon="3.43337">
        <ele>255</ele>
        <time>2016-11-13T08:52:55Z</time>
      </trkpt>
      <trkpt lat="43.71603" lon="3.43327">
        <ele>254.2</ele>
        <time>2016-11-13T08:52:57Z</time>
      </trkpt>
      <trkpt lat="43.71593" lon="3.43315">
        <ele>253.6</ele>
        <time>2016-11-13T08:52:59Z</time>
      </trkpt>
      <trkpt lat="43.7159" lon="3.43301">
        <ele>253.4</ele>
        <time>2016-11-13T08:53:01Z</time>
      </trkpt>
      <trkpt lat="43.71594" lon="3.43283">
        <ele>252.6</ele>
        <time>2016-11-13T08:53:03Z</time>
      </trkpt>
      <trkpt lat="43.71595" lon="3.43264">
        <ele>251.9</ele>
        <time>2016-11-13T08:53:05Z</time>
      </trkpt>
      <trkpt lat="43.71596" lon="3.43251">
        <ele>251.2</ele>
        <time>2016-11-13T08:53:06Z</time>
      </trkpt>
      <trkpt lat="43.71599" lon="3.4324">
        <ele>250.4</ele>
        <time>2016-11-13T08:53:07Z</time>
      </trkpt>
      <trkpt lat="43.71603" lon="3.43231">
        <ele>249.5</ele>
        <time>2016-11-13T08:53:08Z</time>
      </trkpt>
      <trkpt lat="43.71607" lon="3.43221">
        <ele>248.8</ele>
        <time>2016-11-13T08:53:09Z</time>
      </trkpt>
      <trkpt lat="43.71612" lon="3.43212">
        <ele>248</ele>
        <time>2016-11-13T08:53:10Z</time>
      </trkpt>
      <trkpt lat="43.71618" lon="3.43204">
        <ele>247.2</ele>
        <time>2016-11-13T08:53:11Z</time>
      </trkpt>
      <trkpt lat="43.71625" lon="3.43197">
        <ele>246.5</ele>
        <time>2016-11-13T08:53:12Z</time>
      </trkpt>
      <trkpt lat="43.71631" lon="3.43191">
        <ele>245.7</ele>
        <time>2016-11-13T08:53:13Z</time>
      </trkpt>
      <trkpt lat="43.71642" lon="3.4318">
        <ele>244.6</ele>
        <time>2016-11-13T08:53:15Z</time>
      </trkpt>
      <trkpt lat="43.71652" lon="3.4317">
        <ele>244</ele>
        <time>2016-11-13T08:53:17Z</time>
      </trkpt>
      <trkpt lat="43.71661" lon="3.43158">
        <ele>243.6</ele>
        <time>2016-11-13T08:53:19Z</time>
      </trkpt>
      <trkpt lat="43.7167" lon="3.43148">
        <ele>242.6</ele>
        <time>2016-11-13T08:53:21Z</time>
      </trkpt>
      <trkpt lat="43.71676" lon="3.43142">
        <ele>242.2</ele>
        <time>2016-11-13T08:53:23Z</time>
      </trkpt>
      <trkpt lat="43.71684" lon="3.43134">
        <ele>242</ele>
        <time>2016-11-13T08:53:26Z</time>
      </trkpt>
      <trkpt lat="43.71691" lon="3.43126">
        <ele>241.8</ele>
        <time>2016-11-13T08:53:29Z</time>
      </trkpt>
      <trkpt lat="43.71697" lon="3.4312">
        <ele>241.6</ele>
        <time>2016-11-13T08:53:32Z</time>
      </trkpt>
      <trkpt lat="43.717" lon="3.43111">
        <ele>241.4</ele>
        <time>2016-11-13T08:53:35Z</time>
      </trkpt>
      <trkpt lat="43.717" lon="3.43101">
        <ele>241.4</ele>
        <time>2016-11-13T08:53:37Z</time>
      </trkpt>
      <trkpt lat="43.71699" lon="3.43091">
        <ele>241.3</ele>
        <time>2016-11-13T08:53:39Z</time>
      </trkpt>
      <trkpt lat="43.71696" lon="3.4308">
        <ele>241.1</ele>
        <time>2016-11-13T08:53:41Z</time>
      </trkpt>
      <trkpt lat="43.71694" lon="3.4307">
        <ele>241.1</ele>
        <time>2016-11-13T08:53:43Z</time>
      </trkpt>
      <trkpt lat="43.71691" lon="3.43058">
        <ele>241.1</ele>
        <time>2016-11-13T08:53:46Z</time>
      </trkpt>
      <trkpt lat="43.71688" lon="3.43047">
        <ele>241.1</ele>
        <time>2016-11-13T08:53:50Z</time>
      </trkpt>
      <trkpt lat="43.71683" lon="3.43035">
        <ele>241.2</ele>
        <time>2016-11-13T08:53:54Z</time>
      </trkpt>
      <trkpt lat="43.7168" lon="3.43026">
        <ele>241.3</ele>
        <time>2016-11-13T08:53:57Z</time>
      </trkpt>
      <trkpt lat="43.71676" lon="3.43016">
        <ele>241.5</ele>
        <time>2016-11-13T08:54:00Z</time>
      </trkpt>
      <trkpt lat="43.71673" lon="3.43005">
        <ele>241.8</ele>
        <time>2016-11-13T08:54:04Z</time>
      </trkpt>
      <trkpt lat="43.7167" lon="3.42993">
        <ele>242.2</ele>
        <time>2016-11-13T08:54:08Z</time>
      </trkpt>
      <trkpt lat="43.71666" lon="3.42984">
        <ele>242.5</ele>
        <time>2016-11-13T08:54:11Z</time>
      </trkpt>
      <trkpt lat="43.71659" lon="3.42977">
        <ele>242.7</ele>
        <time>2016-11-13T08:54:14Z</time>
      </trkpt>
      <trkpt lat="43.71652" lon="3.42972">
        <ele>242.9</ele>
        <time>2016-11-13T08:54:16Z</time>
      </trkpt>
      <trkpt lat="43.71643" lon="3.42967">
        <ele>244.5</ele>
        <time>2016-11-13T08:54:18Z</time>
      </trkpt>
      <trkpt lat="43.71633" lon="3.42961">
        <ele>244.8</ele>
        <time>2016-11-13T08:54:20Z</time>
      </trkpt>
      <trkpt lat="43.71625" lon="3.42958">
        <ele>244.8</ele>
        <time>2016-11-13T08:54:23Z</time>
      </trkpt>
      <trkpt lat="43.71623" lon="3.42948">
        <ele>244.7</ele>
        <time>2016-11-13T08:54:27Z</time>
      </trkpt>
      <trkpt lat="43.71626" lon="3.42938">
        <ele>244.7</ele>
        <time>2016-11-13T08:54:32Z</time>
      </trkpt>
      <trkpt lat="43.71627" lon="3.42926">
        <ele>244.5</ele>
        <time>2016-11-13T08:54:37Z</time>
      </trkpt>
      <trkpt lat="43.71627" lon="3.42912">
        <ele>244.1</ele>
        <time>2016-11-13T08:54:40Z</time>
      </trkpt>
      <trkpt lat="43.71623" lon="3.42901">
        <ele>243.8</ele>
        <time>2016-11-13T08:54:43Z</time>
      </trkpt>
      <trkpt lat="43.71616" lon="3.42893">
        <ele>243.5</ele>
        <time>2016-11-13T08:54:46Z</time>
      </trkpt>
      <trkpt lat="43.71607" lon="3.42886">
        <ele>243.3</ele>
        <time>2016-11-13T08:54:49Z</time>
      </trkpt>
      <trkpt lat="43.71601" lon="3.42879">
        <ele>241.3</ele>
        <time>2016-11-13T08:54:51Z</time>
      </trkpt>
      <trkpt lat="43.71594" lon="3.42871">
        <ele>240.2</ele>
        <time>2016-11-13T08:54:53Z</time>
      </trkpt>
      <trkpt lat="43.71588" lon="3.42861">
        <ele>239.9</ele>
        <time>2016-11-13T08:54:55Z</time>
      </trkpt>
      <trkpt lat="43.71583" lon="3.42853">
        <ele>239.8</ele>
        <time>2016-11-13T08:54:57Z</time>
      </trkpt>
      <trkpt lat="43.71576" lon="3.42845">
        <ele>239.5</ele>
        <time>2016-11-13T08:54:59Z</time>
      </trkpt>
      <trkpt lat="43.7157" lon="3.42838">
        <ele>239.3</ele>
        <time>2016-11-13T08:55:01Z</time>
      </trkpt>
      <trkpt lat="43.71563" lon="3.4283">
        <ele>239.1</ele>
        <time>2016-11-13T08:55:03Z</time>
      </trkpt>
      <trkpt lat="43.7156" lon="3.42821">
        <ele>239.1</ele>
        <time>2016-11-13T08:55:05Z</time>
      </trkpt>
      <trkpt lat="43.71557" lon="3.42811">
        <ele>239.1</ele>
        <time>2016-11-13T08:55:07Z</time>
      </trkpt>
      <trkpt lat="43.71554" lon="3.42799">
        <ele>239.3</ele>
        <time>2016-11-13T08:55:10Z</time>
      </trkpt>
      <trkpt lat="43.71553" lon="3.42789">
        <ele>240.4</ele>
        <time>2016-11-13T08:55:12Z</time>
      </trkpt>
      <trkpt lat="43.7155" lon="3.42775">
        <ele>240.1</ele>
        <time>2016-11-13T08:55:14Z</time>
      </trkpt>
      <trkpt lat="43.71545" lon="3.42765">
        <ele>238.8</ele>
        <time>2016-11-13T08:55:16Z</time>
      </trkpt>
      <trkpt lat="43.71543" lon="3.42751">
        <ele>237</ele>
        <time>2016-11-13T08:55:18Z</time>
      </trkpt>
      <trkpt lat="43.71538" lon="3.42739">
        <ele>235.2</ele>
        <time>2016-11-13T08:55:20Z</time>
      </trkpt>
      <trkpt lat="43.71534" lon="3.42729">
        <ele>233.5</ele>
        <time>2016-11-13T08:55:22Z</time>
      </trkpt>
      <trkpt lat="43.71536" lon="3.42717">
        <ele>232.6</ele>
        <time>2016-11-13T08:55:25Z</time>
      </trkpt>
      <trkpt lat="43.71531" lon="3.42705">
        <ele>231.1</ele>
        <time>2016-11-13T08:55:29Z</time>
      </trkpt>
      <trkpt lat="43.71526" lon="3.42695">
        <ele>229.4</ele>
        <time>2016-11-13T08:55:31Z</time>
      </trkpt>
      <trkpt lat="43.71523" lon="3.42684">
        <ele>227</ele>
        <time>2016-11-13T08:55:33Z</time>
      </trkpt>
      <trkpt lat="43.7152" lon="3.42672">
        <ele>226.2</ele>
        <time>2016-11-13T08:55:35Z</time>
      </trkpt>
      <trkpt lat="43.71518" lon="3.42663">
        <ele>226</ele>
        <time>2016-11-13T08:55:37Z</time>
      </trkpt>
      <trkpt lat="43.71515" lon="3.42652">
        <ele>223.2</ele>
        <time>2016-11-13T08:55:39Z</time>
      </trkpt>
      <trkpt lat="43.71508" lon="3.4264">
        <ele>221.2</ele>
        <time>2016-11-13T08:55:41Z</time>
      </trkpt>
      <trkpt lat="43.71503" lon="3.42633">
        <ele>220.3</ele>
        <time>2016-11-13T08:55:43Z</time>
      </trkpt>
      <trkpt lat="43.71501" lon="3.42631">
        <ele>220.2</ele>
        <time>2016-11-13T08:55:50Z</time>
      </trkpt>
      <trkpt lat="43.71494" lon="3.42624">
        <ele>219.4</ele>
        <time>2016-11-13T08:55:42Z</time>
      </trkpt>
      <trkpt lat="43.71487" lon="3.42613">
        <ele>218.3</ele>
        <time>2016-11-13T08:56:51Z</time>
      </trkpt>
      <trkpt lat="43.71479" lon="3.42606">
        <ele>216.8</ele>
        <time>2016-11-13T08:56:53Z</time>
      </trkpt>
      <trkpt lat="43.7147" lon="3.42599">
        <ele>216.6</ele>
        <time>2016-11-13T08:56:56Z</time>
      </trkpt>
      <trkpt lat="43.71471" lon="3.42586">
        <ele>216.7</ele>
        <time>2016-11-13T08:57:00Z</time>
      </trkpt>
      <trkpt lat="43.71473" lon="3.42574">
        <ele>216.7</ele>
        <time>2016-11-13T08:57:02Z</time>
      </trkpt>
      <trkpt lat="43.71476" lon="3.42561">
        <ele>216.4</ele>
        <time>2016-11-13T08:57:05Z</time>
      </trkpt>
      <trkpt lat="43.71478" lon="3.42549">
        <ele>216.5</ele>
        <time>2016-11-13T08:57:07Z</time>
      </trkpt>
      <trkpt lat="43.7148" lon="3.42537">
        <ele>216.6</ele>
        <time>2016-11-13T08:57:09Z</time>
      </trkpt>
      <trkpt lat="43.71482" lon="3.42526">
        <ele>216.3</ele>
        <time>2016-11-13T08:57:11Z</time>
      </trkpt>
      <trkpt lat="43.71487" lon="3.42516">
        <ele>216.2</ele>
        <time>2016-11-13T08:57:14Z</time>
      </trkpt>
      <trkpt lat="43.71495" lon="3.42517">
        <ele>216.1</ele>
        <time>2016-11-13T08:57:17Z</time>
      </trkpt>
      <trkpt lat="43.71502" lon="3.42519">
        <ele>216.4</ele>
        <time>2016-11-13T08:57:19Z</time>
      </trkpt>
      <trkpt lat="43.71513" lon="3.42523">
        <ele>217</ele>
        <time>2016-11-13T08:57:21Z</time>
      </trkpt>
      <trkpt lat="43.71522" lon="3.42524">
        <ele>218.1</ele>
        <time>2016-11-13T08:57:23Z</time>
      </trkpt>
      <trkpt lat="43.71532" lon="3.42521">
        <ele>218.2</ele>
        <time>2016-11-13T08:57:26Z</time>
      </trkpt>
      <trkpt lat="43.71541" lon="3.4252">
        <ele>219.8</ele>
        <time>2016-11-13T08:57:29Z</time>
      </trkpt>
      <trkpt lat="43.71551" lon="3.42521">
        <ele>222.1</ele>
        <time>2016-11-13T08:57:31Z</time>
      </trkpt>
      <trkpt lat="43.7156" lon="3.42525">
        <ele>223.2</ele>
        <time>2016-11-13T08:57:33Z</time>
      </trkpt>
      <trkpt lat="43.71568" lon="3.42529">
        <ele>222.1</ele>
        <time>2016-11-13T08:57:35Z</time>
      </trkpt>
      <trkpt lat="43.71576" lon="3.42533">
        <ele>221.2</ele>
        <time>2016-11-13T08:57:37Z</time>
      </trkpt>
      <trkpt lat="43.71583" lon="3.42534">
        <ele>221</ele>
        <time>2016-11-13T08:57:39Z</time>
      </trkpt>
      <trkpt lat="43.71592" lon="3.42533">
        <ele>220.7</ele>
        <time>2016-11-13T08:57:42Z</time>
      </trkpt>
      <trkpt lat="43.71601" lon="3.42532">
        <ele>220.5</ele>
        <time>2016-11-13T08:57:45Z</time>
      </trkpt>
      <trkpt lat="43.71609" lon="3.4253">
        <ele>220.2</ele>
        <time>2016-11-13T08:57:48Z</time>
      </trkpt>
      <trkpt lat="43.71616" lon="3.42528">
        <ele>220</ele>
        <time>2016-11-13T08:57:51Z</time>
      </trkpt>
      <trkpt lat="43.71624" lon="3.42526">
        <ele>219.7</ele>
        <time>2016-11-13T08:57:54Z</time>
      </trkpt>
      <trkpt lat="43.71632" lon="3.42525">
        <ele>219.5</ele>
        <time>2016-11-13T08:57:57Z</time>
      </trkpt>
      <trkpt lat="43.71641" lon="3.42524">
        <ele>219.2</ele>
        <time>2016-11-13T08:58:00Z</time>
      </trkpt>
      <trkpt lat="43.7165" lon="3.42524">
        <ele>219</ele>
        <time>2016-11-13T08:58:03Z</time>
      </trkpt>
      <trkpt lat="43.71658" lon="3.42525">
        <ele>218.7</ele>
        <time>2016-11-13T08:58:06Z</time>
      </trkpt>
      <trkpt lat="43.71667" lon="3.42528">
        <ele>218.6</ele>
        <time>2016-11-13T08:58:09Z</time>
      </trkpt>
      <trkpt lat="43.71676" lon="3.42534">
        <ele>218.4</ele>
        <time>2016-11-13T08:58:12Z</time>
      </trkpt>
      <trkpt lat="43.71682" lon="3.42539">
        <ele>218.2</ele>
        <time>2016-11-13T08:58:15Z</time>
      </trkpt>
      <trkpt lat="43.71688" lon="3.42546">
        <ele>218.2</ele>
        <time>2016-11-13T08:58:18Z</time>
      </trkpt>
      <trkpt lat="43.71695" lon="3.42552">
        <ele>218.1</ele>
        <time>2016-11-13T08:58:21Z</time>
      </trkpt>
      <trkpt lat="43.71701" lon="3.42559">
        <ele>218.1</ele>
        <time>2016-11-13T08:58:24Z</time>
      </trkpt>
      <trkpt lat="43.71707" lon="3.42567">
        <ele>218.3</ele>
        <time>2016-11-13T08:58:28Z</time>
      </trkpt>
      <trkpt lat="43.71714" lon="3.42574">
        <ele>218.5</ele>
        <time>2016-11-13T08:58:32Z</time>
      </trkpt>
      <trkpt lat="43.7172" lon="3.4258">
        <ele>218.7</ele>
        <time>2016-11-13T08:58:35Z</time>
      </trkpt>
      <trkpt lat="43.71726" lon="3.42587">
        <ele>218.9</ele>
        <time>2016-11-13T08:58:38Z</time>
      </trkpt>
      <trkpt lat="43.71733" lon="3.42593">
        <ele>219.2</ele>
        <time>2016-11-13T08:58:42Z</time>
      </trkpt>
      <trkpt lat="43.71741" lon="3.42599">
        <ele>219.5</ele>
        <time>2016-11-13T08:58:46Z</time>
      </trkpt>
      <trkpt lat="43.71748" lon="3.42604">
        <ele>219.7</ele>
        <time>2016-11-13T08:58:49Z</time>
      </trkpt>
      <trkpt lat="43.71754" lon="3.42609">
        <ele>219.9</ele>
        <time>2016-11-13T08:58:52Z</time>
      </trkpt>
      <trkpt lat="43.71762" lon="3.42614">
        <ele>220.1</ele>
        <time>2016-11-13T08:58:55Z</time>
      </trkpt>
      <trkpt lat="43.71768" lon="3.42619">
        <ele>220.4</ele>
        <time>2016-11-13T08:58:58Z</time>
      </trkpt>
      <trkpt lat="43.71775" lon="3.42625">
        <ele>220.6</ele>
        <time>2016-11-13T08:59:01Z</time>
      </trkpt>
      <trkpt lat="43.71781" lon="3.4263">
        <ele>220.9</ele>
        <time>2016-11-13T08:59:04Z</time>
      </trkpt>
      <trkpt lat="43.71788" lon="3.42634">
        <ele>221.2</ele>
        <time>2016-11-13T08:59:07Z</time>
      </trkpt>
      <trkpt lat="43.71796" lon="3.42637">
        <ele>221.4</ele>
        <time>2016-11-13T08:59:10Z</time>
      </trkpt>
      <trkpt lat="43.71805" lon="3.42638">
        <ele>221.7</ele>
        <time>2016-11-13T08:59:14Z</time>
      </trkpt>
      <trkpt lat="43.71813" lon="3.4264">
        <ele>222</ele>
        <time>2016-11-13T08:59:18Z</time>
      </trkpt>
      <trkpt lat="43.71821" lon="3.42642">
        <ele>222.4</ele>
        <time>2016-11-13T08:59:22Z</time>
      </trkpt>
      <trkpt lat="43.71829" lon="3.42645">
        <ele>222.9</ele>
        <time>2016-11-13T08:59:26Z</time>
      </trkpt>
      <trkpt lat="43.71837" lon="3.42651">
        <ele>223.5</ele>
        <time>2016-11-13T08:59:30Z</time>
      </trkpt>
      <trkpt lat="43.71845" lon="3.42657">
        <ele>224.1</ele>
        <time>2016-11-13T08:59:34Z</time>
      </trkpt>
      <trkpt lat="43.71852" lon="3.42664">
        <ele>224.7</ele>
        <time>2016-11-13T08:59:38Z</time>
      </trkpt>
      <trkpt lat="43.71859" lon="3.42671">
        <ele>225.2</ele>
        <time>2016-11-13T08:59:42Z</time>
      </trkpt>
      <trkpt lat="43.71866" lon="3.4268">
        <ele>225.7</ele>
        <time>2016-11-13T08:59:46Z</time>
      </trkpt>
      <trkpt lat="43.71873" lon="3.42688">
        <ele>226.3</ele>
        <time>2016-11-13T08:59:50Z</time>
      </trkpt>
      <trkpt lat="43.71881" lon="3.42694">
        <ele>226.9</ele>
        <time>2016-11-13T08:59:54Z</time>
      </trkpt>
      <trkpt lat="43.71889" lon="3.42699">
        <ele>227.4</ele>
        <time>2016-11-13T08:59:58Z</time>
      </trkpt>
      <trkpt lat="43.71896" lon="3.42702">
        <ele>227.8</ele>
        <time>2016-11-13T09:00:01Z</time>
      </trkpt>
      <trkpt lat="43.71906" lon="3.42703">
        <ele>228.4</ele>
        <time>2016-11-13T09:00:05Z</time>
      </trkpt>
      <trkpt lat="43.71913" lon="3.427">
        <ele>229</ele>
        <time>2016-11-13T09:00:09Z</time>
      </trkpt>
      <trkpt lat="43.71921" lon="3.42697">
        <ele>229.7</ele>
        <time>2016-11-13T09:00:13Z</time>
      </trkpt>
      <trkpt lat="43.7193" lon="3.42692">
        <ele>230.2</ele>
        <time>2016-11-13T09:00:17Z</time>
      </trkpt>
      <trkpt lat="43.71938" lon="3.42686">
        <ele>230.7</ele>
        <time>2016-11-13T09:00:21Z</time>
      </trkpt>
      <trkpt lat="43.71947" lon="3.42681">
        <ele>231.2</ele>
        <time>2016-11-13T09:00:25Z</time>
      </trkpt>
      <trkpt lat="43.71955" lon="3.42675">
        <ele>231.7</ele>
        <time>2016-11-13T09:00:29Z</time>
      </trkpt>
      <trkpt lat="43.71961" lon="3.4267">
        <ele>232.2</ele>
        <time>2016-11-13T09:00:32Z</time>
      </trkpt>
      <trkpt lat="43.71968" lon="3.42665">
        <ele>232.6</ele>
        <time>2016-11-13T09:00:35Z</time>
      </trkpt>
      <trkpt lat="43.71974" lon="3.42659">
        <ele>232.9</ele>
        <time>2016-11-13T09:00:38Z</time>
      </trkpt>
      <trkpt lat="43.71982" lon="3.42653">
        <ele>233.5</ele>
        <time>2016-11-13T09:00:42Z</time>
      </trkpt>
      <trkpt lat="43.7199" lon="3.42647">
        <ele>234</ele>
        <time>2016-11-13T09:00:46Z</time>
      </trkpt>
      <trkpt lat="43.71999" lon="3.42643">
        <ele>234.7</ele>
        <time>2016-11-13T09:00:50Z</time>
      </trkpt>
      <trkpt lat="43.72008" lon="3.42642">
        <ele>235.3</ele>
        <time>2016-11-13T09:00:54Z</time>
      </trkpt>
      <trkpt lat="43.72017" lon="3.42641">
        <ele>235.8</ele>
        <time>2016-11-13T09:00:58Z</time>
      </trkpt>
      <trkpt lat="43.72026" lon="3.42641">
        <ele>236.4</ele>
        <time>2016-11-13T09:01:02Z</time>
      </trkpt>
      <trkpt lat="43.72035" lon="3.42641">
        <ele>237</ele>
        <time>2016-11-13T09:01:06Z</time>
      </trkpt>
      <trkpt lat="43.72044" lon="3.42641">
        <ele>237.5</ele>
        <time>2016-11-13T09:01:10Z</time>
      </trkpt>
      <trkpt lat="43.72054" lon="3.42641">
        <ele>238</ele>
        <time>2016-11-13T09:01:14Z</time>
      </trkpt>
      <trkpt lat="43.72061" lon="3.42641">
        <ele>238.4</ele>
        <time>2016-11-13T09:01:17Z</time>
      </trkpt>
      <trkpt lat="43.72068" lon="3.4264">
        <ele>239.1</ele>
        <time>2016-11-13T09:01:21Z</time>
      </trkpt>
      <trkpt lat="43.72077" lon="3.4264">
        <ele>239.7</ele>
        <time>2016-11-13T09:01:25Z</time>
      </trkpt>
      <trkpt lat="43.72086" lon="3.4264">
        <ele>240.4</ele>
        <time>2016-11-13T09:01:29Z</time>
      </trkpt>
      <trkpt lat="43.72095" lon="3.4264">
        <ele>241.1</ele>
        <time>2016-11-13T09:01:33Z</time>
      </trkpt>
      <trkpt lat="43.72104" lon="3.4264">
        <ele>241.7</ele>
        <time>2016-11-13T09:01:37Z</time>
      </trkpt>
      <trkpt lat="43.72113" lon="3.42641">
        <ele>242.3</ele>
        <time>2016-11-13T09:01:41Z</time>
      </trkpt>
      <trkpt lat="43.72122" lon="3.42642">
        <ele>243.1</ele>
        <time>2016-11-13T09:01:45Z</time>
      </trkpt>
      <trkpt lat="43.72132" lon="3.42642">
        <ele>243.7</ele>
        <time>2016-11-13T09:01:49Z</time>
      </trkpt>
      <trkpt lat="43.72141" lon="3.42642">
        <ele>244.3</ele>
        <time>2016-11-13T09:01:53Z</time>
      </trkpt>
      <trkpt lat="43.7215" lon="3.4264">
        <ele>244.9</ele>
        <time>2016-11-13T09:01:57Z</time>
      </trkpt>
      <trkpt lat="43.72159" lon="3.42638">
        <ele>245.6</ele>
        <time>2016-11-13T09:02:01Z</time>
      </trkpt>
      <trkpt lat="43.72169" lon="3.42637">
        <ele>246.3</ele>
        <time>2016-11-13T09:02:05Z</time>
      </trkpt>
      <trkpt lat="43.72178" lon="3.42635">
        <ele>247</ele>
        <time>2016-11-13T09:02:09Z</time>
      </trkpt>
      <trkpt lat="43.72186" lon="3.42633">
        <ele>247.6</ele>
        <time>2016-11-13T09:02:13Z</time>
      </trkpt>
      <trkpt lat="43.72195" lon="3.42632">
        <ele>248.1</ele>
        <time>2016-11-13T09:02:16Z</time>
      </trkpt>
      <trkpt lat="43.72202" lon="3.42632">
        <ele>248.6</ele>
        <time>2016-11-13T09:02:19Z</time>
      </trkpt>
      <trkpt lat="43.7221" lon="3.42632">
        <ele>249.3</ele>
        <time>2016-11-13T09:02:23Z</time>
      </trkpt>
      <trkpt lat="43.72218" lon="3.42632">
        <ele>250</ele>
        <time>2016-11-13T09:02:27Z</time>
      </trkpt>
      <trkpt lat="43.72227" lon="3.42634">
        <ele>250.7</ele>
        <time>2016-11-13T09:02:31Z</time>
      </trkpt>
      <trkpt lat="43.72236" lon="3.42635">
        <ele>251.2</ele>
        <time>2016-11-13T09:02:34Z</time>
      </trkpt>
      <trkpt lat="43.72245" lon="3.42637">
        <ele>252.2</ele>
        <time>2016-11-13T09:02:39Z</time>
      </trkpt>
      <trkpt lat="43.72255" lon="3.42641">
        <ele>253.1</ele>
        <time>2016-11-13T09:02:43Z</time>
      </trkpt>
      <trkpt lat="43.72264" lon="3.42644">
        <ele>254</ele>
        <time>2016-11-13T09:02:47Z</time>
      </trkpt>
      <trkpt lat="43.72271" lon="3.42646">
        <ele>254.5</ele>
        <time>2016-11-13T09:02:50Z</time>
      </trkpt>
      <trkpt lat="43.72279" lon="3.42649">
        <ele>255</ele>
        <time>2016-11-13T09:02:53Z</time>
      </trkpt>
      <trkpt lat="43.72287" lon="3.42651">
        <ele>255.5</ele>
        <time>2016-11-13T09:02:57Z</time>
      </trkpt>
      <trkpt lat="43.72294" lon="3.42654">
        <ele>256</ele>
        <time>2016-11-13T09:03:01Z</time>
      </trkpt>
      <trkpt lat="43.72302" lon="3.42659">
        <ele>256.7</ele>
        <time>2016-11-13T09:03:05Z</time>
      </trkpt>
      <trkpt lat="43.7231" lon="3.42664">
        <ele>257.6</ele>
        <time>2016-11-13T09:03:10Z</time>
      </trkpt>
      <trkpt lat="43.72317" lon="3.42668">
        <ele>258.2</ele>
        <time>2016-11-13T09:03:13Z</time>
      </trkpt>
      <trkpt lat="43.72325" lon="3.42672">
        <ele>258.8</ele>
        <time>2016-11-13T09:03:16Z</time>
      </trkpt>
      <trkpt lat="43.72332" lon="3.42677">
        <ele>259.8</ele>
        <time>2016-11-13T09:03:20Z</time>
      </trkpt>
      <trkpt lat="43.7234" lon="3.42682">
        <ele>260.9</ele>
        <time>2016-11-13T09:03:24Z</time>
      </trkpt>
      <trkpt lat="43.72348" lon="3.42687">
        <ele>261.7</ele>
        <time>2016-11-13T09:03:28Z</time>
      </trkpt>
      <trkpt lat="43.72357" lon="3.42692">
        <ele>262.6</ele>
        <time>2016-11-13T09:03:32Z</time>
      </trkpt>
      <trkpt lat="43.72364" lon="3.42698">
        <ele>263.4</ele>
        <time>2016-11-13T09:03:36Z</time>
      </trkpt>
      <trkpt lat="43.72372" lon="3.42703">
        <ele>264.2</ele>
        <time>2016-11-13T09:03:40Z</time>
      </trkpt>
      <trkpt lat="43.72379" lon="3.42709">
        <ele>265.1</ele>
        <time>2016-11-13T09:03:44Z</time>
      </trkpt>
      <trkpt lat="43.72387" lon="3.42714">
        <ele>266</ele>
        <time>2016-11-13T09:03:48Z</time>
      </trkpt>
      <trkpt lat="43.72394" lon="3.42718">
        <ele>266.8</ele>
        <time>2016-11-13T09:03:52Z</time>
      </trkpt>
      <trkpt lat="43.72401" lon="3.42722">
        <ele>267.4</ele>
        <time>2016-11-13T09:03:55Z</time>
      </trkpt>
      <trkpt lat="43.72409" lon="3.42725">
        <ele>268.2</ele>
        <time>2016-11-13T09:03:59Z</time>
      </trkpt>
      <trkpt lat="43.72418" lon="3.42731">
        <ele>269.2</ele>
        <time>2016-11-13T09:04:04Z</time>
      </trkpt>
      <trkpt lat="43.72426" lon="3.42735">
        <ele>270.1</ele>
        <time>2016-11-13T09:04:09Z</time>
      </trkpt>
      <trkpt lat="43.72433" lon="3.42738">
        <ele>270.9</ele>
        <time>2016-11-13T09:04:13Z</time>
      </trkpt>
      <trkpt lat="43.72441" lon="3.42744">
        <ele>271.5</ele>
        <time>2016-11-13T09:04:16Z</time>
      </trkpt>
      <trkpt lat="43.72448" lon="3.42748">
        <ele>272.3</ele>
        <time>2016-11-13T09:04:20Z</time>
      </trkpt>
      <trkpt lat="43.72455" lon="3.42753">
        <ele>273</ele>
        <time>2016-11-13T09:04:23Z</time>
      </trkpt>
      <trkpt lat="43.72462" lon="3.42759">
        <ele>273.9</ele>
        <time>2016-11-13T09:04:27Z</time>
      </trkpt>
      <trkpt lat="43.72468" lon="3.42765">
        <ele>274.4</ele>
        <time>2016-11-13T09:04:30Z</time>
      </trkpt>
      <trkpt lat="43.72473" lon="3.42775">
        <ele>274.9</ele>
        <time>2016-11-13T09:04:33Z</time>
      </trkpt>
      <trkpt lat="43.72476" lon="3.42787">
        <ele>275.6</ele>
        <time>2016-11-13T09:04:37Z</time>
      </trkpt>
      <trkpt lat="43.72477" lon="3.42799">
        <ele>276.4</ele>
        <time>2016-11-13T09:04:41Z</time>
      </trkpt>
      <trkpt lat="43.72477" lon="3.42811">
        <ele>277.2</ele>
        <time>2016-11-13T09:04:45Z</time>
      </trkpt>
      <trkpt lat="43.72478" lon="3.42823">
        <ele>278.1</ele>
        <time>2016-11-13T09:04:49Z</time>
      </trkpt>
      <trkpt lat="43.72478" lon="3.42834">
        <ele>278.8</ele>
        <time>2016-11-13T09:04:53Z</time>
      </trkpt>
      <trkpt lat="43.72481" lon="3.42845">
        <ele>279.3</ele>
        <time>2016-11-13T09:04:56Z</time>
      </trkpt>
      <trkpt lat="43.72486" lon="3.42854">
        <ele>280</ele>
        <time>2016-11-13T09:05:00Z</time>
      </trkpt>
      <trkpt lat="43.72493" lon="3.42862">
        <ele>280.6</ele>
        <time>2016-11-13T09:05:04Z</time>
      </trkpt>
      <trkpt lat="43.72501" lon="3.42865">
        <ele>280.9</ele>
        <time>2016-11-13T09:05:08Z</time>
      </trkpt>
      <trkpt lat="43.72509" lon="3.42865">
        <ele>281.2</ele>
        <time>2016-11-13T09:05:11Z</time>
      </trkpt>
      <trkpt lat="43.72518" lon="3.42866">
        <ele>281.6</ele>
        <time>2016-11-13T09:05:15Z</time>
      </trkpt>
      <trkpt lat="43.72526" lon="3.42868">
        <ele>281.9</ele>
        <time>2016-11-13T09:05:20Z</time>
      </trkpt>
      <trkpt lat="43.72534" lon="3.4287">
        <ele>282.2</ele>
        <time>2016-11-13T09:05:24Z</time>
      </trkpt>
      <trkpt lat="43.72542" lon="3.42874">
        <ele>282.6</ele>
        <time>2016-11-13T09:05:28Z</time>
      </trkpt>
      <trkpt lat="43.72549" lon="3.42881">
        <ele>283</ele>
        <time>2016-11-13T09:05:32Z</time>
      </trkpt>
      <trkpt lat="43.72556" lon="3.42889">
        <ele>283.5</ele>
        <time>2016-11-13T09:05:36Z</time>
      </trkpt>
      <trkpt lat="43.7256" lon="3.42897">
        <ele>284.1</ele>
        <time>2016-11-13T09:05:40Z</time>
      </trkpt>
      <trkpt lat="43.72564" lon="3.42907">
        <ele>284.7</ele>
        <time>2016-11-13T09:05:44Z</time>
      </trkpt>
      <trkpt lat="43.72564" lon="3.42917">
        <ele>285.2</ele>
        <time>2016-11-13T09:05:48Z</time>
      </trkpt>
      <trkpt lat="43.72564" lon="3.42928">
        <ele>285.6</ele>
        <time>2016-11-13T09:05:52Z</time>
      </trkpt>
      <trkpt lat="43.72563" lon="3.4294">
        <ele>286</ele>
        <time>2016-11-13T09:05:56Z</time>
      </trkpt>
      <trkpt lat="43.72561" lon="3.42951">
        <ele>286.5</ele>
        <time>2016-11-13T09:06:00Z</time>
      </trkpt>
      <trkpt lat="43.7256" lon="3.42961">
        <ele>287.1</ele>
        <time>2016-11-13T09:06:04Z</time>
      </trkpt>
      <trkpt lat="43.72559" lon="3.42971">
        <ele>287.6</ele>
        <time>2016-11-13T09:06:08Z</time>
      </trkpt>
      <trkpt lat="43.72559" lon="3.42983">
        <ele>288.2</ele>
        <time>2016-11-13T09:06:12Z</time>
      </trkpt>
      <trkpt lat="43.7256" lon="3.42994">
        <ele>288.9</ele>
        <time>2016-11-13T09:06:16Z</time>
      </trkpt>
      <trkpt lat="43.72561" lon="3.43004">
        <ele>289.6</ele>
        <time>2016-11-13T09:06:20Z</time>
      </trkpt>
      <trkpt lat="43.72566" lon="3.43014">
        <ele>290.2</ele>
        <time>2016-11-13T09:06:24Z</time>
      </trkpt>
      <trkpt lat="43.72574" lon="3.4302">
        <ele>290.9</ele>
        <time>2016-11-13T09:06:28Z</time>
      </trkpt>
      <trkpt lat="43.72582" lon="3.43024">
        <ele>291.6</ele>
        <time>2016-11-13T09:06:32Z</time>
      </trkpt>
      <trkpt lat="43.72591" lon="3.43027">
        <ele>292.3</ele>
        <time>2016-11-13T09:06:36Z</time>
      </trkpt>
      <trkpt lat="43.726" lon="3.4303">
        <ele>292.9</ele>
        <time>2016-11-13T09:06:40Z</time>
      </trkpt>
      <trkpt lat="43.72609" lon="3.43033">
        <ele>293.4</ele>
        <time>2016-11-13T09:06:44Z</time>
      </trkpt>
      <trkpt lat="43.72618" lon="3.43038">
        <ele>294</ele>
        <time>2016-11-13T09:06:48Z</time>
      </trkpt>
      <trkpt lat="43.72626" lon="3.43042">
        <ele>294.7</ele>
        <time>2016-11-13T09:06:52Z</time>
      </trkpt>
      <trkpt lat="43.72635" lon="3.43046">
        <ele>295.2</ele>
        <time>2016-11-13T09:06:56Z</time>
      </trkpt>
      <trkpt lat="43.72644" lon="3.43051">
        <ele>295.8</ele>
        <time>2016-11-13T09:07:00Z</time>
      </trkpt>
      <trkpt lat="43.7265" lon="3.43056">
        <ele>296.2</ele>
        <time>2016-11-13T09:07:03Z</time>
      </trkpt>
      <trkpt lat="43.72657" lon="3.43061">
        <ele>296.6</ele>
        <time>2016-11-13T09:07:06Z</time>
      </trkpt>
      <trkpt lat="43.72664" lon="3.43066">
        <ele>297</ele>
        <time>2016-11-13T09:07:09Z</time>
      </trkpt>
      <trkpt lat="43.72671" lon="3.4307">
        <ele>297.5</ele>
        <time>2016-11-13T09:07:13Z</time>
      </trkpt>
      <trkpt lat="43.72675" lon="3.43081">
        <ele>298</ele>
        <time>2016-11-13T09:07:17Z</time>
      </trkpt>
      <trkpt lat="43.72675" lon="3.43092">
        <ele>298.4</ele>
        <time>2016-11-13T09:07:20Z</time>
      </trkpt>
      <trkpt lat="43.72672" lon="3.43103">
        <ele>299</ele>
        <time>2016-11-13T09:07:24Z</time>
      </trkpt>
      <trkpt lat="43.72669" lon="3.43113">
        <ele>299.5</ele>
        <time>2016-11-13T09:07:27Z</time>
      </trkpt>
      <trkpt lat="43.72666" lon="3.43124">
        <ele>299.9</ele>
        <time>2016-11-13T09:07:30Z</time>
      </trkpt>
      <trkpt lat="43.72664" lon="3.43133">
        <ele>300.3</ele>
        <time>2016-11-13T09:07:33Z</time>
      </trkpt>
      <trkpt lat="43.72662" lon="3.43145">
        <ele>300.7</ele>
        <time>2016-11-13T09:07:37Z</time>
      </trkpt>
      <trkpt lat="43.72662" lon="3.43156">
        <ele>300.9</ele>
        <time>2016-11-13T09:07:40Z</time>
      </trkpt>
      <trkpt lat="43.72663" lon="3.43168">
        <ele>301.2</ele>
        <time>2016-11-13T09:07:43Z</time>
      </trkpt>
      <trkpt lat="43.72662" lon="3.43181">
        <ele>301.6</ele>
        <time>2016-11-13T09:07:46Z</time>
      </trkpt>
      <trkpt lat="43.7266" lon="3.43192">
        <ele>301.8</ele>
        <time>2016-11-13T09:07:48Z</time>
      </trkpt>
      <trkpt lat="43.72656" lon="3.43204">
        <ele>303.6</ele>
        <time>2016-11-13T09:07:50Z</time>
      </trkpt>
      <trkpt lat="43.72652" lon="3.43215">
        <ele>304.2</ele>
        <time>2016-11-13T09:07:52Z</time>
      </trkpt>
      <trkpt lat="43.72647" lon="3.43227">
        <ele>303.9</ele>
        <time>2016-11-13T09:07:54Z</time>
      </trkpt>
      <trkpt lat="43.72645" lon="3.4324">
        <ele>303.6</ele>
        <time>2016-11-13T09:07:56Z</time>
      </trkpt>
      <trkpt lat="43.72648" lon="3.43251">
        <ele>302.7</ele>
        <time>2016-11-13T09:07:58Z</time>
      </trkpt>
      <trkpt lat="43.72656" lon="3.43252">
        <ele>302.4</ele>
        <time>2016-11-13T09:08:03Z</time>
      </trkpt>
      <trkpt lat="43.72664" lon="3.43252">
        <ele>302.3</ele>
        <time>2016-11-13T09:08:07Z</time>
      </trkpt>
      <trkpt lat="43.72671" lon="3.4325">
        <ele>302.2</ele>
        <time>2016-11-13T09:08:12Z</time>
      </trkpt>
      <trkpt lat="43.72672" lon="3.43246">
        <ele>301.3</ele>
        <time>2016-11-13T09:08:19Z</time>
      </trkpt>
      <trkpt lat="43.72677" lon="3.43252">
        <ele>300.5</ele>
        <time>2016-11-13T09:08:28Z</time>
      </trkpt>
      <trkpt lat="43.72676" lon="3.43269">
        <ele>299</ele>
        <time>2016-11-13T09:08:31Z</time>
      </trkpt>
      <trkpt lat="43.72679" lon="3.4328">
        <ele>298.7</ele>
        <time>2016-11-13T09:08:33Z</time>
      </trkpt>
      <trkpt lat="43.72677" lon="3.43291">
        <ele>295.5</ele>
        <time>2016-11-13T09:08:35Z</time>
      </trkpt>
      <trkpt lat="43.72676" lon="3.43303">
        <ele>295.2</ele>
        <time>2016-11-13T09:08:37Z</time>
      </trkpt>
      <trkpt lat="43.72676" lon="3.4331">
        <ele>294.5</ele>
        <time>2016-11-13T09:08:44Z</time>
      </trkpt>
      <trkpt lat="43.72685" lon="3.43318">
        <ele>294</ele>
        <time>2016-11-13T09:08:48Z</time>
      </trkpt>
      <trkpt lat="43.7269" lon="3.43327">
        <ele>293.4</ele>
        <time>2016-11-13T09:08:52Z</time>
      </trkpt>
      <trkpt lat="43.72697" lon="3.43333">
        <ele>292.9</ele>
        <time>2016-11-13T09:08:58Z</time>
      </trkpt>
      <trkpt lat="43.72701" lon="3.43338">
        <ele>292.3</ele>
        <time>2016-11-13T09:09:05Z</time>
      </trkpt>
      <trkpt lat="43.72709" lon="3.43343">
        <ele>292</ele>
        <time>2016-11-13T09:09:09Z</time>
      </trkpt>
      <trkpt lat="43.72717" lon="3.43351">
        <ele>290.7</ele>
        <time>2016-11-13T09:09:12Z</time>
      </trkpt>
      <trkpt lat="43.72724" lon="3.43356">
        <ele>288.8</ele>
        <time>2016-11-13T09:09:14Z</time>
      </trkpt>
      <trkpt lat="43.72734" lon="3.43364">
        <ele>288.2</ele>
        <time>2016-11-13T09:09:16Z</time>
      </trkpt>
      <trkpt lat="43.72742" lon="3.43371">
        <ele>287.7</ele>
        <time>2016-11-13T09:09:18Z</time>
      </trkpt>
      <trkpt lat="43.72749" lon="3.43376">
        <ele>287.7</ele>
        <time>2016-11-13T09:09:19Z</time>
      </trkpt>
      <trkpt lat="43.72759" lon="3.43385">
        <ele>287.2</ele>
        <time>2016-11-13T09:09:21Z</time>
      </trkpt>
      <trkpt lat="43.72769" lon="3.43393">
        <ele>286</ele>
        <time>2016-11-13T09:09:23Z</time>
      </trkpt>
      <trkpt lat="43.72781" lon="3.43401">
        <ele>285.2</ele>
        <time>2016-11-13T09:09:25Z</time>
      </trkpt>
      <trkpt lat="43.72794" lon="3.43409">
        <ele>284</ele>
        <time>2016-11-13T09:09:27Z</time>
      </trkpt>
      <trkpt lat="43.72801" lon="3.43412">
        <ele>283.6</ele>
        <time>2016-11-13T09:09:28Z</time>
      </trkpt>
      <trkpt lat="43.72808" lon="3.43416">
        <ele>283.1</ele>
        <time>2016-11-13T09:09:29Z</time>
      </trkpt>
      <trkpt lat="43.72816" lon="3.43419">
        <ele>282.4</ele>
        <time>2016-11-13T09:09:30Z</time>
      </trkpt>
      <trkpt lat="43.72823" lon="3.43423">
        <ele>281.4</ele>
        <time>2016-11-13T09:09:31Z</time>
      </trkpt>
      <trkpt lat="43.7283" lon="3.43426">
        <ele>280.3</ele>
        <time>2016-11-13T09:09:32Z</time>
      </trkpt>
      <trkpt lat="43.72839" lon="3.43435">
        <ele>278.7</ele>
        <time>2016-11-13T09:09:34Z</time>
      </trkpt>
      <trkpt lat="43.72841" lon="3.43447">
        <ele>278.6</ele>
        <time>2016-11-13T09:09:36Z</time>
      </trkpt>
      <trkpt lat="43.72833" lon="3.43452">
        <ele>277.8</ele>
        <time>2016-11-13T09:09:40Z</time>
      </trkpt>
      <trkpt lat="43.72826" lon="3.43449">
        <ele>278.1</ele>
        <time>2016-11-13T09:09:43Z</time>
      </trkpt>
      <trkpt lat="43.72818" lon="3.43451">
        <ele>278.3</ele>
        <time>2016-11-13T09:09:46Z</time>
      </trkpt>
      <trkpt lat="43.72808" lon="3.43454">
        <ele>278.4</ele>
        <time>2016-11-13T09:09:49Z</time>
      </trkpt>
      <trkpt lat="43.728" lon="3.43463">
        <ele>278.3</ele>
        <time>2016-11-13T09:09:52Z</time>
      </trkpt>
      <trkpt lat="43.728" lon="3.43475">
        <ele>278.3</ele>
        <time>2016-11-13T09:09:55Z</time>
      </trkpt>
      <trkpt lat="43.72808" lon="3.4348">
        <ele>278.4</ele>
        <time>2016-11-13T09:09:59Z</time>
      </trkpt>
      <trkpt lat="43.72816" lon="3.43476">
        <ele>278.7</ele>
        <time>2016-11-13T09:10:04Z</time>
      </trkpt>
      <trkpt lat="43.72824" lon="3.43475">
        <ele>278.8</ele>
        <time>2016-11-13T09:10:08Z</time>
      </trkpt>
      <trkpt lat="43.72833" lon="3.43473">
        <ele>279</ele>
        <time>2016-11-13T09:10:12Z</time>
      </trkpt>
      <trkpt lat="43.72841" lon="3.43472">
        <ele>279.1</ele>
        <time>2016-11-13T09:10:15Z</time>
      </trkpt>
      <trkpt lat="43.7285" lon="3.43469">
        <ele>279</ele>
        <time>2016-11-13T09:10:20Z</time>
      </trkpt>
      <trkpt lat="43.72857" lon="3.43466">
        <ele>279</ele>
        <time>2016-11-13T09:10:23Z</time>
      </trkpt>
      <trkpt lat="43.72866" lon="3.43466">
        <ele>279</ele>
        <time>2016-11-13T09:10:27Z</time>
      </trkpt>
      <trkpt lat="43.72874" lon="3.4347">
        <ele>279</ele>
        <time>2016-11-13T09:10:31Z</time>
      </trkpt>
      <trkpt lat="43.72882" lon="3.43472">
        <ele>279.1</ele>
        <time>2016-11-13T09:10:35Z</time>
      </trkpt>
      <trkpt lat="43.7289" lon="3.43471">
        <ele>279.1</ele>
        <time>2016-11-13T09:10:39Z</time>
      </trkpt>
      <trkpt lat="43.72899" lon="3.43471">
        <ele>279.2</ele>
        <time>2016-11-13T09:10:43Z</time>
      </trkpt>
      <trkpt lat="43.72908" lon="3.4347">
        <ele>279.3</ele>
        <time>2016-11-13T09:10:47Z</time>
      </trkpt>
      <trkpt lat="43.72915" lon="3.43471">
        <ele>279.4</ele>
        <time>2016-11-13T09:10:51Z</time>
      </trkpt>
      <trkpt lat="43.72923" lon="3.43474">
        <ele>279.7</ele>
        <time>2016-11-13T09:10:54Z</time>
      </trkpt>
      <trkpt lat="43.7293" lon="3.43478">
        <ele>280.1</ele>
        <time>2016-11-13T09:10:57Z</time>
      </trkpt>
      <trkpt lat="43.72937" lon="3.43481">
        <ele>280.4</ele>
        <time>2016-11-13T09:11:01Z</time>
      </trkpt>
      <trkpt lat="43.72945" lon="3.43485">
        <ele>280.8</ele>
        <time>2016-11-13T09:11:05Z</time>
      </trkpt>
      <trkpt lat="43.72953" lon="3.43488">
        <ele>281.2</ele>
        <time>2016-11-13T09:11:10Z</time>
      </trkpt>
      <trkpt lat="43.72962" lon="3.4349">
        <ele>281.6</ele>
        <time>2016-11-13T09:11:14Z</time>
      </trkpt>
      <trkpt lat="43.72969" lon="3.4349">
        <ele>281.9</ele>
        <time>2016-11-13T09:11:18Z</time>
      </trkpt>
      <trkpt lat="43.72976" lon="3.43492">
        <ele>282.3</ele>
        <time>2016-11-13T09:11:21Z</time>
      </trkpt>
      <trkpt lat="43.72985" lon="3.43494">
        <ele>282.8</ele>
        <time>2016-11-13T09:11:26Z</time>
      </trkpt>
      <trkpt lat="43.72994" lon="3.43494">
        <ele>283.4</ele>
        <time>2016-11-13T09:11:33Z</time>
      </trkpt>
      <trkpt lat="43.73001" lon="3.43497">
        <ele>283.9</ele>
        <time>2016-11-13T09:11:35Z</time>
      </trkpt>
      <trkpt lat="43.72996" lon="3.43505">
        <ele>284.9</ele>
        <time>2016-11-13T09:11:42Z</time>
      </trkpt>
      <trkpt lat="43.72988" lon="3.43506">
        <ele>285.7</ele>
        <time>2016-11-13T09:11:47Z</time>
      </trkpt>
      <trkpt lat="43.7298" lon="3.43507">
        <ele>286.2</ele>
        <time>2016-11-13T09:11:51Z</time>
      </trkpt>
      <trkpt lat="43.72971" lon="3.4351">
        <ele>286.7</ele>
        <time>2016-11-13T09:11:55Z</time>
      </trkpt>
      <trkpt lat="43.72962" lon="3.43512">
        <ele>287.3</ele>
        <time>2016-11-13T09:11:59Z</time>
      </trkpt>
      <trkpt lat="43.72954" lon="3.43514">
        <ele>287.8</ele>
        <time>2016-11-13T09:12:02Z</time>
      </trkpt>
      <trkpt lat="43.72946" lon="3.43517">
        <ele>288.4</ele>
        <time>2016-11-13T09:12:06Z</time>
      </trkpt>
      <trkpt lat="43.72937" lon="3.43521">
        <ele>289.1</ele>
        <time>2016-11-13T09:12:10Z</time>
      </trkpt>
      <trkpt lat="43.72929" lon="3.43525">
        <ele>289.5</ele>
        <time>2016-11-13T09:12:13Z</time>
      </trkpt>
      <trkpt lat="43.72922" lon="3.4353">
        <ele>290.2</ele>
        <time>2016-11-13T09:12:17Z</time>
      </trkpt>
      <trkpt lat="43.72915" lon="3.43533">
        <ele>290.8</ele>
        <time>2016-11-13T09:12:21Z</time>
      </trkpt>
      <trkpt lat="43.72907" lon="3.43537">
        <ele>291.6</ele>
        <time>2016-11-13T09:12:25Z</time>
      </trkpt>
      <trkpt lat="43.729" lon="3.43541">
        <ele>292.3</ele>
        <time>2016-11-13T09:12:29Z</time>
      </trkpt>
      <trkpt lat="43.72892" lon="3.43546">
        <ele>293.1</ele>
        <time>2016-11-13T09:12:34Z</time>
      </trkpt>
      <trkpt lat="43.72885" lon="3.43551">
        <ele>293.8</ele>
        <time>2016-11-13T09:12:38Z</time>
      </trkpt>
      <trkpt lat="43.72877" lon="3.43555">
        <ele>294.4</ele>
        <time>2016-11-13T09:12:42Z</time>
      </trkpt>
      <trkpt lat="43.72869" lon="3.43558">
        <ele>295</ele>
        <time>2016-11-13T09:12:46Z</time>
      </trkpt>
      <trkpt lat="43.72862" lon="3.43561">
        <ele>295.7</ele>
        <time>2016-11-13T09:12:50Z</time>
      </trkpt>
      <trkpt lat="43.72853" lon="3.43566">
        <ele>296.5</ele>
        <time>2016-11-13T09:12:54Z</time>
      </trkpt>
      <trkpt lat="43.72846" lon="3.43569">
        <ele>297.3</ele>
        <time>2016-11-13T09:12:58Z</time>
      </trkpt>
      <trkpt lat="43.72838" lon="3.43571">
        <ele>298</ele>
        <time>2016-11-13T09:13:03Z</time>
      </trkpt>
      <trkpt lat="43.7283" lon="3.43575">
        <ele>298.7</ele>
        <time>2016-11-13T09:13:08Z</time>
      </trkpt>
      <trkpt lat="43.72822" lon="3.43579">
        <ele>299.3</ele>
        <time>2016-11-13T09:13:12Z</time>
      </trkpt>
      <trkpt lat="43.72815" lon="3.43581">
        <ele>299.9</ele>
        <time>2016-11-13T09:13:16Z</time>
      </trkpt>
      <trkpt lat="43.72806" lon="3.43586">
        <ele>300.7</ele>
        <time>2016-11-13T09:13:21Z</time>
      </trkpt>
      <trkpt lat="43.728" lon="3.43592">
        <ele>301.2</ele>
        <time>2016-11-13T09:13:25Z</time>
      </trkpt>
      <trkpt lat="43.72794" lon="3.43599">
        <ele>301.8</ele>
        <time>2016-11-13T09:13:29Z</time>
      </trkpt>
      <trkpt lat="43.72789" lon="3.43607">
        <ele>302.5</ele>
        <time>2016-11-13T09:13:33Z</time>
      </trkpt>
      <trkpt lat="43.72784" lon="3.43616">
        <ele>303.3</ele>
        <time>2016-11-13T09:13:37Z</time>
      </trkpt>
      <trkpt lat="43.72779" lon="3.43625">
        <ele>304</ele>
        <time>2016-11-13T09:13:41Z</time>
      </trkpt>
      <trkpt lat="43.72773" lon="3.43633">
        <ele>304.7</ele>
        <time>2016-11-13T09:13:45Z</time>
      </trkpt>
      <trkpt lat="43.72766" lon="3.4364">
        <ele>305.3</ele>
        <time>2016-11-13T09:13:49Z</time>
      </trkpt>
      <trkpt lat="43.72759" lon="3.43648">
        <ele>306.1</ele>
        <time>2016-11-13T09:13:54Z</time>
      </trkpt>
      <trkpt lat="43.72753" lon="3.43655">
        <ele>307</ele>
        <time>2016-11-13T09:13:59Z</time>
      </trkpt>
      <trkpt lat="43.72747" lon="3.43664">
        <ele>307.8</ele>
        <time>2016-11-13T09:14:03Z</time>
      </trkpt>
      <trkpt lat="43.72743" lon="3.43672">
        <ele>308.6</ele>
        <time>2016-11-13T09:14:07Z</time>
      </trkpt>
      <trkpt lat="43.72739" lon="3.43684">
        <ele>309.1</ele>
        <time>2016-11-13T09:14:11Z</time>
      </trkpt>
      <trkpt lat="43.72736" lon="3.43696">
        <ele>309.6</ele>
        <time>2016-11-13T09:14:15Z</time>
      </trkpt>
      <trkpt lat="43.72734" lon="3.43706">
        <ele>310.2</ele>
        <time>2016-11-13T09:14:19Z</time>
      </trkpt>
      <trkpt lat="43.72733" lon="3.43718">
        <ele>310.7</ele>
        <time>2016-11-13T09:14:23Z</time>
      </trkpt>
      <trkpt lat="43.72731" lon="3.43731">
        <ele>311.2</ele>
        <time>2016-11-13T09:14:28Z</time>
      </trkpt>
      <trkpt lat="43.72728" lon="3.43742">
        <ele>311.6</ele>
        <time>2016-11-13T09:14:32Z</time>
      </trkpt>
      <trkpt lat="43.72724" lon="3.43753">
        <ele>312.4</ele>
        <time>2016-11-13T09:14:37Z</time>
      </trkpt>
      <trkpt lat="43.72721" lon="3.43762">
        <ele>313.1</ele>
        <time>2016-11-13T09:14:41Z</time>
      </trkpt>
      <trkpt lat="43.72717" lon="3.43773">
        <ele>313.9</ele>
        <time>2016-11-13T09:14:45Z</time>
      </trkpt>
      <trkpt lat="43.72716" lon="3.43785">
        <ele>314.6</ele>
        <time>2016-11-13T09:14:49Z</time>
      </trkpt>
      <trkpt lat="43.72716" lon="3.43797">
        <ele>315.2</ele>
        <time>2016-11-13T09:14:53Z</time>
      </trkpt>
      <trkpt lat="43.72716" lon="3.43809">
        <ele>315.8</ele>
        <time>2016-11-13T09:14:57Z</time>
      </trkpt>
      <trkpt lat="43.72715" lon="3.43819">
        <ele>316.4</ele>
        <time>2016-11-13T09:15:01Z</time>
      </trkpt>
      <trkpt lat="43.72714" lon="3.4383">
        <ele>317</ele>
        <time>2016-11-13T09:15:05Z</time>
      </trkpt>
      <trkpt lat="43.72713" lon="3.43841">
        <ele>317.8</ele>
        <time>2016-11-13T09:15:09Z</time>
      </trkpt>
      <trkpt lat="43.72713" lon="3.43851">
        <ele>318.4</ele>
        <time>2016-11-13T09:15:13Z</time>
      </trkpt>
      <trkpt lat="43.72713" lon="3.43862">
        <ele>319</ele>
        <time>2016-11-13T09:15:17Z</time>
      </trkpt>
      <trkpt lat="43.72714" lon="3.43872">
        <ele>319.6</ele>
        <time>2016-11-13T09:15:21Z</time>
      </trkpt>
      <trkpt lat="43.72714" lon="3.43883">
        <ele>320.3</ele>
        <time>2016-11-13T09:15:25Z</time>
      </trkpt>
      <trkpt lat="43.72714" lon="3.43894">
        <ele>321.1</ele>
        <time>2016-11-13T09:15:29Z</time>
      </trkpt>
      <trkpt lat="43.72713" lon="3.43905">
        <ele>321.8</ele>
        <time>2016-11-13T09:15:33Z</time>
      </trkpt>
      <trkpt lat="43.72713" lon="3.43916">
        <ele>322.5</ele>
        <time>2016-11-13T09:15:37Z</time>
      </trkpt>
      <trkpt lat="43.72713" lon="3.43927">
        <ele>323.3</ele>
        <time>2016-11-13T09:15:41Z</time>
      </trkpt>
      <trkpt lat="43.72719" lon="3.4392">
        <ele>324.6</ele>
        <time>2016-11-13T09:15:48Z</time>
      </trkpt>
      <trkpt lat="43.72724" lon="3.4391">
        <ele>325.3</ele>
        <time>2016-11-13T09:15:51Z</time>
      </trkpt>
      <trkpt lat="43.72729" lon="3.43901">
        <ele>325.9</ele>
        <time>2016-11-13T09:15:54Z</time>
      </trkpt>
      <trkpt lat="43.72735" lon="3.43893">
        <ele>326.7</ele>
        <time>2016-11-13T09:15:58Z</time>
      </trkpt>
      <trkpt lat="43.72739" lon="3.43883">
        <ele>327.6</ele>
        <time>2016-11-13T09:16:02Z</time>
      </trkpt>
      <trkpt lat="43.72744" lon="3.43874">
        <ele>328.5</ele>
        <time>2016-11-13T09:16:06Z</time>
      </trkpt>
      <trkpt lat="43.72749" lon="3.43866">
        <ele>329.4</ele>
        <time>2016-11-13T09:16:11Z</time>
      </trkpt>
      <trkpt lat="43.72757" lon="3.43858">
        <ele>330.4</ele>
        <time>2016-11-13T09:16:16Z</time>
      </trkpt>
      <trkpt lat="43.72765" lon="3.43852">
        <ele>331.3</ele>
        <time>2016-11-13T09:16:20Z</time>
      </trkpt>
      <trkpt lat="43.72772" lon="3.43847">
        <ele>332.7</ele>
        <time>2016-11-13T09:16:25Z</time>
      </trkpt>
      <trkpt lat="43.7278" lon="3.43841">
        <ele>333.7</ele>
        <time>2016-11-13T09:16:29Z</time>
      </trkpt>
      <trkpt lat="43.72787" lon="3.43834">
        <ele>334.4</ele>
        <time>2016-11-13T09:16:33Z</time>
      </trkpt>
      <trkpt lat="43.72794" lon="3.4383">
        <ele>334.9</ele>
        <time>2016-11-13T09:16:37Z</time>
      </trkpt>
      <trkpt lat="43.72801" lon="3.43825">
        <ele>335.4</ele>
        <time>2016-11-13T09:16:41Z</time>
      </trkpt>
      <trkpt lat="43.72807" lon="3.43817">
        <ele>335.8</ele>
        <time>2016-11-13T09:16:46Z</time>
      </trkpt>
      <trkpt lat="43.72813" lon="3.43812">
        <ele>336</ele>
        <time>2016-11-13T09:16:50Z</time>
      </trkpt>
      <trkpt lat="43.7282" lon="3.43807">
        <ele>336.4</ele>
        <time>2016-11-13T09:16:54Z</time>
      </trkpt>
      <trkpt lat="43.72828" lon="3.43802">
        <ele>337</ele>
        <time>2016-11-13T09:16:59Z</time>
      </trkpt>
      <trkpt lat="43.72835" lon="3.43798">
        <ele>337.5</ele>
        <time>2016-11-13T09:17:03Z</time>
      </trkpt>
      <trkpt lat="43.72842" lon="3.43793">
        <ele>337.9</ele>
        <time>2016-11-13T09:17:07Z</time>
      </trkpt>
      <trkpt lat="43.72849" lon="3.43788">
        <ele>338.1</ele>
        <time>2016-11-13T09:17:11Z</time>
      </trkpt>
      <trkpt lat="43.72855" lon="3.43784">
        <ele>338.3</ele>
        <time>2016-11-13T09:17:15Z</time>
      </trkpt>
      <trkpt lat="43.72863" lon="3.43779">
        <ele>338.4</ele>
        <time>2016-11-13T09:17:19Z</time>
      </trkpt>
      <trkpt lat="43.72871" lon="3.43776">
        <ele>338.8</ele>
        <time>2016-11-13T09:17:24Z</time>
      </trkpt>
      <trkpt lat="43.72879" lon="3.43774">
        <ele>339.1</ele>
        <time>2016-11-13T09:17:28Z</time>
      </trkpt>
      <trkpt lat="43.72887" lon="3.43771">
        <ele>339.4</ele>
        <time>2016-11-13T09:17:32Z</time>
      </trkpt>
      <trkpt lat="43.72895" lon="3.43769">
        <ele>339.8</ele>
        <time>2016-11-13T09:17:36Z</time>
      </trkpt>
      <trkpt lat="43.72903" lon="3.43767">
        <ele>340.4</ele>
        <time>2016-11-13T09:17:41Z</time>
      </trkpt>
      <trkpt lat="43.72912" lon="3.43764">
        <ele>340.8</ele>
        <time>2016-11-13T09:17:45Z</time>
      </trkpt>
      <trkpt lat="43.72919" lon="3.43761">
        <ele>341.1</ele>
        <time>2016-11-13T09:17:49Z</time>
      </trkpt>
      <trkpt lat="43.72927" lon="3.43758">
        <ele>341.3</ele>
        <time>2016-11-13T09:17:53Z</time>
      </trkpt>
      <trkpt lat="43.72934" lon="3.43757">
        <ele>341.4</ele>
        <time>2016-11-13T09:17:57Z</time>
      </trkpt>
      <trkpt lat="43.72941" lon="3.43756">
        <ele>341.7</ele>
        <time>2016-11-13T09:18:01Z</time>
      </trkpt>
      <trkpt lat="43.72948" lon="3.43754">
        <ele>341.9</ele>
        <time>2016-11-13T09:18:05Z</time>
      </trkpt>
      <trkpt lat="43.72957" lon="3.43754">
        <ele>342.4</ele>
        <time>2016-11-13T09:18:09Z</time>
      </trkpt>
      <trkpt lat="43.72964" lon="3.43754">
        <ele>342.9</ele>
        <time>2016-11-13T09:18:13Z</time>
      </trkpt>
      <trkpt lat="43.72973" lon="3.43753">
        <ele>343.2</ele>
        <time>2016-11-13T09:18:17Z</time>
      </trkpt>
      <trkpt lat="43.72982" lon="3.43753">
        <ele>343.5</ele>
        <time>2016-11-13T09:18:22Z</time>
      </trkpt>
      <trkpt lat="43.72989" lon="3.43753">
        <ele>343.7</ele>
        <time>2016-11-13T09:18:26Z</time>
      </trkpt>
      <trkpt lat="43.72997" lon="3.43755">
        <ele>344.1</ele>
        <time>2016-11-13T09:18:30Z</time>
      </trkpt>
      <trkpt lat="43.73004" lon="3.43756">
        <ele>344.8</ele>
        <time>2016-11-13T09:18:34Z</time>
      </trkpt>
      <trkpt lat="43.73011" lon="3.43757">
        <ele>345.6</ele>
        <time>2016-11-13T09:18:38Z</time>
      </trkpt>
      <trkpt lat="43.7302" lon="3.43758">
        <ele>346.3</ele>
        <time>2016-11-13T09:18:42Z</time>
      </trkpt>
      <trkpt lat="43.73029" lon="3.43761">
        <ele>347.2</ele>
        <time>2016-11-13T09:18:45Z</time>
      </trkpt>
      <trkpt lat="43.73038" lon="3.43764">
        <ele>348.4</ele>
        <time>2016-11-13T09:18:49Z</time>
      </trkpt>
      <trkpt lat="43.73046" lon="3.43767">
        <ele>349.7</ele>
        <time>2016-11-13T09:18:53Z</time>
      </trkpt>
      <trkpt lat="43.73053" lon="3.43769">
        <ele>351</ele>
        <time>2016-11-13T09:18:57Z</time>
      </trkpt>
      <trkpt lat="43.73061" lon="3.43771">
        <ele>352.3</ele>
        <time>2016-11-13T09:19:01Z</time>
      </trkpt>
      <trkpt lat="43.7307" lon="3.43773">
        <ele>354.1</ele>
        <time>2016-11-13T09:19:06Z</time>
      </trkpt>
      <trkpt lat="43.73078" lon="3.43774">
        <ele>355.2</ele>
        <time>2016-11-13T09:19:10Z</time>
      </trkpt>
      <trkpt lat="43.73086" lon="3.43775">
        <ele>355.9</ele>
        <time>2016-11-13T09:19:13Z</time>
      </trkpt>
      <trkpt lat="43.73094" lon="3.43777">
        <ele>357.3</ele>
        <time>2016-11-13T09:19:18Z</time>
      </trkpt>
      <trkpt lat="43.73101" lon="3.4378">
        <ele>358.2</ele>
        <time>2016-11-13T09:19:21Z</time>
      </trkpt>
      <trkpt lat="43.7311" lon="3.43782">
        <ele>359.6</ele>
        <time>2016-11-13T09:19:25Z</time>
      </trkpt>
      <trkpt lat="43.73117" lon="3.43783">
        <ele>360.9</ele>
        <time>2016-11-13T09:19:29Z</time>
      </trkpt>
      <trkpt lat="43.73125" lon="3.43785">
        <ele>362.8</ele>
        <time>2016-11-13T09:19:35Z</time>
      </trkpt>
      <trkpt lat="43.73133" lon="3.43786">
        <ele>364.2</ele>
        <time>2016-11-13T09:19:39Z</time>
      </trkpt>
      <trkpt lat="43.73141" lon="3.43788">
        <ele>365.4</ele>
        <time>2016-11-13T09:19:43Z</time>
      </trkpt>
      <trkpt lat="43.73148" lon="3.43793">
        <ele>366.6</ele>
        <time>2016-11-13T09:19:47Z</time>
      </trkpt>
      <trkpt lat="43.73156" lon="3.43798">
        <ele>367.7</ele>
        <time>2016-11-13T09:19:51Z</time>
      </trkpt>
      <trkpt lat="43.73163" lon="3.43804">
        <ele>368.7</ele>
        <time>2016-11-13T09:19:55Z</time>
      </trkpt>
      <trkpt lat="43.7317" lon="3.4381">
        <ele>369.6</ele>
        <time>2016-11-13T09:19:59Z</time>
      </trkpt>
      <trkpt lat="43.73177" lon="3.43815">
        <ele>370.6</ele>
        <time>2016-11-13T09:20:03Z</time>
      </trkpt>
      <trkpt lat="43.73185" lon="3.4382">
        <ele>371.3</ele>
        <time>2016-11-13T09:20:07Z</time>
      </trkpt>
      <trkpt lat="43.73192" lon="3.43825">
        <ele>371.9</ele>
        <time>2016-11-13T09:20:11Z</time>
      </trkpt>
      <trkpt lat="43.73198" lon="3.43831">
        <ele>372.7</ele>
        <time>2016-11-13T09:20:15Z</time>
      </trkpt>
      <trkpt lat="43.73205" lon="3.43838">
        <ele>373.6</ele>
        <time>2016-11-13T09:20:19Z</time>
      </trkpt>
      <trkpt lat="43.73211" lon="3.43844">
        <ele>374.6</ele>
        <time>2016-11-13T09:20:23Z</time>
      </trkpt>
      <trkpt lat="43.73218" lon="3.43852">
        <ele>375.2</ele>
        <time>2016-11-13T09:20:27Z</time>
      </trkpt>
      <trkpt lat="43.73222" lon="3.4386">
        <ele>376</ele>
        <time>2016-11-13T09:20:31Z</time>
      </trkpt>
      <trkpt lat="43.73226" lon="3.4387">
        <ele>376.7</ele>
        <time>2016-11-13T09:20:36Z</time>
      </trkpt>
      <trkpt lat="43.73231" lon="3.43881">
        <ele>377.5</ele>
        <time>2016-11-13T09:20:41Z</time>
      </trkpt>
      <trkpt lat="43.73236" lon="3.43891">
        <ele>378</ele>
        <time>2016-11-13T09:20:46Z</time>
      </trkpt>
      <trkpt lat="43.73242" lon="3.43901">
        <ele>378.5</ele>
        <time>2016-11-13T09:20:50Z</time>
      </trkpt>
      <trkpt lat="43.73249" lon="3.43908">
        <ele>379.1</ele>
        <time>2016-11-13T09:20:54Z</time>
      </trkpt>
      <trkpt lat="43.73256" lon="3.43916">
        <ele>379.7</ele>
        <time>2016-11-13T09:20:59Z</time>
      </trkpt>
      <trkpt lat="43.73262" lon="3.43923">
        <ele>380</ele>
        <time>2016-11-13T09:21:03Z</time>
      </trkpt>
      <trkpt lat="43.73266" lon="3.43931">
        <ele>380.5</ele>
        <time>2016-11-13T09:21:08Z</time>
      </trkpt>
      <trkpt lat="43.73261" lon="3.43931">
        <ele>381.5</ele>
        <time>2016-11-13T09:21:15Z</time>
      </trkpt>
      <trkpt lat="43.73255" lon="3.43922">
        <ele>382.2</ele>
        <time>2016-11-13T09:21:20Z</time>
      </trkpt>
      <trkpt lat="43.73248" lon="3.43912">
        <ele>382.7</ele>
        <time>2016-11-13T09:21:24Z</time>
      </trkpt>
      <trkpt lat="43.7324" lon="3.43905">
        <ele>383.1</ele>
        <time>2016-11-13T09:21:27Z</time>
      </trkpt>
      <trkpt lat="43.73234" lon="3.43899">
        <ele>383.4</ele>
        <time>2016-11-13T09:21:30Z</time>
      </trkpt>
      <trkpt lat="43.73228" lon="3.43893">
        <ele>383.7</ele>
        <time>2016-11-13T09:21:33Z</time>
      </trkpt>
      <trkpt lat="43.73222" lon="3.43887">
        <ele>384.1</ele>
        <time>2016-11-13T09:21:36Z</time>
      </trkpt>
      <trkpt lat="43.73214" lon="3.43881">
        <ele>384.6</ele>
        <time>2016-11-13T09:21:39Z</time>
      </trkpt>
      <trkpt lat="43.73207" lon="3.43878">
        <ele>385</ele>
        <time>2016-11-13T09:21:43Z</time>
      </trkpt>
      <trkpt lat="43.732" lon="3.43875">
        <ele>385.4</ele>
        <time>2016-11-13T09:21:46Z</time>
      </trkpt>
      <trkpt lat="43.73191" lon="3.43872">
        <ele>386</ele>
        <time>2016-11-13T09:21:50Z</time>
      </trkpt>
      <trkpt lat="43.73182" lon="3.43869">
        <ele>386.6</ele>
        <time>2016-11-13T09:21:54Z</time>
      </trkpt>
      <trkpt lat="43.73173" lon="3.43866">
        <ele>387.3</ele>
        <time>2016-11-13T09:21:58Z</time>
      </trkpt>
      <trkpt lat="43.73164" lon="3.43862">
        <ele>387.9</ele>
        <time>2016-11-13T09:22:02Z</time>
      </trkpt>
      <trkpt lat="43.73157" lon="3.4386">
        <ele>388.3</ele>
        <time>2016-11-13T09:22:05Z</time>
      </trkpt>
      <trkpt lat="43.73149" lon="3.43858">
        <ele>388.7</ele>
        <time>2016-11-13T09:22:08Z</time>
      </trkpt>
      <trkpt lat="43.7314" lon="3.43858">
        <ele>389</ele>
        <time>2016-11-13T09:22:12Z</time>
      </trkpt>
      <trkpt lat="43.7313" lon="3.43858">
        <ele>389.3</ele>
        <time>2016-11-13T09:22:16Z</time>
      </trkpt>
      <trkpt lat="43.73122" lon="3.43858">
        <ele>389.7</ele>
        <time>2016-11-13T09:22:20Z</time>
      </trkpt>
      <trkpt lat="43.73113" lon="3.4386">
        <ele>390</ele>
        <time>2016-11-13T09:22:23Z</time>
      </trkpt>
      <trkpt lat="43.73104" lon="3.4386">
        <ele>390.5</ele>
        <time>2016-11-13T09:22:27Z</time>
      </trkpt>
      <trkpt lat="43.73096" lon="3.4386">
        <ele>390.9</ele>
        <time>2016-11-13T09:22:30Z</time>
      </trkpt>
      <trkpt lat="43.73088" lon="3.4386">
        <ele>391.3</ele>
        <time>2016-11-13T09:22:33Z</time>
      </trkpt>
      <trkpt lat="43.7308" lon="3.43861">
        <ele>391.6</ele>
        <time>2016-11-13T09:22:37Z</time>
      </trkpt>
      <trkpt lat="43.73071" lon="3.43864">
        <ele>392.1</ele>
        <time>2016-11-13T09:22:41Z</time>
      </trkpt>
      <trkpt lat="43.73063" lon="3.43868">
        <ele>392.5</ele>
        <time>2016-11-13T09:22:45Z</time>
      </trkpt>
      <trkpt lat="43.73056" lon="3.43871">
        <ele>392.9</ele>
        <time>2016-11-13T09:22:48Z</time>
      </trkpt>
      <trkpt lat="43.73048" lon="3.43874">
        <ele>393.2</ele>
        <time>2016-11-13T09:22:51Z</time>
      </trkpt>
      <trkpt lat="43.73039" lon="3.43877">
        <ele>393.7</ele>
        <time>2016-11-13T09:22:55Z</time>
      </trkpt>
      <trkpt lat="43.73031" lon="3.43882">
        <ele>394.1</ele>
        <time>2016-11-13T09:22:59Z</time>
      </trkpt>
      <trkpt lat="43.73023" lon="3.43887">
        <ele>394.3</ele>
        <time>2016-11-13T09:23:03Z</time>
      </trkpt>
      <trkpt lat="43.73015" lon="3.43892">
        <ele>394.8</ele>
        <time>2016-11-13T09:23:07Z</time>
      </trkpt>
      <trkpt lat="43.73007" lon="3.43897">
        <ele>395.3</ele>
        <time>2016-11-13T09:23:11Z</time>
      </trkpt>
      <trkpt lat="43.73" lon="3.43904">
        <ele>395.6</ele>
        <time>2016-11-13T09:23:15Z</time>
      </trkpt>
      <trkpt lat="43.72994" lon="3.4391">
        <ele>395.9</ele>
        <time>2016-11-13T09:23:19Z</time>
      </trkpt>
      <trkpt lat="43.72987" lon="3.43915">
        <ele>396.4</ele>
        <time>2016-11-13T09:23:23Z</time>
      </trkpt>
      <trkpt lat="43.7298" lon="3.43921">
        <ele>396.6</ele>
        <time>2016-11-13T09:23:26Z</time>
      </trkpt>
      <trkpt lat="43.72973" lon="3.43928">
        <ele>397</ele>
        <time>2016-11-13T09:23:30Z</time>
      </trkpt>
      <trkpt lat="43.72968" lon="3.43936">
        <ele>397.4</ele>
        <time>2016-11-13T09:23:34Z</time>
      </trkpt>
      <trkpt lat="43.72961" lon="3.43946">
        <ele>397.7</ele>
        <time>2016-11-13T09:23:38Z</time>
      </trkpt>
      <trkpt lat="43.72956" lon="3.43956">
        <ele>398.1</ele>
        <time>2016-11-13T09:23:42Z</time>
      </trkpt>
      <trkpt lat="43.72952" lon="3.43966">
        <ele>398.5</ele>
        <time>2016-11-13T09:23:45Z</time>
      </trkpt>
      <trkpt lat="43.72949" lon="3.43976">
        <ele>398.8</ele>
        <time>2016-11-13T09:23:49Z</time>
      </trkpt>
      <trkpt lat="43.72946" lon="3.43989">
        <ele>399.4</ele>
        <time>2016-11-13T09:23:54Z</time>
      </trkpt>
      <trkpt lat="43.72943" lon="3.43998">
        <ele>399.9</ele>
        <time>2016-11-13T09:23:57Z</time>
      </trkpt>
      <trkpt lat="43.72942" lon="3.44008">
        <ele>400.4</ele>
        <time>2016-11-13T09:24:00Z</time>
      </trkpt>
      <trkpt lat="43.7294" lon="3.44021">
        <ele>401.1</ele>
        <time>2016-11-13T09:24:04Z</time>
      </trkpt>
      <trkpt lat="43.72943" lon="3.44032">
        <ele>401.4</ele>
        <time>2016-11-13T09:24:07Z</time>
      </trkpt>
      <trkpt lat="43.72945" lon="3.44043">
        <ele>402.1</ele>
        <time>2016-11-13T09:24:11Z</time>
      </trkpt>
      <trkpt lat="43.72949" lon="3.44054">
        <ele>402.9</ele>
        <time>2016-11-13T09:24:15Z</time>
      </trkpt>
      <trkpt lat="43.7295" lon="3.44066">
        <ele>403.8</ele>
        <time>2016-11-13T09:24:19Z</time>
      </trkpt>
      <trkpt lat="43.7295" lon="3.44077">
        <ele>404.9</ele>
        <time>2016-11-13T09:24:24Z</time>
      </trkpt>
      <trkpt lat="43.7295" lon="3.4409">
        <ele>406</ele>
        <time>2016-11-13T09:24:29Z</time>
      </trkpt>
      <trkpt lat="43.7295" lon="3.441">
        <ele>407.2</ele>
        <time>2016-11-13T09:24:33Z</time>
      </trkpt>
      <trkpt lat="43.7295" lon="3.44112">
        <ele>408.7</ele>
        <time>2016-11-13T09:24:38Z</time>
      </trkpt>
      <trkpt lat="43.72949" lon="3.44122">
        <ele>409.8</ele>
        <time>2016-11-13T09:24:42Z</time>
      </trkpt>
      <trkpt lat="43.72946" lon="3.44134">
        <ele>411</ele>
        <time>2016-11-13T09:24:46Z</time>
      </trkpt>
      <trkpt lat="43.72944" lon="3.44145">
        <ele>412.7</ele>
        <time>2016-11-13T09:24:51Z</time>
      </trkpt>
      <trkpt lat="43.72945" lon="3.44156">
        <ele>414</ele>
        <time>2016-11-13T09:24:56Z</time>
      </trkpt>
      <trkpt lat="43.72943" lon="3.44168">
        <ele>415.1</ele>
        <time>2016-11-13T09:25:00Z</time>
      </trkpt>
      <trkpt lat="43.72941" lon="3.4418">
        <ele>415.9</ele>
        <time>2016-11-13T09:25:04Z</time>
      </trkpt>
      <trkpt lat="43.72937" lon="3.44189">
        <ele>416.7</ele>
        <time>2016-11-13T09:25:08Z</time>
      </trkpt>
      <trkpt lat="43.72931" lon="3.44198">
        <ele>417.5</ele>
        <time>2016-11-13T09:25:12Z</time>
      </trkpt>
      <trkpt lat="43.72925" lon="3.44207">
        <ele>418.1</ele>
        <time>2016-11-13T09:25:15Z</time>
      </trkpt>
      <trkpt lat="43.72921" lon="3.44214">
        <ele>418.7</ele>
        <time>2016-11-13T09:25:18Z</time>
      </trkpt>
      <trkpt lat="43.72916" lon="3.44224">
        <ele>419.1</ele>
        <time>2016-11-13T09:25:21Z</time>
      </trkpt>
      <trkpt lat="43.72912" lon="3.44232">
        <ele>419.5</ele>
        <time>2016-11-13T09:25:24Z</time>
      </trkpt>
      <trkpt lat="43.72908" lon="3.44241">
        <ele>419.8</ele>
        <time>2016-11-13T09:25:27Z</time>
      </trkpt>
      <trkpt lat="43.72903" lon="3.44251">
        <ele>420.2</ele>
        <time>2016-11-13T09:25:30Z</time>
      </trkpt>
      <trkpt lat="43.72899" lon="3.44259">
        <ele>420.6</ele>
        <time>2016-11-13T09:25:33Z</time>
      </trkpt>
      <trkpt lat="43.72895" lon="3.44269">
        <ele>421</ele>
        <time>2016-11-13T09:25:36Z</time>
      </trkpt>
      <trkpt lat="43.72891" lon="3.44278">
        <ele>421.2</ele>
        <time>2016-11-13T09:25:39Z</time>
      </trkpt>
      <trkpt lat="43.72887" lon="3.44287">
        <ele>421.4</ele>
        <time>2016-11-13T09:25:42Z</time>
      </trkpt>
      <trkpt lat="43.72883" lon="3.44295">
        <ele>421.6</ele>
        <time>2016-11-13T09:25:45Z</time>
      </trkpt>
      <trkpt lat="43.72878" lon="3.44304">
        <ele>421.9</ele>
        <time>2016-11-13T09:25:48Z</time>
      </trkpt>
      <trkpt lat="43.72873" lon="3.44313">
        <ele>422.1</ele>
        <time>2016-11-13T09:25:51Z</time>
      </trkpt>
      <trkpt lat="43.72868" lon="3.44321">
        <ele>422.2</ele>
        <time>2016-11-13T09:25:53Z</time>
      </trkpt>
      <trkpt lat="43.72862" lon="3.44327">
        <ele>422.4</ele>
        <time>2016-11-13T09:25:55Z</time>
      </trkpt>
      <trkpt lat="43.72854" lon="3.44338">
        <ele>423.8</ele>
        <time>2016-11-13T09:25:58Z</time>
      </trkpt>
      <trkpt lat="43.72849" lon="3.44345">
        <ele>423.9</ele>
        <time>2016-11-13T09:26:00Z</time>
      </trkpt>
      <trkpt lat="43.72842" lon="3.44353">
        <ele>424.3</ele>
        <time>2016-11-13T09:26:03Z</time>
      </trkpt>
      <trkpt lat="43.72835" lon="3.44362">
        <ele>424.7</ele>
        <time>2016-11-13T09:26:07Z</time>
      </trkpt>
      <trkpt lat="43.72831" lon="3.4437">
        <ele>425.1</ele>
        <time>2016-11-13T09:26:11Z</time>
      </trkpt>
      <trkpt lat="43.72826" lon="3.44379">
        <ele>425.4</ele>
        <time>2016-11-13T09:26:16Z</time>
      </trkpt>
      <trkpt lat="43.72821" lon="3.44387">
        <ele>425.6</ele>
        <time>2016-11-13T09:26:19Z</time>
      </trkpt>
      <trkpt lat="43.72817" lon="3.44396">
        <ele>425.9</ele>
        <time>2016-11-13T09:26:22Z</time>
      </trkpt>
      <trkpt lat="43.72811" lon="3.44404">
        <ele>426.5</ele>
        <time>2016-11-13T09:26:27Z</time>
      </trkpt>
      <trkpt lat="43.72806" lon="3.44411">
        <ele>427.1</ele>
        <time>2016-11-13T09:26:31Z</time>
      </trkpt>
      <trkpt lat="43.72799" lon="3.44417">
        <ele>427.7</ele>
        <time>2016-11-13T09:26:35Z</time>
      </trkpt>
      <trkpt lat="43.72792" lon="3.44422">
        <ele>428.2</ele>
        <time>2016-11-13T09:26:39Z</time>
      </trkpt>
      <trkpt lat="43.72786" lon="3.44428">
        <ele>428.9</ele>
        <time>2016-11-13T09:26:43Z</time>
      </trkpt>
      <trkpt lat="43.72779" lon="3.44433">
        <ele>429.5</ele>
        <time>2016-11-13T09:26:47Z</time>
      </trkpt>
      <trkpt lat="43.72774" lon="3.4444">
        <ele>430.2</ele>
        <time>2016-11-13T09:26:51Z</time>
      </trkpt>
      <trkpt lat="43.72768" lon="3.44448">
        <ele>430.8</ele>
        <time>2016-11-13T09:26:55Z</time>
      </trkpt>
      <trkpt lat="43.72762" lon="3.44455">
        <ele>431.3</ele>
        <time>2016-11-13T09:26:59Z</time>
      </trkpt>
      <trkpt lat="43.72755" lon="3.44461">
        <ele>431.6</ele>
        <time>2016-11-13T09:27:02Z</time>
      </trkpt>
      <trkpt lat="43.72747" lon="3.44466">
        <ele>431.9</ele>
        <time>2016-11-13T09:27:05Z</time>
      </trkpt>
      <trkpt lat="43.7274" lon="3.44467">
        <ele>432.3</ele>
        <time>2016-11-13T09:27:08Z</time>
      </trkpt>
      <trkpt lat="43.72733" lon="3.44467">
        <ele>432.5</ele>
        <time>2016-11-13T09:27:11Z</time>
      </trkpt>
      <trkpt lat="43.72723" lon="3.44465">
        <ele>432.8</ele>
        <time>2016-11-13T09:27:15Z</time>
      </trkpt>
      <trkpt lat="43.72714" lon="3.44462">
        <ele>433</ele>
        <time>2016-11-13T09:27:19Z</time>
      </trkpt>
      <trkpt lat="43.72707" lon="3.44457">
        <ele>433.2</ele>
        <time>2016-11-13T09:27:22Z</time>
      </trkpt>
      <trkpt lat="43.727" lon="3.4445">
        <ele>433.4</ele>
        <time>2016-11-13T09:27:25Z</time>
      </trkpt>
      <trkpt lat="43.72693" lon="3.44442">
        <ele>433.6</ele>
        <time>2016-11-13T09:27:28Z</time>
      </trkpt>
      <trkpt lat="43.72684" lon="3.44436">
        <ele>433.9</ele>
        <time>2016-11-13T09:27:32Z</time>
      </trkpt>
      <trkpt lat="43.72676" lon="3.4443">
        <ele>434.1</ele>
        <time>2016-11-13T09:27:35Z</time>
      </trkpt>
      <trkpt lat="43.72669" lon="3.44425">
        <ele>434.1</ele>
        <time>2016-11-13T09:27:38Z</time>
      </trkpt>
      <trkpt lat="43.72661" lon="3.44421">
        <ele>434.3</ele>
        <time>2016-11-13T09:27:41Z</time>
      </trkpt>
      <trkpt lat="43.72652" lon="3.44419">
        <ele>434.5</ele>
        <time>2016-11-13T09:27:44Z</time>
      </trkpt>
      <trkpt lat="43.72643" lon="3.44418">
        <ele>434.8</ele>
        <time>2016-11-13T09:27:47Z</time>
      </trkpt>
      <trkpt lat="43.72635" lon="3.44418">
        <ele>435.1</ele>
        <time>2016-11-13T09:27:50Z</time>
      </trkpt>
      <trkpt lat="43.72627" lon="3.44416">
        <ele>435.5</ele>
        <time>2016-11-13T09:27:53Z</time>
      </trkpt>
      <trkpt lat="43.72618" lon="3.44415">
        <ele>435.9</ele>
        <time>2016-11-13T09:27:56Z</time>
      </trkpt>
      <trkpt lat="43.7261" lon="3.44413">
        <ele>436.5</ele>
        <time>2016-11-13T09:28:00Z</time>
      </trkpt>
      <trkpt lat="43.72601" lon="3.44409">
        <ele>437.1</ele>
        <time>2016-11-13T09:28:04Z</time>
      </trkpt>
      <trkpt lat="43.72592" lon="3.44403">
        <ele>437.7</ele>
        <time>2016-11-13T09:28:09Z</time>
      </trkpt>
      <trkpt lat="43.72585" lon="3.44397">
        <ele>438.1</ele>
        <time>2016-11-13T09:28:13Z</time>
      </trkpt>
      <trkpt lat="43.72578" lon="3.44391">
        <ele>438.3</ele>
        <time>2016-11-13T09:28:16Z</time>
      </trkpt>
      <trkpt lat="43.72569" lon="3.44387">
        <ele>438.5</ele>
        <time>2016-11-13T09:28:20Z</time>
      </trkpt>
      <trkpt lat="43.7256" lon="3.44383">
        <ele>438.8</ele>
        <time>2016-11-13T09:28:24Z</time>
      </trkpt>
      <trkpt lat="43.72551" lon="3.44382">
        <ele>439.1</ele>
        <time>2016-11-13T09:28:28Z</time>
      </trkpt>
      <trkpt lat="43.72543" lon="3.44383">
        <ele>439.5</ele>
        <time>2016-11-13T09:28:31Z</time>
      </trkpt>
      <trkpt lat="43.72536" lon="3.44385">
        <ele>439.7</ele>
        <time>2016-11-13T09:28:34Z</time>
      </trkpt>
      <trkpt lat="43.72528" lon="3.44387">
        <ele>440.1</ele>
        <time>2016-11-13T09:28:37Z</time>
      </trkpt>
      <trkpt lat="43.72519" lon="3.4439">
        <ele>440.3</ele>
        <time>2016-11-13T09:28:41Z</time>
      </trkpt>
      <trkpt lat="43.72511" lon="3.44392">
        <ele>440.5</ele>
        <time>2016-11-13T09:28:45Z</time>
      </trkpt>
      <trkpt lat="43.72504" lon="3.44398">
        <ele>440.7</ele>
        <time>2016-11-13T09:28:48Z</time>
      </trkpt>
      <trkpt lat="43.72507" lon="3.44408">
        <ele>441.2</ele>
        <time>2016-11-13T09:28:53Z</time>
      </trkpt>
      <trkpt lat="43.72515" lon="3.44408">
        <ele>441.7</ele>
        <time>2016-11-13T09:28:56Z</time>
      </trkpt>
      <trkpt lat="43.72524" lon="3.44409">
        <ele>442.3</ele>
        <time>2016-11-13T09:28:59Z</time>
      </trkpt>
      <trkpt lat="43.72532" lon="3.44411">
        <ele>443.1</ele>
        <time>2016-11-13T09:29:03Z</time>
      </trkpt>
      <trkpt lat="43.7254" lon="3.44416">
        <ele>443.9</ele>
        <time>2016-11-13T09:29:08Z</time>
      </trkpt>
      <trkpt lat="43.72547" lon="3.44421">
        <ele>444.4</ele>
        <time>2016-11-13T09:29:11Z</time>
      </trkpt>
      <trkpt lat="43.72554" lon="3.44428">
        <ele>445.2</ele>
        <time>2016-11-13T09:29:15Z</time>
      </trkpt>
      <trkpt lat="43.72561" lon="3.44433">
        <ele>445.8</ele>
        <time>2016-11-13T09:29:18Z</time>
      </trkpt>
      <trkpt lat="43.72567" lon="3.4444">
        <ele>446.7</ele>
        <time>2016-11-13T09:29:23Z</time>
      </trkpt>
      <trkpt lat="43.72573" lon="3.44447">
        <ele>447.1</ele>
        <time>2016-11-13T09:29:26Z</time>
      </trkpt>
      <trkpt lat="43.72579" lon="3.44454">
        <ele>447.5</ele>
        <time>2016-11-13T09:29:29Z</time>
      </trkpt>
      <trkpt lat="43.72586" lon="3.44459">
        <ele>448</ele>
        <time>2016-11-13T09:29:33Z</time>
      </trkpt>
      <trkpt lat="43.72592" lon="3.44466">
        <ele>448.4</ele>
        <time>2016-11-13T09:29:36Z</time>
      </trkpt>
      <trkpt lat="43.72599" lon="3.44474">
        <ele>449</ele>
        <time>2016-11-13T09:29:40Z</time>
      </trkpt>
      <trkpt lat="43.72605" lon="3.44481">
        <ele>449.6</ele>
        <time>2016-11-13T09:29:44Z</time>
      </trkpt>
      <trkpt lat="43.7261" lon="3.44491">
        <ele>450.2</ele>
        <time>2016-11-13T09:29:48Z</time>
      </trkpt>
      <trkpt lat="43.72612" lon="3.44503">
        <ele>450.8</ele>
        <time>2016-11-13T09:29:53Z</time>
      </trkpt>
      <trkpt lat="43.7261" lon="3.44513">
        <ele>451.5</ele>
        <time>2016-11-13T09:29:56Z</time>
      </trkpt>
      <trkpt lat="43.72606" lon="3.44525">
        <ele>452.6</ele>
        <time>2016-11-13T09:30:00Z</time>
      </trkpt>
      <trkpt lat="43.72602" lon="3.44534">
        <ele>453.6</ele>
        <time>2016-11-13T09:30:04Z</time>
      </trkpt>
      <trkpt lat="43.72602" lon="3.44547">
        <ele>454.6</ele>
        <time>2016-11-13T09:30:08Z</time>
      </trkpt>
      <trkpt lat="43.72607" lon="3.44555">
        <ele>455.6</ele>
        <time>2016-11-13T09:30:12Z</time>
      </trkpt>
      <trkpt lat="43.72614" lon="3.44563">
        <ele>456.6</ele>
        <time>2016-11-13T09:30:16Z</time>
      </trkpt>
      <trkpt lat="43.7262" lon="3.44569">
        <ele>457</ele>
        <time>2016-11-13T09:30:19Z</time>
      </trkpt>
      <trkpt lat="43.72627" lon="3.44576">
        <ele>457.8</ele>
        <time>2016-11-13T09:30:23Z</time>
      </trkpt>
      <trkpt lat="43.72635" lon="3.44583">
        <ele>459.1</ele>
        <time>2016-11-13T09:30:27Z</time>
      </trkpt>
      <trkpt lat="43.72642" lon="3.4459">
        <ele>460</ele>
        <time>2016-11-13T09:30:30Z</time>
      </trkpt>
      <trkpt lat="43.72648" lon="3.44595">
        <ele>460.8</ele>
        <time>2016-11-13T09:30:33Z</time>
      </trkpt>
      <trkpt lat="43.72656" lon="3.44604">
        <ele>461.6</ele>
        <time>2016-11-13T09:30:37Z</time>
      </trkpt>
      <trkpt lat="43.72663" lon="3.44612">
        <ele>462.4</ele>
        <time>2016-11-13T09:30:41Z</time>
      </trkpt>
      <trkpt lat="43.7267" lon="3.44621">
        <ele>463.2</ele>
        <time>2016-11-13T09:30:45Z</time>
      </trkpt>
      <trkpt lat="43.72673" lon="3.44629">
        <ele>463.7</ele>
        <time>2016-11-13T09:30:48Z</time>
      </trkpt>
      <trkpt lat="43.7268" lon="3.44637">
        <ele>464.1</ele>
        <time>2016-11-13T09:30:51Z</time>
      </trkpt>
      <trkpt lat="43.72687" lon="3.44644">
        <ele>464.8</ele>
        <time>2016-11-13T09:30:54Z</time>
      </trkpt>
      <trkpt lat="43.72696" lon="3.44649">
        <ele>465.7</ele>
        <time>2016-11-13T09:30:58Z</time>
      </trkpt>
      <trkpt lat="43.72703" lon="3.44655">
        <ele>466.1</ele>
        <time>2016-11-13T09:31:01Z</time>
      </trkpt>
      <trkpt lat="43.7271" lon="3.4466">
        <ele>466.5</ele>
        <time>2016-11-13T09:31:04Z</time>
      </trkpt>
      <trkpt lat="43.72719" lon="3.44664">
        <ele>466.8</ele>
        <time>2016-11-13T09:31:07Z</time>
      </trkpt>
      <trkpt lat="43.72728" lon="3.44668">
        <ele>467.6</ele>
        <time>2016-11-13T09:31:11Z</time>
      </trkpt>
      <trkpt lat="43.72737" lon="3.44669">
        <ele>468.1</ele>
        <time>2016-11-13T09:31:14Z</time>
      </trkpt>
      <trkpt lat="43.72746" lon="3.44668">
        <ele>468.6</ele>
        <time>2016-11-13T09:31:18Z</time>
      </trkpt>
      <trkpt lat="43.72755" lon="3.44665">
        <ele>469.6</ele>
        <time>2016-11-13T09:31:22Z</time>
      </trkpt>
      <trkpt lat="43.72764" lon="3.44665">
        <ele>470.7</ele>
        <time>2016-11-13T09:31:26Z</time>
      </trkpt>
      <trkpt lat="43.72773" lon="3.44664">
        <ele>471.7</ele>
        <time>2016-11-13T09:31:30Z</time>
      </trkpt>
      <trkpt lat="43.72781" lon="3.44661">
        <ele>472.6</ele>
        <time>2016-11-13T09:31:34Z</time>
      </trkpt>
      <trkpt lat="43.72789" lon="3.44659">
        <ele>473.6</ele>
        <time>2016-11-13T09:31:38Z</time>
      </trkpt>
      <trkpt lat="43.72797" lon="3.44657">
        <ele>474.6</ele>
        <time>2016-11-13T09:31:42Z</time>
      </trkpt>
      <trkpt lat="43.72806" lon="3.44656">
        <ele>475.6</ele>
        <time>2016-11-13T09:31:46Z</time>
      </trkpt>
      <trkpt lat="43.72814" lon="3.44655">
        <ele>476.3</ele>
        <time>2016-11-13T09:31:49Z</time>
      </trkpt>
      <trkpt lat="43.72822" lon="3.44652">
        <ele>477.1</ele>
        <time>2016-11-13T09:31:52Z</time>
      </trkpt>
      <trkpt lat="43.7283" lon="3.44649">
        <ele>477.8</ele>
        <time>2016-11-13T09:31:55Z</time>
      </trkpt>
      <trkpt lat="43.72837" lon="3.44646">
        <ele>478.4</ele>
        <time>2016-11-13T09:31:58Z</time>
      </trkpt>
      <trkpt lat="43.72843" lon="3.44642">
        <ele>479.1</ele>
        <time>2016-11-13T09:32:01Z</time>
      </trkpt>
      <trkpt lat="43.72851" lon="3.44637">
        <ele>480.2</ele>
        <time>2016-11-13T09:32:05Z</time>
      </trkpt>
      <trkpt lat="43.72858" lon="3.44632">
        <ele>481</ele>
        <time>2016-11-13T09:32:08Z</time>
      </trkpt>
      <trkpt lat="43.72867" lon="3.44627">
        <ele>481.6</ele>
        <time>2016-11-13T09:32:11Z</time>
      </trkpt>
      <trkpt lat="43.72874" lon="3.44622">
        <ele>482.3</ele>
        <time>2016-11-13T09:32:14Z</time>
      </trkpt>
      <trkpt lat="43.72883" lon="3.44621">
        <ele>482.9</ele>
        <time>2016-11-13T09:32:17Z</time>
      </trkpt>
      <trkpt lat="43.7289" lon="3.44619">
        <ele>483.7</ele>
        <time>2016-11-13T09:32:21Z</time>
      </trkpt>
      <trkpt lat="43.72897" lon="3.44616">
        <ele>484.3</ele>
        <time>2016-11-13T09:32:24Z</time>
      </trkpt>
      <trkpt lat="43.72906" lon="3.44611">
        <ele>485.2</ele>
        <time>2016-11-13T09:32:28Z</time>
      </trkpt>
      <trkpt lat="43.72915" lon="3.44607">
        <ele>486.1</ele>
        <time>2016-11-13T09:32:32Z</time>
      </trkpt>
      <trkpt lat="43.72923" lon="3.44602">
        <ele>487.1</ele>
        <time>2016-11-13T09:32:37Z</time>
      </trkpt>
      <trkpt lat="43.72932" lon="3.446">
        <ele>487.8</ele>
        <time>2016-11-13T09:32:40Z</time>
      </trkpt>
      <trkpt lat="43.7294" lon="3.44597">
        <ele>488.7</ele>
        <time>2016-11-13T09:32:44Z</time>
      </trkpt>
      <trkpt lat="43.72948" lon="3.44592">
        <ele>489.4</ele>
        <time>2016-11-13T09:32:48Z</time>
      </trkpt>
      <trkpt lat="43.72956" lon="3.44587">
        <ele>489.9</ele>
        <time>2016-11-13T09:32:51Z</time>
      </trkpt>
      <trkpt lat="43.72962" lon="3.44582">
        <ele>490.6</ele>
        <time>2016-11-13T09:32:54Z</time>
      </trkpt>
      <trkpt lat="43.72969" lon="3.44576">
        <ele>491.4</ele>
        <time>2016-11-13T09:32:58Z</time>
      </trkpt>
      <trkpt lat="43.72977" lon="3.44572">
        <ele>492.2</ele>
        <time>2016-11-13T09:33:02Z</time>
      </trkpt>
      <trkpt lat="43.72984" lon="3.44567">
        <ele>492.7</ele>
        <time>2016-11-13T09:33:05Z</time>
      </trkpt>
      <trkpt lat="43.72993" lon="3.44566">
        <ele>493.2</ele>
        <time>2016-11-13T09:33:08Z</time>
      </trkpt>
      <trkpt lat="43.73" lon="3.44564">
        <ele>493.7</ele>
        <time>2016-11-13T09:33:11Z</time>
      </trkpt>
      <trkpt lat="43.7301" lon="3.44564">
        <ele>494.2</ele>
        <time>2016-11-13T09:33:14Z</time>
      </trkpt>
      <trkpt lat="43.73017" lon="3.44566">
        <ele>494.7</ele>
        <time>2016-11-13T09:33:17Z</time>
      </trkpt>
      <trkpt lat="43.73026" lon="3.44572">
        <ele>495.2</ele>
        <time>2016-11-13T09:33:21Z</time>
      </trkpt>
      <trkpt lat="43.73032" lon="3.4458">
        <ele>495.5</ele>
        <time>2016-11-13T09:33:24Z</time>
      </trkpt>
      <trkpt lat="43.7304" lon="3.4459">
        <ele>495.6</ele>
        <time>2016-11-13T09:33:27Z</time>
      </trkpt>
      <trkpt lat="43.73046" lon="3.44597">
        <ele>495.7</ele>
        <time>2016-11-13T09:33:30Z</time>
      </trkpt>
      <trkpt lat="43.73052" lon="3.44604">
        <ele>495.7</ele>
        <time>2016-11-13T09:33:33Z</time>
      </trkpt>
      <trkpt lat="43.73057" lon="3.44612">
        <ele>495.7</ele>
        <time>2016-11-13T09:33:36Z</time>
      </trkpt>
      <trkpt lat="43.73062" lon="3.44622">
        <ele>496</ele>
        <time>2016-11-13T09:33:40Z</time>
      </trkpt>
      <trkpt lat="43.73067" lon="3.44633">
        <ele>496.2</ele>
        <time>2016-11-13T09:33:43Z</time>
      </trkpt>
      <trkpt lat="43.73071" lon="3.44641">
        <ele>496.5</ele>
        <time>2016-11-13T09:33:46Z</time>
      </trkpt>
      <trkpt lat="43.73075" lon="3.44652">
        <ele>496.8</ele>
        <time>2016-11-13T09:33:49Z</time>
      </trkpt>
      <trkpt lat="43.73079" lon="3.4466">
        <ele>497</ele>
        <time>2016-11-13T09:33:52Z</time>
      </trkpt>
      <trkpt lat="43.73083" lon="3.44669">
        <ele>497.3</ele>
        <time>2016-11-13T09:33:55Z</time>
      </trkpt>
      <trkpt lat="43.73086" lon="3.44679">
        <ele>497.6</ele>
        <time>2016-11-13T09:33:58Z</time>
      </trkpt>
      <trkpt lat="43.73087" lon="3.4469">
        <ele>498.3</ele>
        <time>2016-11-13T09:34:02Z</time>
      </trkpt>
      <trkpt lat="43.73088" lon="3.44703">
        <ele>499.4</ele>
        <time>2016-11-13T09:34:07Z</time>
      </trkpt>
      <trkpt lat="43.73089" lon="3.44713">
        <ele>500</ele>
        <time>2016-11-13T09:34:10Z</time>
      </trkpt>
      <trkpt lat="43.7309" lon="3.44723">
        <ele>500.4</ele>
        <time>2016-11-13T09:34:13Z</time>
      </trkpt>
      <trkpt lat="43.73093" lon="3.44734">
        <ele>501</ele>
        <time>2016-11-13T09:34:17Z</time>
      </trkpt>
      <trkpt lat="43.73095" lon="3.44746">
        <ele>501.5</ele>
        <time>2016-11-13T09:34:21Z</time>
      </trkpt>
      <trkpt lat="43.73095" lon="3.44756">
        <ele>501.9</ele>
        <time>2016-11-13T09:34:24Z</time>
      </trkpt>
      <trkpt lat="43.73095" lon="3.44767">
        <ele>502.4</ele>
        <time>2016-11-13T09:34:27Z</time>
      </trkpt>
      <trkpt lat="43.73097" lon="3.44777">
        <ele>502.9</ele>
        <time>2016-11-13T09:34:30Z</time>
      </trkpt>
      <trkpt lat="43.73098" lon="3.44789">
        <ele>503.6</ele>
        <time>2016-11-13T09:34:34Z</time>
      </trkpt>
      <trkpt lat="43.73101" lon="3.44801">
        <ele>504.1</ele>
        <time>2016-11-13T09:34:37Z</time>
      </trkpt>
      <trkpt lat="43.73105" lon="3.4481">
        <ele>504.5</ele>
        <time>2016-11-13T09:34:40Z</time>
      </trkpt>
      <trkpt lat="43.7311" lon="3.44818">
        <ele>504.8</ele>
        <time>2016-11-13T09:34:43Z</time>
      </trkpt>
      <trkpt lat="43.73116" lon="3.44827">
        <ele>504.9</ele>
        <time>2016-11-13T09:34:46Z</time>
      </trkpt>
      <trkpt lat="43.73122" lon="3.44835">
        <ele>504.9</ele>
        <time>2016-11-13T09:34:49Z</time>
      </trkpt>
      <trkpt lat="43.73129" lon="3.44842">
        <ele>505</ele>
        <time>2016-11-13T09:34:52Z</time>
      </trkpt>
      <trkpt lat="43.73136" lon="3.44849">
        <ele>505</ele>
        <time>2016-11-13T09:34:55Z</time>
      </trkpt>
      <trkpt lat="43.73141" lon="3.44857">
        <ele>505</ele>
        <time>2016-11-13T09:34:58Z</time>
      </trkpt>
      <trkpt lat="43.73143" lon="3.44867">
        <ele>504.9</ele>
        <time>2016-11-13T09:35:05Z</time>
      </trkpt>
      <trkpt lat="43.73135" lon="3.44872">
        <ele>504.9</ele>
        <time>2016-11-13T09:35:11Z</time>
      </trkpt>
      <trkpt lat="43.73127" lon="3.44876">
        <ele>505</ele>
        <time>2016-11-13T09:35:15Z</time>
      </trkpt>
      <trkpt lat="43.73118" lon="3.44875">
        <ele>505.5</ele>
        <time>2016-11-13T09:35:19Z</time>
      </trkpt>
      <trkpt lat="43.73111" lon="3.44873">
        <ele>505.8</ele>
        <time>2016-11-13T09:35:23Z</time>
      </trkpt>
      <trkpt lat="43.73103" lon="3.44869">
        <ele>506.5</ele>
        <time>2016-11-13T09:35:30Z</time>
      </trkpt>
      <trkpt lat="43.73096" lon="3.44868">
        <ele>507.2</ele>
        <time>2016-11-13T09:35:34Z</time>
      </trkpt>
      <trkpt lat="43.73088" lon="3.44864">
        <ele>507.8</ele>
        <time>2016-11-13T09:35:39Z</time>
      </trkpt>
      <trkpt lat="43.73079" lon="3.44863">
        <ele>508.7</ele>
        <time>2016-11-13T09:35:44Z</time>
      </trkpt>
      <trkpt lat="43.73072" lon="3.44862">
        <ele>509.4</ele>
        <time>2016-11-13T09:35:49Z</time>
      </trkpt>
      <trkpt lat="43.73063" lon="3.44862">
        <ele>510.6</ele>
        <time>2016-11-13T09:35:55Z</time>
      </trkpt>
      <trkpt lat="43.73056" lon="3.44862">
        <ele>511.6</ele>
        <time>2016-11-13T09:35:59Z</time>
      </trkpt>
      <trkpt lat="43.73048" lon="3.44863">
        <ele>512.5</ele>
        <time>2016-11-13T09:36:03Z</time>
      </trkpt>
      <trkpt lat="43.7304" lon="3.44863">
        <ele>513.8</ele>
        <time>2016-11-13T09:36:08Z</time>
      </trkpt>
      <trkpt lat="43.73033" lon="3.44861">
        <ele>514.8</ele>
        <time>2016-11-13T09:36:12Z</time>
      </trkpt>
      <trkpt lat="43.73026" lon="3.44858">
        <ele>515.6</ele>
        <time>2016-11-13T09:36:16Z</time>
      </trkpt>
      <trkpt lat="43.73017" lon="3.44857">
        <ele>516.3</ele>
        <time>2016-11-13T09:36:21Z</time>
      </trkpt>
      <trkpt lat="43.73008" lon="3.44855">
        <ele>516.8</ele>
        <time>2016-11-13T09:36:26Z</time>
      </trkpt>
      <trkpt lat="43.73" lon="3.44855">
        <ele>517.6</ele>
        <time>2016-11-13T09:36:31Z</time>
      </trkpt>
      <trkpt lat="43.72991" lon="3.44857">
        <ele>518.2</ele>
        <time>2016-11-13T09:36:36Z</time>
      </trkpt>
      <trkpt lat="43.72984" lon="3.44858">
        <ele>518.9</ele>
        <time>2016-11-13T09:36:41Z</time>
      </trkpt>
      <trkpt lat="43.72977" lon="3.4486">
        <ele>519.7</ele>
        <time>2016-11-13T09:36:45Z</time>
      </trkpt>
      <trkpt lat="43.72969" lon="3.44862">
        <ele>520.5</ele>
        <time>2016-11-13T09:36:49Z</time>
      </trkpt>
      <trkpt lat="43.72961" lon="3.44862">
        <ele>521.1</ele>
        <time>2016-11-13T09:36:53Z</time>
      </trkpt>
      <trkpt lat="43.72953" lon="3.44862">
        <ele>521.7</ele>
        <time>2016-11-13T09:36:58Z</time>
      </trkpt>
      <trkpt lat="43.72945" lon="3.4486">
        <ele>522.5</ele>
        <time>2016-11-13T09:37:03Z</time>
      </trkpt>
      <trkpt lat="43.72937" lon="3.44858">
        <ele>523.2</ele>
        <time>2016-11-13T09:37:07Z</time>
      </trkpt>
      <trkpt lat="43.7293" lon="3.44855">
        <ele>524.1</ele>
        <time>2016-11-13T09:37:11Z</time>
      </trkpt>
      <trkpt lat="43.72921" lon="3.44853">
        <ele>525.3</ele>
        <time>2016-11-13T09:37:16Z</time>
      </trkpt>
      <trkpt lat="43.72914" lon="3.4485">
        <ele>526.2</ele>
        <time>2016-11-13T09:37:20Z</time>
      </trkpt>
      <trkpt lat="43.72906" lon="3.44846">
        <ele>526.8</ele>
        <time>2016-11-13T09:37:23Z</time>
      </trkpt>
      <trkpt lat="43.72899" lon="3.44842">
        <ele>527</ele>
        <time>2016-11-13T09:37:25Z</time>
      </trkpt>
      <trkpt lat="43.7289" lon="3.44842">
        <ele>527.3</ele>
        <time>2016-11-13T09:37:27Z</time>
      </trkpt>
      <trkpt lat="43.7288" lon="3.44841">
        <ele>527.5</ele>
        <time>2016-11-13T09:37:29Z</time>
      </trkpt>
      <trkpt lat="43.72869" lon="3.44843">
        <ele>527.2</ele>
        <time>2016-11-13T09:37:31Z</time>
      </trkpt>
      <trkpt lat="43.72858" lon="3.44845">
        <ele>526.5</ele>
        <time>2016-11-13T09:37:33Z</time>
      </trkpt>
      <trkpt lat="43.72847" lon="3.44846">
        <ele>525.1</ele>
        <time>2016-11-13T09:37:35Z</time>
      </trkpt>
      <trkpt lat="43.72836" lon="3.44846">
        <ele>524</ele>
        <time>2016-11-13T09:37:37Z</time>
      </trkpt>
      <trkpt lat="43.72823" lon="3.44846">
        <ele>523.3</ele>
        <time>2016-11-13T09:37:39Z</time>
      </trkpt>
      <trkpt lat="43.72815" lon="3.44845">
        <ele>522.9</ele>
        <time>2016-11-13T09:37:40Z</time>
      </trkpt>
      <trkpt lat="43.72799" lon="3.44842">
        <ele>522.3</ele>
        <time>2016-11-13T09:37:42Z</time>
      </trkpt>
      <trkpt lat="43.72789" lon="3.44841">
        <ele>521.4</ele>
        <time>2016-11-13T09:37:43Z</time>
      </trkpt>
      <trkpt lat="43.7278" lon="3.44839">
        <ele>520.5</ele>
        <time>2016-11-13T09:37:44Z</time>
      </trkpt>
      <trkpt lat="43.72772" lon="3.44837">
        <ele>520</ele>
        <time>2016-11-13T09:37:45Z</time>
      </trkpt>
      <trkpt lat="43.72764" lon="3.44835">
        <ele>519.7</ele>
        <time>2016-11-13T09:37:46Z</time>
      </trkpt>
      <trkpt lat="43.72756" lon="3.44834">
        <ele>519.1</ele>
        <time>2016-11-13T09:37:47Z</time>
      </trkpt>
      <trkpt lat="43.72743" lon="3.44833">
        <ele>519.1</ele>
        <time>2016-11-13T09:37:49Z</time>
      </trkpt>
      <trkpt lat="43.72735" lon="3.44835">
        <ele>519</ele>
        <time>2016-11-13T09:37:51Z</time>
      </trkpt>
      <trkpt lat="43.72727" lon="3.44836">
        <ele>518.9</ele>
        <time>2016-11-13T09:37:53Z</time>
      </trkpt>
      <trkpt lat="43.7272" lon="3.44836">
        <ele>519.1</ele>
        <time>2016-11-13T09:37:55Z</time>
      </trkpt>
      <trkpt lat="43.72711" lon="3.44836">
        <ele>519.2</ele>
        <time>2016-11-13T09:37:57Z</time>
      </trkpt>
      <trkpt lat="43.72701" lon="3.44835">
        <ele>519.2</ele>
        <time>2016-11-13T09:38:00Z</time>
      </trkpt>
      <trkpt lat="43.72692" lon="3.44833">
        <ele>519.4</ele>
        <time>2016-11-13T09:38:03Z</time>
      </trkpt>
      <trkpt lat="43.72684" lon="3.44834">
        <ele>519.8</ele>
        <time>2016-11-13T09:38:06Z</time>
      </trkpt>
      <trkpt lat="43.72674" lon="3.44835">
        <ele>520.8</ele>
        <time>2016-11-13T09:38:09Z</time>
      </trkpt>
      <trkpt lat="43.72666" lon="3.44836">
        <ele>520.8</ele>
        <time>2016-11-13T09:38:11Z</time>
      </trkpt>
      <trkpt lat="43.72658" lon="3.44835">
        <ele>520.8</ele>
        <time>2016-11-13T09:38:13Z</time>
      </trkpt>
      <trkpt lat="43.7265" lon="3.44834">
        <ele>520.6</ele>
        <time>2016-11-13T09:38:15Z</time>
      </trkpt>
      <trkpt lat="43.7264" lon="3.44832">
        <ele>520.2</ele>
        <time>2016-11-13T09:38:17Z</time>
      </trkpt>
      <trkpt lat="43.72632" lon="3.4483">
        <ele>520</ele>
        <time>2016-11-13T09:38:19Z</time>
      </trkpt>
      <trkpt lat="43.72624" lon="3.44829">
        <ele>519.8</ele>
        <time>2016-11-13T09:38:21Z</time>
      </trkpt>
      <trkpt lat="43.72612" lon="3.44828">
        <ele>520.3</ele>
        <time>2016-11-13T09:38:24Z</time>
      </trkpt>
      <trkpt lat="43.72603" lon="3.44828">
        <ele>520.9</ele>
        <time>2016-11-13T09:38:26Z</time>
      </trkpt>
      <trkpt lat="43.72594" lon="3.44828">
        <ele>520.9</ele>
        <time>2016-11-13T09:38:28Z</time>
      </trkpt>
      <trkpt lat="43.72585" lon="3.44821">
        <ele>521.2</ele>
        <time>2016-11-13T09:38:31Z</time>
      </trkpt>
      <trkpt lat="43.72575" lon="3.44819">
        <ele>523</ele>
        <time>2016-11-13T09:38:33Z</time>
      </trkpt>
      <trkpt lat="43.72565" lon="3.44819">
        <ele>523.4</ele>
        <time>2016-11-13T09:38:35Z</time>
      </trkpt>
      <trkpt lat="43.72556" lon="3.44815">
        <ele>523.8</ele>
        <time>2016-11-13T09:38:37Z</time>
      </trkpt>
      <trkpt lat="43.72545" lon="3.44814">
        <ele>523.9</ele>
        <time>2016-11-13T09:38:40Z</time>
      </trkpt>
      <trkpt lat="43.72538" lon="3.44814">
        <ele>524.5</ele>
        <time>2016-11-13T09:38:42Z</time>
      </trkpt>
      <trkpt lat="43.72526" lon="3.44815">
        <ele>524.7</ele>
        <time>2016-11-13T09:38:45Z</time>
      </trkpt>
      <trkpt lat="43.72517" lon="3.44816">
        <ele>525.6</ele>
        <time>2016-11-13T09:38:47Z</time>
      </trkpt>
      <trkpt lat="43.72507" lon="3.44817">
        <ele>526.4</ele>
        <time>2016-11-13T09:38:49Z</time>
      </trkpt>
      <trkpt lat="43.72497" lon="3.44818">
        <ele>526.8</ele>
        <time>2016-11-13T09:38:51Z</time>
      </trkpt>
      <trkpt lat="43.72489" lon="3.44819">
        <ele>526.8</ele>
        <time>2016-11-13T09:38:53Z</time>
      </trkpt>
      <trkpt lat="43.7248" lon="3.44819">
        <ele>526.7</ele>
        <time>2016-11-13T09:38:55Z</time>
      </trkpt>
      <trkpt lat="43.72473" lon="3.44818">
        <ele>526.6</ele>
        <time>2016-11-13T09:38:57Z</time>
      </trkpt>
      <trkpt lat="43.72465" lon="3.44818">
        <ele>526.6</ele>
        <time>2016-11-13T09:38:59Z</time>
      </trkpt>
      <trkpt lat="43.72455" lon="3.44815">
        <ele>526.5</ele>
        <time>2016-11-13T09:39:04Z</time>
      </trkpt>
      <trkpt lat="43.72447" lon="3.44809">
        <ele>526.5</ele>
        <time>2016-11-13T09:39:08Z</time>
      </trkpt>
      <trkpt lat="43.7244" lon="3.44811">
        <ele>526.6</ele>
        <time>2016-11-13T09:39:10Z</time>
      </trkpt>
      <trkpt lat="43.72431" lon="3.44817">
        <ele>526.7</ele>
        <time>2016-11-13T09:39:13Z</time>
      </trkpt>
      <trkpt lat="43.72422" lon="3.44822">
        <ele>526.7</ele>
        <time>2016-11-13T09:39:17Z</time>
      </trkpt>
      <trkpt lat="43.72414" lon="3.44827">
        <ele>526.5</ele>
        <time>2016-11-13T09:39:20Z</time>
      </trkpt>
      <trkpt lat="43.72407" lon="3.4483">
        <ele>526.3</ele>
        <time>2016-11-13T09:39:22Z</time>
      </trkpt>
      <trkpt lat="43.72399" lon="3.44835">
        <ele>526.2</ele>
        <time>2016-11-13T09:39:24Z</time>
      </trkpt>
      <trkpt lat="43.72389" lon="3.44842">
        <ele>525.9</ele>
        <time>2016-11-13T09:39:27Z</time>
      </trkpt>
      <trkpt lat="43.7238" lon="3.44843">
        <ele>525.8</ele>
        <time>2016-11-13T09:39:29Z</time>
      </trkpt>
      <trkpt lat="43.72372" lon="3.44844">
        <ele>525.7</ele>
        <time>2016-11-13T09:39:31Z</time>
      </trkpt>
      <trkpt lat="43.72361" lon="3.44844">
        <ele>525.7</ele>
        <time>2016-11-13T09:39:34Z</time>
      </trkpt>
      <trkpt lat="43.72353" lon="3.44843">
        <ele>525.8</ele>
        <time>2016-11-13T09:39:36Z</time>
      </trkpt>
      <trkpt lat="43.72343" lon="3.44841">
        <ele>525.9</ele>
        <time>2016-11-13T09:39:38Z</time>
      </trkpt>
      <trkpt lat="43.72334" lon="3.44837">
        <ele>526.2</ele>
        <time>2016-11-13T09:39:41Z</time>
      </trkpt>
      <trkpt lat="43.72325" lon="3.44835">
        <ele>526.5</ele>
        <time>2016-11-13T09:39:44Z</time>
      </trkpt>
      <trkpt lat="43.72317" lon="3.44833">
        <ele>526.8</ele>
        <time>2016-11-13T09:39:47Z</time>
      </trkpt>
      <trkpt lat="43.72307" lon="3.44829">
        <ele>527.1</ele>
        <time>2016-11-13T09:39:50Z</time>
      </trkpt>
      <trkpt lat="43.72299" lon="3.44821">
        <ele>527.3</ele>
        <time>2016-11-13T09:39:53Z</time>
      </trkpt>
      <trkpt lat="43.72293" lon="3.44813">
        <ele>527.6</ele>
        <time>2016-11-13T09:39:56Z</time>
      </trkpt>
      <trkpt lat="43.72287" lon="3.44806">
        <ele>527.8</ele>
        <time>2016-11-13T09:40:01Z</time>
      </trkpt>
      <trkpt lat="43.72279" lon="3.44806">
        <ele>528.1</ele>
        <time>2016-11-13T09:40:07Z</time>
      </trkpt>
      <trkpt lat="43.7227" lon="3.44811">
        <ele>528.1</ele>
        <time>2016-11-13T09:40:11Z</time>
      </trkpt>
      <trkpt lat="43.72264" lon="3.44816">
        <ele>527.9</ele>
        <time>2016-11-13T09:40:13Z</time>
      </trkpt>
      <trkpt lat="43.72256" lon="3.44823">
        <ele>526.8</ele>
        <time>2016-11-13T09:40:16Z</time>
      </trkpt>
      <trkpt lat="43.72248" lon="3.44829">
        <ele>526.5</ele>
        <time>2016-11-13T09:40:19Z</time>
      </trkpt>
      <trkpt lat="43.72241" lon="3.44834">
        <ele>526.1</ele>
        <time>2016-11-13T09:40:22Z</time>
      </trkpt>
      <trkpt lat="43.72234" lon="3.4484">
        <ele>525.6</ele>
        <time>2016-11-13T09:40:26Z</time>
      </trkpt>
      <trkpt lat="43.72226" lon="3.44849">
        <ele>525.4</ele>
        <time>2016-11-13T09:40:30Z</time>
      </trkpt>
      <trkpt lat="43.7222" lon="3.44858">
        <ele>525.3</ele>
        <time>2016-11-13T09:40:34Z</time>
      </trkpt>
      <trkpt lat="43.72215" lon="3.44865">
        <ele>525.4</ele>
        <time>2016-11-13T09:40:39Z</time>
      </trkpt>
      <trkpt lat="43.72208" lon="3.4487">
        <ele>525.5</ele>
        <time>2016-11-13T09:40:43Z</time>
      </trkpt>
      <trkpt lat="43.722" lon="3.44872">
        <ele>525.6</ele>
        <time>2016-11-13T09:40:48Z</time>
      </trkpt>
      <trkpt lat="43.72193" lon="3.44873">
        <ele>525.9</ele>
        <time>2016-11-13T09:40:52Z</time>
      </trkpt>
      <trkpt lat="43.72185" lon="3.44878">
        <ele>526.2</ele>
        <time>2016-11-13T09:40:56Z</time>
      </trkpt>
      <trkpt lat="43.72176" lon="3.44881">
        <ele>526.3</ele>
        <time>2016-11-13T09:41:00Z</time>
      </trkpt>
      <trkpt lat="43.72168" lon="3.44883">
        <ele>526.4</ele>
        <time>2016-11-13T09:41:04Z</time>
      </trkpt>
      <trkpt lat="43.72161" lon="3.44884">
        <ele>526.5</ele>
        <time>2016-11-13T09:41:08Z</time>
      </trkpt>
      <trkpt lat="43.72152" lon="3.44884">
        <ele>526.7</ele>
        <time>2016-11-13T09:41:12Z</time>
      </trkpt>
      <trkpt lat="43.72144" lon="3.44881">
        <ele>527.1</ele>
        <time>2016-11-13T09:41:17Z</time>
      </trkpt>
      <trkpt lat="43.72142" lon="3.4488">
        <ele>527.3</ele>
        <time>2016-11-13T09:41:24Z</time>
      </trkpt>
      <trkpt lat="43.72133" lon="3.44877">
        <ele>528.6</ele>
        <time>2016-11-13T09:42:31Z</time>
      </trkpt>
      <trkpt lat="43.72125" lon="3.44873">
        <ele>529.7</ele>
        <time>2016-11-13T09:42:33Z</time>
      </trkpt>
      <trkpt lat="43.72112" lon="3.44869">
        <ele>529.7</ele>
        <time>2016-11-13T09:42:35Z</time>
      </trkpt>
      <trkpt lat="43.72099" lon="3.44864">
        <ele>528.4</ele>
        <time>2016-11-13T09:42:37Z</time>
      </trkpt>
      <trkpt lat="43.72092" lon="3.44861">
        <ele>527.8</ele>
        <time>2016-11-13T09:42:38Z</time>
      </trkpt>
      <trkpt lat="43.7208" lon="3.44855">
        <ele>526.8</ele>
        <time>2016-11-13T09:42:40Z</time>
      </trkpt>
      <trkpt lat="43.72069" lon="3.44848">
        <ele>526.8</ele>
        <time>2016-11-13T09:42:42Z</time>
      </trkpt>
      <trkpt lat="43.72057" lon="3.44841">
        <ele>526.5</ele>
        <time>2016-11-13T09:42:44Z</time>
      </trkpt>
      <trkpt lat="43.72044" lon="3.44834">
        <ele>526.1</ele>
        <time>2016-11-13T09:42:46Z</time>
      </trkpt>
      <trkpt lat="43.72033" lon="3.44827">
        <ele>524.7</ele>
        <time>2016-11-13T09:42:48Z</time>
      </trkpt>
      <trkpt lat="43.72019" lon="3.44818">
        <ele>522.8</ele>
        <time>2016-11-13T09:42:50Z</time>
      </trkpt>
      <trkpt lat="43.72011" lon="3.44816">
        <ele>522.4</ele>
        <time>2016-11-13T09:42:51Z</time>
      </trkpt>
      <trkpt lat="43.71996" lon="3.44815">
        <ele>522</ele>
        <time>2016-11-13T09:42:53Z</time>
      </trkpt>
      <trkpt lat="43.71988" lon="3.44816">
        <ele>521.8</ele>
        <time>2016-11-13T09:42:54Z</time>
      </trkpt>
      <trkpt lat="43.71977" lon="3.44822">
        <ele>521.3</ele>
        <time>2016-11-13T09:42:56Z</time>
      </trkpt>
      <trkpt lat="43.71969" lon="3.4483">
        <ele>520.3</ele>
        <time>2016-11-13T09:42:58Z</time>
      </trkpt>
      <trkpt lat="43.71963" lon="3.44842">
        <ele>519.6</ele>
        <time>2016-11-13T09:43:00Z</time>
      </trkpt>
      <trkpt lat="43.71959" lon="3.44856">
        <ele>519</ele>
        <time>2016-11-13T09:43:02Z</time>
      </trkpt>
      <trkpt lat="43.71957" lon="3.44868">
        <ele>518.8</ele>
        <time>2016-11-13T09:43:04Z</time>
      </trkpt>
      <trkpt lat="43.71954" lon="3.4488">
        <ele>518.8</ele>
        <time>2016-11-13T09:43:06Z</time>
      </trkpt>
      <trkpt lat="43.71952" lon="3.44891">
        <ele>518.9</ele>
        <time>2016-11-13T09:43:09Z</time>
      </trkpt>
      <trkpt lat="43.71948" lon="3.44902">
        <ele>519</ele>
        <time>2016-11-13T09:43:12Z</time>
      </trkpt>
      <trkpt lat="43.71944" lon="3.44913">
        <ele>519.2</ele>
        <time>2016-11-13T09:43:15Z</time>
      </trkpt>
      <trkpt lat="43.7194" lon="3.44924">
        <ele>519.3</ele>
        <time>2016-11-13T09:43:18Z</time>
      </trkpt>
      <trkpt lat="43.71936" lon="3.44934">
        <ele>519.4</ele>
        <time>2016-11-13T09:43:21Z</time>
      </trkpt>
      <trkpt lat="43.71931" lon="3.44945">
        <ele>519.7</ele>
        <time>2016-11-13T09:43:24Z</time>
      </trkpt>
      <trkpt lat="43.71927" lon="3.44956">
        <ele>519.9</ele>
        <time>2016-11-13T09:43:27Z</time>
      </trkpt>
      <trkpt lat="43.71923" lon="3.44966">
        <ele>520</ele>
        <time>2016-11-13T09:43:30Z</time>
      </trkpt>
      <trkpt lat="43.71922" lon="3.44977">
        <ele>520.3</ele>
        <time>2016-11-13T09:43:33Z</time>
      </trkpt>
      <trkpt lat="43.7192" lon="3.44987">
        <ele>520.6</ele>
        <time>2016-11-13T09:43:36Z</time>
      </trkpt>
      <trkpt lat="43.71917" lon="3.44999">
        <ele>521</ele>
        <time>2016-11-13T09:43:40Z</time>
      </trkpt>
      <trkpt lat="43.71915" lon="3.4501">
        <ele>521.7</ele>
        <time>2016-11-13T09:43:44Z</time>
      </trkpt>
      <trkpt lat="43.71914" lon="3.45022">
        <ele>522.3</ele>
        <time>2016-11-13T09:43:48Z</time>
      </trkpt>
      <trkpt lat="43.71912" lon="3.45032">
        <ele>522.8</ele>
        <time>2016-11-13T09:43:52Z</time>
      </trkpt>
      <trkpt lat="43.71911" lon="3.45045">
        <ele>523.3</ele>
        <time>2016-11-13T09:43:56Z</time>
      </trkpt>
      <trkpt lat="43.71909" lon="3.45056">
        <ele>523.7</ele>
        <time>2016-11-13T09:44:00Z</time>
      </trkpt>
      <trkpt lat="43.71906" lon="3.45069">
        <ele>524.2</ele>
        <time>2016-11-13T09:44:04Z</time>
      </trkpt>
      <trkpt lat="43.71905" lon="3.45079">
        <ele>524.7</ele>
        <time>2016-11-13T09:44:07Z</time>
      </trkpt>
      <trkpt lat="43.71904" lon="3.45092">
        <ele>525.5</ele>
        <time>2016-11-13T09:44:11Z</time>
      </trkpt>
      <trkpt lat="43.71902" lon="3.45103">
        <ele>526.2</ele>
        <time>2016-11-13T09:44:14Z</time>
      </trkpt>
      <trkpt lat="43.719" lon="3.45113">
        <ele>528</ele>
        <time>2016-11-13T09:44:16Z</time>
      </trkpt>
      <trkpt lat="43.71899" lon="3.45124">
        <ele>529.5</ele>
        <time>2016-11-13T09:44:18Z</time>
      </trkpt>
      <trkpt lat="43.71896" lon="3.45136">
        <ele>530</ele>
        <time>2016-11-13T09:44:20Z</time>
      </trkpt>
      <trkpt lat="43.71893" lon="3.45149">
        <ele>529.9</ele>
        <time>2016-11-13T09:44:22Z</time>
      </trkpt>
      <trkpt lat="43.7189" lon="3.45165">
        <ele>530</ele>
        <time>2016-11-13T09:44:24Z</time>
      </trkpt>
      <trkpt lat="43.71888" lon="3.45181">
        <ele>530.1</ele>
        <time>2016-11-13T09:44:26Z</time>
      </trkpt>
      <trkpt lat="43.71888" lon="3.452">
        <ele>529.7</ele>
        <time>2016-11-13T09:44:28Z</time>
      </trkpt>
      <trkpt lat="43.71887" lon="3.45218">
        <ele>529.4</ele>
        <time>2016-11-13T09:44:30Z</time>
      </trkpt>
      <trkpt lat="43.71886" lon="3.45232">
        <ele>529.3</ele>
        <time>2016-11-13T09:44:32Z</time>
      </trkpt>
      <trkpt lat="43.71885" lon="3.45247">
        <ele>529.2</ele>
        <time>2016-11-13T09:44:34Z</time>
      </trkpt>
      <trkpt lat="43.71884" lon="3.45259">
        <ele>528.9</ele>
        <time>2016-11-13T09:44:36Z</time>
      </trkpt>
      <trkpt lat="43.71883" lon="3.45269">
        <ele>528.9</ele>
        <time>2016-11-13T09:44:38Z</time>
      </trkpt>
      <trkpt lat="43.71883" lon="3.4528">
        <ele>528.8</ele>
        <time>2016-11-13T09:44:41Z</time>
      </trkpt>
      <trkpt lat="43.71881" lon="3.45292">
        <ele>528.8</ele>
        <time>2016-11-13T09:44:44Z</time>
      </trkpt>
      <trkpt lat="43.71881" lon="3.45302">
        <ele>528.8</ele>
        <time>2016-11-13T09:44:47Z</time>
      </trkpt>
      <trkpt lat="43.71881" lon="3.45313">
        <ele>528.8</ele>
        <time>2016-11-13T09:44:50Z</time>
      </trkpt>
      <trkpt lat="43.71881" lon="3.45324">
        <ele>529</ele>
        <time>2016-11-13T09:44:53Z</time>
      </trkpt>
      <trkpt lat="43.7188" lon="3.45337">
        <ele>529.3</ele>
        <time>2016-11-13T09:44:56Z</time>
      </trkpt>
      <trkpt lat="43.71879" lon="3.45348">
        <ele>529.7</ele>
        <time>2016-11-13T09:44:59Z</time>
      </trkpt>
      <trkpt lat="43.71878" lon="3.45361">
        <ele>530.1</ele>
        <time>2016-11-13T09:45:02Z</time>
      </trkpt>
      <trkpt lat="43.7188" lon="3.45371">
        <ele>530.4</ele>
        <time>2016-11-13T09:45:05Z</time>
      </trkpt>
      <trkpt lat="43.71883" lon="3.45383">
        <ele>530.8</ele>
        <time>2016-11-13T09:45:09Z</time>
      </trkpt>
      <trkpt lat="43.71883" lon="3.45395">
        <ele>531.4</ele>
        <time>2016-11-13T09:45:13Z</time>
      </trkpt>
      <trkpt lat="43.7188" lon="3.45405">
        <ele>533.3</ele>
        <time>2016-11-13T09:45:15Z</time>
      </trkpt>
      <trkpt lat="43.71876" lon="3.45417">
        <ele>534.4</ele>
        <time>2016-11-13T09:45:17Z</time>
      </trkpt>
      <trkpt lat="43.71875" lon="3.45431">
        <ele>534.3</ele>
        <time>2016-11-13T09:45:19Z</time>
      </trkpt>
      <trkpt lat="43.71876" lon="3.45445">
        <ele>533.6</ele>
        <time>2016-11-13T09:45:21Z</time>
      </trkpt>
      <trkpt lat="43.71877" lon="3.4546">
        <ele>533.2</ele>
        <time>2016-11-13T09:45:23Z</time>
      </trkpt>
      <trkpt lat="43.71871" lon="3.45477">
        <ele>532.4</ele>
        <time>2016-11-13T09:45:25Z</time>
      </trkpt>
      <trkpt lat="43.71867" lon="3.45485">
        <ele>531.8</ele>
        <time>2016-11-13T09:45:26Z</time>
      </trkpt>
      <trkpt lat="43.71856" lon="3.45496">
        <ele>530.9</ele>
        <time>2016-11-13T09:45:28Z</time>
      </trkpt>
      <trkpt lat="43.71844" lon="3.45505">
        <ele>530</ele>
        <time>2016-11-13T09:45:30Z</time>
      </trkpt>
      <trkpt lat="43.71835" lon="3.45517">
        <ele>529.2</ele>
        <time>2016-11-13T09:45:32Z</time>
      </trkpt>
      <trkpt lat="43.71829" lon="3.45525">
        <ele>529.1</ele>
        <time>2016-11-13T09:45:35Z</time>
      </trkpt>
      <trkpt lat="43.71821" lon="3.45533">
        <ele>529.1</ele>
        <time>2016-11-13T09:45:38Z</time>
      </trkpt>
      <trkpt lat="43.71814" lon="3.45539">
        <ele>529.5</ele>
        <time>2016-11-13T09:45:40Z</time>
      </trkpt>
      <trkpt lat="43.71808" lon="3.45547">
        <ele>529.9</ele>
        <time>2016-11-13T09:45:42Z</time>
      </trkpt>
      <trkpt lat="43.71804" lon="3.45557">
        <ele>529.7</ele>
        <time>2016-11-13T09:45:44Z</time>
      </trkpt>
      <trkpt lat="43.71799" lon="3.45567">
        <ele>529.3</ele>
        <time>2016-11-13T09:45:46Z</time>
      </trkpt>
      <trkpt lat="43.71789" lon="3.4558">
        <ele>528.7</ele>
        <time>2016-11-13T09:45:48Z</time>
      </trkpt>
      <trkpt lat="43.71786" lon="3.45589">
        <ele>528.1</ele>
        <time>2016-11-13T09:45:49Z</time>
      </trkpt>
      <trkpt lat="43.71782" lon="3.45605">
        <ele>527</ele>
        <time>2016-11-13T09:45:51Z</time>
      </trkpt>
      <trkpt lat="43.71779" lon="3.4562">
        <ele>526.3</ele>
        <time>2016-11-13T09:45:53Z</time>
      </trkpt>
      <trkpt lat="43.71784" lon="3.4563">
        <ele>526.2</ele>
        <time>2016-11-13T09:45:56Z</time>
      </trkpt>
      <trkpt lat="43.71782" lon="3.4563">
        <ele>524.6</ele>
        <time>2016-11-13T09:50:56Z</time>
      </trkpt>
      <trkpt lat="43.71779" lon="3.45644">
        <ele>524.6</ele>
        <time>2016-11-13T09:51:02Z</time>
      </trkpt>
      <trkpt lat="43.71778" lon="3.45656">
        <ele>523.7</ele>
        <time>2016-11-13T09:51:04Z</time>
      </trkpt>
      <trkpt lat="43.71779" lon="3.45671">
        <ele>523</ele>
        <time>2016-11-13T09:51:06Z</time>
      </trkpt>
      <trkpt lat="43.71773" lon="3.4568">
        <ele>522.6</ele>
        <time>2016-11-13T09:51:08Z</time>
      </trkpt>
      <trkpt lat="43.71766" lon="3.45687">
        <ele>522.5</ele>
        <time>2016-11-13T09:51:11Z</time>
      </trkpt>
      <trkpt lat="43.7176" lon="3.457">
        <ele>521.9</ele>
        <time>2016-11-13T09:51:14Z</time>
      </trkpt>
      <trkpt lat="43.71757" lon="3.4571">
        <ele>521.5</ele>
        <time>2016-11-13T09:51:16Z</time>
      </trkpt>
      <trkpt lat="43.71748" lon="3.45711">
        <ele>518.8</ele>
        <time>2016-11-13T09:51:18Z</time>
      </trkpt>
      <trkpt lat="43.7174" lon="3.45714">
        <ele>516.5</ele>
        <time>2016-11-13T09:51:20Z</time>
      </trkpt>
      <trkpt lat="43.71731" lon="3.45719">
        <ele>515.3</ele>
        <time>2016-11-13T09:51:22Z</time>
      </trkpt>
      <trkpt lat="43.71722" lon="3.45718">
        <ele>515</ele>
        <time>2016-11-13T09:51:25Z</time>
      </trkpt>
      <trkpt lat="43.71713" lon="3.45722">
        <ele>514.6</ele>
        <time>2016-11-13T09:51:29Z</time>
      </trkpt>
      <trkpt lat="43.71708" lon="3.45734">
        <ele>514.4</ele>
        <time>2016-11-13T09:51:33Z</time>
      </trkpt>
      <trkpt lat="43.717" lon="3.45744">
        <ele>514.1</ele>
        <time>2016-11-13T09:51:36Z</time>
      </trkpt>
      <trkpt lat="43.717" lon="3.45746">
        <ele>513.2</ele>
        <time>2016-11-13T09:51:43Z</time>
      </trkpt>
      <trkpt lat="43.71693" lon="3.4575">
        <ele>512.5</ele>
        <time>2016-11-13T09:51:48Z</time>
      </trkpt>
      <trkpt lat="43.7169" lon="3.45756">
        <ele>511.1</ele>
        <time>2016-11-13T09:51:55Z</time>
      </trkpt>
      <trkpt lat="43.71688" lon="3.45761">
        <ele>509.6</ele>
        <time>2016-11-13T09:52:02Z</time>
      </trkpt>
      <trkpt lat="43.71682" lon="3.45764">
        <ele>508.1</ele>
        <time>2016-11-13T09:52:09Z</time>
      </trkpt>
      <trkpt lat="43.71674" lon="3.45772">
        <ele>506.9</ele>
        <time>2016-11-13T09:52:16Z</time>
      </trkpt>
      <trkpt lat="43.71672" lon="3.45783">
        <ele>506.5</ele>
        <time>2016-11-13T09:52:18Z</time>
      </trkpt>
      <trkpt lat="43.71668" lon="3.45791">
        <ele>506</ele>
        <time>2016-11-13T09:52:20Z</time>
      </trkpt>
      <trkpt lat="43.71662" lon="3.45803">
        <ele>505.4</ele>
        <time>2016-11-13T09:52:23Z</time>
      </trkpt>
      <trkpt lat="43.71654" lon="3.45807">
        <ele>504.7</ele>
        <time>2016-11-13T09:52:26Z</time>
      </trkpt>
      <trkpt lat="43.71646" lon="3.45802">
        <ele>504</ele>
        <time>2016-11-13T09:52:30Z</time>
      </trkpt>
      <trkpt lat="43.71638" lon="3.45806">
        <ele>503.3</ele>
        <time>2016-11-13T09:52:35Z</time>
      </trkpt>
      <trkpt lat="43.71631" lon="3.45808">
        <ele>502.7</ele>
        <time>2016-11-13T09:52:40Z</time>
      </trkpt>
      <trkpt lat="43.71624" lon="3.45814">
        <ele>502.5</ele>
        <time>2016-11-13T09:52:44Z</time>
      </trkpt>
      <trkpt lat="43.71618" lon="3.45821">
        <ele>502.4</ele>
        <time>2016-11-13T09:52:50Z</time>
      </trkpt>
      <trkpt lat="43.7161" lon="3.45825">
        <ele>502.3</ele>
        <time>2016-11-13T09:52:57Z</time>
      </trkpt>
      <trkpt lat="43.71603" lon="3.45838">
        <ele>503.8</ele>
        <time>2016-11-13T09:53:27Z</time>
      </trkpt>
      <trkpt lat="43.71601" lon="3.45846">
        <ele>504.5</ele>
        <time>2016-11-13T09:53:34Z</time>
      </trkpt>
      <trkpt lat="43.71598" lon="3.45855">
        <ele>505</ele>
        <time>2016-11-13T09:53:41Z</time>
      </trkpt>
      <trkpt lat="43.71595" lon="3.45863">
        <ele>505.6</ele>
        <time>2016-11-13T09:53:48Z</time>
      </trkpt>
      <trkpt lat="43.71593" lon="3.45867">
        <ele>505.9</ele>
        <time>2016-11-13T09:53:55Z</time>
      </trkpt>
      <trkpt lat="43.71593" lon="3.45875">
        <ele>506.3</ele>
        <time>2016-11-13T09:54:02Z</time>
      </trkpt>
      <trkpt lat="43.71597" lon="3.45883">
        <ele>506.9</ele>
        <time>2016-11-13T09:54:08Z</time>
      </trkpt>
      <trkpt lat="43.71602" lon="3.45893">
        <ele>507.2</ele>
        <time>2016-11-13T09:54:12Z</time>
      </trkpt>
      <trkpt lat="43.71605" lon="3.45903">
        <ele>508.2</ele>
        <time>2016-11-13T09:54:14Z</time>
      </trkpt>
      <trkpt lat="43.71609" lon="3.45914">
        <ele>509.2</ele>
        <time>2016-11-13T09:54:16Z</time>
      </trkpt>
      <trkpt lat="43.71609" lon="3.45925">
        <ele>509.2</ele>
        <time>2016-11-13T09:54:18Z</time>
      </trkpt>
      <trkpt lat="43.71609" lon="3.45941">
        <ele>508.2</ele>
        <time>2016-11-13T09:54:20Z</time>
      </trkpt>
      <trkpt lat="43.71607" lon="3.45955">
        <ele>507.2</ele>
        <time>2016-11-13T09:54:22Z</time>
      </trkpt>
      <trkpt lat="43.71608" lon="3.45968">
        <ele>506.8</ele>
        <time>2016-11-13T09:54:24Z</time>
      </trkpt>
      <trkpt lat="43.71607" lon="3.45981">
        <ele>506.1</ele>
        <time>2016-11-13T09:54:26Z</time>
      </trkpt>
      <trkpt lat="43.71609" lon="3.45998">
        <ele>505.1</ele>
        <time>2016-11-13T09:54:28Z</time>
      </trkpt>
      <trkpt lat="43.7161" lon="3.4601">
        <ele>504.5</ele>
        <time>2016-11-13T09:54:29Z</time>
      </trkpt>
      <trkpt lat="43.7161" lon="3.4602">
        <ele>503.9</ele>
        <time>2016-11-13T09:54:30Z</time>
      </trkpt>
      <trkpt lat="43.7161" lon="3.46032">
        <ele>503.2</ele>
        <time>2016-11-13T09:54:31Z</time>
      </trkpt>
      <trkpt lat="43.71609" lon="3.46047">
        <ele>502.3</ele>
        <time>2016-11-13T09:54:33Z</time>
      </trkpt>
      <trkpt lat="43.71605" lon="3.4606">
        <ele>500.3</ele>
        <time>2016-11-13T09:54:35Z</time>
      </trkpt>
      <trkpt lat="43.716" lon="3.46079">
        <ele>498.7</ele>
        <time>2016-11-13T09:54:37Z</time>
      </trkpt>
      <trkpt lat="43.71595" lon="3.46095">
        <ele>496.5</ele>
        <time>2016-11-13T09:54:39Z</time>
      </trkpt>
      <trkpt lat="43.71594" lon="3.4611">
        <ele>496.3</ele>
        <time>2016-11-13T09:54:41Z</time>
      </trkpt>
      <trkpt lat="43.71593" lon="3.46123">
        <ele>494.1</ele>
        <time>2016-11-13T09:54:43Z</time>
      </trkpt>
      <trkpt lat="43.71589" lon="3.46135">
        <ele>493.8</ele>
        <time>2016-11-13T09:54:45Z</time>
      </trkpt>
      <trkpt lat="43.71583" lon="3.46148">
        <ele>493.5</ele>
        <time>2016-11-13T09:54:47Z</time>
      </trkpt>
      <trkpt lat="43.71578" lon="3.46158">
        <ele>493.2</ele>
        <time>2016-11-13T09:54:49Z</time>
      </trkpt>
      <trkpt lat="43.71574" lon="3.46169">
        <ele>492</ele>
        <time>2016-11-13T09:54:51Z</time>
      </trkpt>
      <trkpt lat="43.71573" lon="3.4618">
        <ele>491.9</ele>
        <time>2016-11-13T09:54:54Z</time>
      </trkpt>
      <trkpt lat="43.71572" lon="3.4619">
        <ele>491.7</ele>
        <time>2016-11-13T09:54:56Z</time>
      </trkpt>
      <trkpt lat="43.71568" lon="3.462">
        <ele>491.5</ele>
        <time>2016-11-13T09:54:58Z</time>
      </trkpt>
      <trkpt lat="43.71562" lon="3.46212">
        <ele>491.3</ele>
        <time>2016-11-13T09:55:01Z</time>
      </trkpt>
      <trkpt lat="43.71558" lon="3.46225">
        <ele>491</ele>
        <time>2016-11-13T09:55:04Z</time>
      </trkpt>
      <trkpt lat="43.71555" lon="3.46239">
        <ele>490</ele>
        <time>2016-11-13T09:55:06Z</time>
      </trkpt>
      <trkpt lat="43.71555" lon="3.46252">
        <ele>489.7</ele>
        <time>2016-11-13T09:55:09Z</time>
      </trkpt>
      <trkpt lat="43.71556" lon="3.46262">
        <ele>487.7</ele>
        <time>2016-11-13T09:55:11Z</time>
      </trkpt>
      <trkpt lat="43.71555" lon="3.46275">
        <ele>484.4</ele>
        <time>2016-11-13T09:55:13Z</time>
      </trkpt>
      <trkpt lat="43.71553" lon="3.46286">
        <ele>481.6</ele>
        <time>2016-11-13T09:55:15Z</time>
      </trkpt>
      <trkpt lat="43.71549" lon="3.46295">
        <ele>481.1</ele>
        <time>2016-11-13T09:55:18Z</time>
      </trkpt>
      <trkpt lat="43.71545" lon="3.46303">
        <ele>479.6</ele>
        <time>2016-11-13T09:55:20Z</time>
      </trkpt>
      <trkpt lat="43.71536" lon="3.46309">
        <ele>479.3</ele>
        <time>2016-11-13T09:55:23Z</time>
      </trkpt>
      <trkpt lat="43.71529" lon="3.46312">
        <ele>478.4</ele>
        <time>2016-11-13T09:55:25Z</time>
      </trkpt>
      <trkpt lat="43.71521" lon="3.46315">
        <ele>477.3</ele>
        <time>2016-11-13T09:55:27Z</time>
      </trkpt>
      <trkpt lat="43.71512" lon="3.4632">
        <ele>475.7</ele>
        <time>2016-11-13T09:55:29Z</time>
      </trkpt>
      <trkpt lat="43.71503" lon="3.46327">
        <ele>473.3</ele>
        <time>2016-11-13T09:55:31Z</time>
      </trkpt>
      <trkpt lat="43.71495" lon="3.46337">
        <ele>471.3</ele>
        <time>2016-11-13T09:55:33Z</time>
      </trkpt>
      <trkpt lat="43.71488" lon="3.46344">
        <ele>470.2</ele>
        <time>2016-11-13T09:55:35Z</time>
      </trkpt>
      <trkpt lat="43.71486" lon="3.46356">
        <ele>469.2</ele>
        <time>2016-11-13T09:55:37Z</time>
      </trkpt>
      <trkpt lat="43.71483" lon="3.46366">
        <ele>468.2</ele>
        <time>2016-11-13T09:55:40Z</time>
      </trkpt>
      <trkpt lat="43.71483" lon="3.46367">
        <ele>467.9</ele>
        <time>2016-11-13T09:55:47Z</time>
      </trkpt>
      <trkpt lat="43.71484" lon="3.46366">
        <ele>467.1</ele>
        <time>2016-11-13T09:56:00Z</time>
      </trkpt>
      <trkpt lat="43.7148" lon="3.46358">
        <ele>465.9</ele>
        <time>2016-11-13T09:55:38Z</time>
      </trkpt>
      <trkpt lat="43.71474" lon="3.46354">
        <ele>465.9</ele>
        <time>2016-11-13T09:56:50Z</time>
      </trkpt>
      <trkpt lat="43.71468" lon="3.46351">
        <ele>466.6</ele>
        <time>2016-11-13T09:56:57Z</time>
      </trkpt>
      <trkpt lat="43.71462" lon="3.4635">
        <ele>467.2</ele>
        <time>2016-11-13T09:57:04Z</time>
      </trkpt>
      <trkpt lat="43.71456" lon="3.46349">
        <ele>468</ele>
        <time>2016-11-13T09:57:11Z</time>
      </trkpt>
      <trkpt lat="43.71449" lon="3.46348">
        <ele>468.7</ele>
        <time>2016-11-13T09:57:17Z</time>
      </trkpt>
      <trkpt lat="43.71442" lon="3.46346">
        <ele>469.3</ele>
        <time>2016-11-13T09:57:24Z</time>
      </trkpt>
      <trkpt lat="43.71435" lon="3.46347">
        <ele>469.8</ele>
        <time>2016-11-13T09:57:31Z</time>
      </trkpt>
      <trkpt lat="43.71429" lon="3.46347">
        <ele>470.5</ele>
        <time>2016-11-13T09:57:38Z</time>
      </trkpt>
      <trkpt lat="43.71421" lon="3.46348">
        <ele>471.1</ele>
        <time>2016-11-13T09:57:45Z</time>
      </trkpt>
      <trkpt lat="43.71416" lon="3.46348">
        <ele>471.5</ele>
        <time>2016-11-13T09:57:52Z</time>
      </trkpt>
      <trkpt lat="43.71407" lon="3.4635">
        <ele>472.3</ele>
        <time>2016-11-13T09:58:05Z</time>
      </trkpt>
      <trkpt lat="43.714" lon="3.46352">
        <ele>472.5</ele>
        <time>2016-11-13T09:58:09Z</time>
      </trkpt>
      <trkpt lat="43.71392" lon="3.46352">
        <ele>472.9</ele>
        <time>2016-11-13T09:58:13Z</time>
      </trkpt>
      <trkpt lat="43.71383" lon="3.46352">
        <ele>473.6</ele>
        <time>2016-11-13T09:58:18Z</time>
      </trkpt>
      <trkpt lat="43.71375" lon="3.46353">
        <ele>474.4</ele>
        <time>2016-11-13T09:58:23Z</time>
      </trkpt>
      <trkpt lat="43.71366" lon="3.46355">
        <ele>475.1</ele>
        <time>2016-11-13T09:58:28Z</time>
      </trkpt>
      <trkpt lat="43.71358" lon="3.46357">
        <ele>476.3</ele>
        <time>2016-11-13T09:58:34Z</time>
      </trkpt>
      <trkpt lat="43.7135" lon="3.4636">
        <ele>477.3</ele>
        <time>2016-11-13T09:58:39Z</time>
      </trkpt>
      <trkpt lat="43.71342" lon="3.46365">
        <ele>478.1</ele>
        <time>2016-11-13T09:58:45Z</time>
      </trkpt>
      <trkpt lat="43.71335" lon="3.46368">
        <ele>479</ele>
        <time>2016-11-13T09:58:50Z</time>
      </trkpt>
      <trkpt lat="43.71327" lon="3.46371">
        <ele>480</ele>
        <time>2016-11-13T09:58:55Z</time>
      </trkpt>
      <trkpt lat="43.71319" lon="3.46371">
        <ele>480.6</ele>
        <time>2016-11-13T09:59:00Z</time>
      </trkpt>
      <trkpt lat="43.71311" lon="3.46369">
        <ele>481.3</ele>
        <time>2016-11-13T09:59:05Z</time>
      </trkpt>
      <trkpt lat="43.71304" lon="3.46366">
        <ele>482</ele>
        <time>2016-11-13T09:59:10Z</time>
      </trkpt>
      <trkpt lat="43.71298" lon="3.46359">
        <ele>482.7</ele>
        <time>2016-11-13T09:59:15Z</time>
      </trkpt>
      <trkpt lat="43.71293" lon="3.46354">
        <ele>483.9</ele>
        <time>2016-11-13T09:59:22Z</time>
      </trkpt>
      <trkpt lat="43.71287" lon="3.46347">
        <ele>485.3</ele>
        <time>2016-11-13T09:59:28Z</time>
      </trkpt>
      <trkpt lat="43.71283" lon="3.46337">
        <ele>486.6</ele>
        <time>2016-11-13T09:59:34Z</time>
      </trkpt>
      <trkpt lat="43.71279" lon="3.46327">
        <ele>487.6</ele>
        <time>2016-11-13T09:59:40Z</time>
      </trkpt>
      <trkpt lat="43.71278" lon="3.46317">
        <ele>489</ele>
        <time>2016-11-13T09:59:47Z</time>
      </trkpt>
      <trkpt lat="43.71283" lon="3.46307">
        <ele>490.5</ele>
        <time>2016-11-13T09:59:53Z</time>
      </trkpt>
      <trkpt lat="43.71291" lon="3.46302">
        <ele>491.6</ele>
        <time>2016-11-13T09:59:59Z</time>
      </trkpt>
      <trkpt lat="43.71298" lon="3.46301">
        <ele>492.8</ele>
        <time>2016-11-13T10:00:06Z</time>
      </trkpt>
      <trkpt lat="43.71306" lon="3.463">
        <ele>493.7</ele>
        <time>2016-11-13T10:00:11Z</time>
      </trkpt>
      <trkpt lat="43.71313" lon="3.46296">
        <ele>494.6</ele>
        <time>2016-11-13T10:00:16Z</time>
      </trkpt>
      <trkpt lat="43.7132" lon="3.46294">
        <ele>495.9</ele>
        <time>2016-11-13T10:00:21Z</time>
      </trkpt>
      <trkpt lat="43.71323" lon="3.46292">
        <ele>497.5</ele>
        <time>2016-11-13T10:00:28Z</time>
      </trkpt>
      <trkpt lat="43.71322" lon="3.46286">
        <ele>498.8</ele>
        <time>2016-11-13T10:00:35Z</time>
      </trkpt>
      <trkpt lat="43.71318" lon="3.46279">
        <ele>500.5</ele>
        <time>2016-11-13T10:00:42Z</time>
      </trkpt>
      <trkpt lat="43.71313" lon="3.46272">
        <ele>502.1</ele>
        <time>2016-11-13T10:00:49Z</time>
      </trkpt>
      <trkpt lat="43.71308" lon="3.46262">
        <ele>504.5</ele>
        <time>2016-11-13T10:01:06Z</time>
      </trkpt>
      <trkpt lat="43.71304" lon="3.46253">
        <ele>505.5</ele>
        <time>2016-11-13T10:01:10Z</time>
      </trkpt>
      <trkpt lat="43.713" lon="3.46244">
        <ele>506.3</ele>
        <time>2016-11-13T10:01:15Z</time>
      </trkpt>
      <trkpt lat="43.71295" lon="3.46236">
        <ele>507.4</ele>
        <time>2016-11-13T10:01:20Z</time>
      </trkpt>
      <trkpt lat="43.71291" lon="3.46228">
        <ele>508.1</ele>
        <time>2016-11-13T10:01:25Z</time>
      </trkpt>
      <trkpt lat="43.71287" lon="3.46218">
        <ele>509.1</ele>
        <time>2016-11-13T10:01:30Z</time>
      </trkpt>
      <trkpt lat="43.71285" lon="3.46208">
        <ele>510.2</ele>
        <time>2016-11-13T10:01:37Z</time>
      </trkpt>
      <trkpt lat="43.71281" lon="3.46198">
        <ele>511.1</ele>
        <time>2016-11-13T10:01:42Z</time>
      </trkpt>
      <trkpt lat="43.71277" lon="3.46189">
        <ele>512.1</ele>
        <time>2016-11-13T10:01:48Z</time>
      </trkpt>
      <trkpt lat="43.71273" lon="3.46187">
        <ele>513.3</ele>
        <time>2016-11-13T10:01:55Z</time>
      </trkpt>
      <trkpt lat="43.7127" lon="3.46188">
        <ele>513.4</ele>
        <time>2016-11-13T10:02:02Z</time>
      </trkpt>
      <trkpt lat="43.71269" lon="3.46189">
        <ele>514</ele>
        <time>2016-11-13T10:02:09Z</time>
      </trkpt>
      <trkpt lat="43.71273" lon="3.4618">
        <ele>514.6</ele>
        <time>2016-11-13T10:01:44Z</time>
      </trkpt>
      <trkpt lat="43.71272" lon="3.46171">
        <ele>514.6</ele>
        <time>2016-11-13T10:02:56Z</time>
      </trkpt>
      <trkpt lat="43.71271" lon="3.46167">
        <ele>514.7</ele>
        <time>2016-11-13T10:03:03Z</time>
      </trkpt>
      <trkpt lat="43.71273" lon="3.46165">
        <ele>515.2</ele>
        <time>2016-11-13T10:03:26Z</time>
      </trkpt>
      <trkpt lat="43.71269" lon="3.4617">
        <ele>515.1</ele>
        <time>2016-11-13T10:03:37Z</time>
      </trkpt>
      <trkpt lat="43.71267" lon="3.46174">
        <ele>515.6</ele>
        <time>2016-11-13T10:03:44Z</time>
      </trkpt>
      <trkpt lat="43.71267" lon="3.4618">
        <ele>516.5</ele>
        <time>2016-11-13T10:03:51Z</time>
      </trkpt>
      <trkpt lat="43.71272" lon="3.46185">
        <ele>516.5</ele>
        <time>2016-11-13T10:03:58Z</time>
      </trkpt>
      <trkpt lat="43.71273" lon="3.46187">
        <ele>516.7</ele>
        <time>2016-11-13T10:04:05Z</time>
      </trkpt>
      <trkpt lat="43.7127" lon="3.46186">
        <ele>517</ele>
        <time>2016-11-13T10:04:15Z</time>
      </trkpt>
      <trkpt lat="43.71273" lon="3.46186">
        <ele>518.2</ele>
        <time>2016-11-13T10:04:29Z</time>
      </trkpt>
      <trkpt lat="43.71273" lon="3.46187">
        <ele>518.8</ele>
        <time>2016-11-13T10:04:41Z</time>
      </trkpt>
      <trkpt lat="43.71274" lon="3.46196">
        <ele>519.3</ele>
        <time>2016-11-13T10:05:10Z</time>
      </trkpt>
      <trkpt lat="43.71275" lon="3.4621">
        <ele>519.3</ele>
        <time>2016-11-13T10:05:13Z</time>
      </trkpt>
      <trkpt lat="43.71269" lon="3.46218">
        <ele>519</ele>
        <time>2016-11-13T10:05:16Z</time>
      </trkpt>
      <trkpt lat="43.71266" lon="3.46229">
        <ele>518.6</ele>
        <time>2016-11-13T10:05:18Z</time>
      </trkpt>
      <trkpt lat="43.71263" lon="3.46241">
        <ele>517.7</ele>
        <time>2016-11-13T10:05:21Z</time>
      </trkpt>
      <trkpt lat="43.71261" lon="3.46252">
        <ele>517</ele>
        <time>2016-11-13T10:05:23Z</time>
      </trkpt>
      <trkpt lat="43.71259" lon="3.46264">
        <ele>512.5</ele>
        <time>2016-11-13T10:05:26Z</time>
      </trkpt>
      <trkpt lat="43.71253" lon="3.46271">
        <ele>511.8</ele>
        <time>2016-11-13T10:05:28Z</time>
      </trkpt>
      <trkpt lat="43.71254" lon="3.46283">
        <ele>508</ele>
        <time>2016-11-13T10:05:30Z</time>
      </trkpt>
      <trkpt lat="43.71248" lon="3.46292">
        <ele>507.4</ele>
        <time>2016-11-13T10:05:32Z</time>
      </trkpt>
      <trkpt lat="43.71245" lon="3.46301">
        <ele>502.9</ele>
        <time>2016-11-13T10:05:34Z</time>
      </trkpt>
      <trkpt lat="43.71242" lon="3.46311">
        <ele>501.8</ele>
        <time>2016-11-13T10:05:37Z</time>
      </trkpt>
      <trkpt lat="43.71237" lon="3.4632">
        <ele>501</ele>
        <time>2016-11-13T10:05:39Z</time>
      </trkpt>
      <trkpt lat="43.71233" lon="3.4633">
        <ele>500.1</ele>
        <time>2016-11-13T10:05:41Z</time>
      </trkpt>
      <trkpt lat="43.71228" lon="3.4634">
        <ele>491.6</ele>
        <time>2016-11-13T10:05:43Z</time>
      </trkpt>
      <trkpt lat="43.71228" lon="3.46353">
        <ele>488.4</ele>
        <time>2016-11-13T10:05:45Z</time>
      </trkpt>
      <trkpt lat="43.71226" lon="3.46364">
        <ele>487.7</ele>
        <time>2016-11-13T10:05:47Z</time>
      </trkpt>
      <trkpt lat="43.71223" lon="3.46368">
        <ele>485.3</ele>
        <time>2016-11-13T10:05:54Z</time>
      </trkpt>
      <trkpt lat="43.71217" lon="3.46381">
        <ele>484.1</ele>
        <time>2016-11-13T10:05:57Z</time>
      </trkpt>
      <trkpt lat="43.71218" lon="3.46395">
        <ele>482.8</ele>
        <time>2016-11-13T10:06:00Z</time>
      </trkpt>
      <trkpt lat="43.71216" lon="3.46406">
        <ele>477.2</ele>
        <time>2016-11-13T10:06:03Z</time>
      </trkpt>
      <trkpt lat="43.71215" lon="3.46417">
        <ele>475.9</ele>
        <time>2016-11-13T10:06:06Z</time>
      </trkpt>
      <trkpt lat="43.71216" lon="3.46432">
        <ele>474.6</ele>
        <time>2016-11-13T10:06:09Z</time>
      </trkpt>
      <trkpt lat="43.71208" lon="3.46441">
        <ele>473.1</ele>
        <time>2016-11-13T10:06:12Z</time>
      </trkpt>
      <trkpt lat="43.71208" lon="3.46454">
        <ele>464.7</ele>
        <time>2016-11-13T10:06:14Z</time>
      </trkpt>
      <trkpt lat="43.71212" lon="3.46467">
        <ele>459</ele>
        <time>2016-11-13T10:06:16Z</time>
      </trkpt>
      <trkpt lat="43.71215" lon="3.46481">
        <ele>454.1</ele>
        <time>2016-11-13T10:06:18Z</time>
      </trkpt>
      <trkpt lat="43.7121" lon="3.46492">
        <ele>448.6</ele>
        <time>2016-11-13T10:06:21Z</time>
      </trkpt>
      <trkpt lat="43.71212" lon="3.46502">
        <ele>444.5</ele>
        <time>2016-11-13T10:06:23Z</time>
      </trkpt>
      <trkpt lat="43.71218" lon="3.46511">
        <ele>441.2</ele>
        <time>2016-11-13T10:06:25Z</time>
      </trkpt>
      <trkpt lat="43.71225" lon="3.46524">
        <ele>438.5</ele>
        <time>2016-11-13T10:06:27Z</time>
      </trkpt>
      <trkpt lat="43.71235" lon="3.46534">
        <ele>436.6</ele>
        <time>2016-11-13T10:06:29Z</time>
      </trkpt>
      <trkpt lat="43.71243" lon="3.46543">
        <ele>435</ele>
        <time>2016-11-13T10:06:31Z</time>
      </trkpt>
      <trkpt lat="43.71248" lon="3.46558">
        <ele>434.2</ele>
        <time>2016-11-13T10:06:33Z</time>
      </trkpt>
      <trkpt lat="43.7125" lon="3.46568">
        <ele>433.2</ele>
        <time>2016-11-13T10:06:34Z</time>
      </trkpt>
      <trkpt lat="43.71252" lon="3.46581">
        <ele>432.1</ele>
        <time>2016-11-13T10:06:35Z</time>
      </trkpt>
      <trkpt lat="43.71254" lon="3.46591">
        <ele>431.4</ele>
        <time>2016-11-13T10:06:36Z</time>
      </trkpt>
      <trkpt lat="43.71255" lon="3.4661">
        <ele>430.2</ele>
        <time>2016-11-13T10:06:38Z</time>
      </trkpt>
      <trkpt lat="43.71251" lon="3.46629">
        <ele>429</ele>
        <time>2016-11-13T10:06:40Z</time>
      </trkpt>
      <trkpt lat="43.71249" lon="3.46641">
        <ele>428.7</ele>
        <time>2016-11-13T10:06:42Z</time>
      </trkpt>
      <trkpt lat="43.71247" lon="3.46649">
        <ele>428.5</ele>
        <time>2016-11-13T10:06:49Z</time>
      </trkpt>
      <trkpt lat="43.71241" lon="3.46651">
        <ele>425.7</ele>
        <time>2016-11-13T10:08:40Z</time>
      </trkpt>
      <trkpt lat="43.71233" lon="3.46652">
        <ele>425.6</ele>
        <time>2016-11-13T10:08:45Z</time>
      </trkpt>
      <trkpt lat="43.71226" lon="3.46655">
        <ele>425.4</ele>
        <time>2016-11-13T10:08:50Z</time>
      </trkpt>
      <trkpt lat="43.71219" lon="3.46661">
        <ele>425.2</ele>
        <time>2016-11-13T10:08:56Z</time>
      </trkpt>
      <trkpt lat="43.71214" lon="3.46669">
        <ele>425.4</ele>
        <time>2016-11-13T10:09:02Z</time>
      </trkpt>
      <trkpt lat="43.71212" lon="3.46676">
        <ele>425.5</ele>
        <time>2016-11-13T10:09:09Z</time>
      </trkpt>
      <trkpt lat="43.71209" lon="3.4668">
        <ele>425.7</ele>
        <time>2016-11-13T10:09:16Z</time>
      </trkpt>
      <trkpt lat="43.71199" lon="3.46683">
        <ele>425.5</ele>
        <time>2016-11-13T10:09:26Z</time>
      </trkpt>
      <trkpt lat="43.71187" lon="3.46687">
        <ele>425.5</ele>
        <time>2016-11-13T10:09:28Z</time>
      </trkpt>
      <trkpt lat="43.71176" lon="3.46689">
        <ele>424.6</ele>
        <time>2016-11-13T10:09:30Z</time>
      </trkpt>
      <trkpt lat="43.71165" lon="3.46697">
        <ele>422.2</ele>
        <time>2016-11-13T10:09:32Z</time>
      </trkpt>
      <trkpt lat="43.71154" lon="3.46705">
        <ele>420.9</ele>
        <time>2016-11-13T10:09:34Z</time>
      </trkpt>
      <trkpt lat="43.71144" lon="3.46712">
        <ele>419.8</ele>
        <time>2016-11-13T10:09:36Z</time>
      </trkpt>
      <trkpt lat="43.71134" lon="3.46724">
        <ele>418.2</ele>
        <time>2016-11-13T10:09:38Z</time>
      </trkpt>
      <trkpt lat="43.71121" lon="3.4673">
        <ele>415.7</ele>
        <time>2016-11-13T10:09:40Z</time>
      </trkpt>
      <trkpt lat="43.71112" lon="3.46724">
        <ele>413</ele>
        <time>2016-11-13T10:09:42Z</time>
      </trkpt>
      <trkpt lat="43.71101" lon="3.46723">
        <ele>410.6</ele>
        <time>2016-11-13T10:09:44Z</time>
      </trkpt>
      <trkpt lat="43.71091" lon="3.46735">
        <ele>409.1</ele>
        <time>2016-11-13T10:09:46Z</time>
      </trkpt>
      <trkpt lat="43.71087" lon="3.46744">
        <ele>408.3</ele>
        <time>2016-11-13T10:09:47Z</time>
      </trkpt>
      <trkpt lat="43.71077" lon="3.46756">
        <ele>407.3</ele>
        <time>2016-11-13T10:09:49Z</time>
      </trkpt>
      <trkpt lat="43.71066" lon="3.46765">
        <ele>406.2</ele>
        <time>2016-11-13T10:09:51Z</time>
      </trkpt>
      <trkpt lat="43.71055" lon="3.46771">
        <ele>404.5</ele>
        <time>2016-11-13T10:09:53Z</time>
      </trkpt>
      <trkpt lat="43.71048" lon="3.46774">
        <ele>403.1</ele>
        <time>2016-11-13T10:09:54Z</time>
      </trkpt>
      <trkpt lat="43.71036" lon="3.46783">
        <ele>399.2</ele>
        <time>2016-11-13T10:09:56Z</time>
      </trkpt>
      <trkpt lat="43.71029" lon="3.46799">
        <ele>396.4</ele>
        <time>2016-11-13T10:09:58Z</time>
      </trkpt>
      <trkpt lat="43.71022" lon="3.46815">
        <ele>394.9</ele>
        <time>2016-11-13T10:10:00Z</time>
      </trkpt>
      <trkpt lat="43.71014" lon="3.4683">
        <ele>393.4</ele>
        <time>2016-11-13T10:10:02Z</time>
      </trkpt>
      <trkpt lat="43.71004" lon="3.46843">
        <ele>391.8</ele>
        <time>2016-11-13T10:10:04Z</time>
      </trkpt>
      <trkpt lat="43.70999" lon="3.4685">
        <ele>390.6</ele>
        <time>2016-11-13T10:10:05Z</time>
      </trkpt>
      <trkpt lat="43.70992" lon="3.46858">
        <ele>389.3</ele>
        <time>2016-11-13T10:10:06Z</time>
      </trkpt>
      <trkpt lat="43.70986" lon="3.46866">
        <ele>388</ele>
        <time>2016-11-13T10:10:07Z</time>
      </trkpt>
      <trkpt lat="43.7098" lon="3.46874">
        <ele>386.9</ele>
        <time>2016-11-13T10:10:08Z</time>
      </trkpt>
      <trkpt lat="43.70974" lon="3.46881">
        <ele>386.2</ele>
        <time>2016-11-13T10:10:09Z</time>
      </trkpt>
      <trkpt lat="43.70966" lon="3.46889">
        <ele>384.7</ele>
        <time>2016-11-13T10:10:11Z</time>
      </trkpt>
      <trkpt lat="43.70955" lon="3.46892">
        <ele>382.6</ele>
        <time>2016-11-13T10:10:13Z</time>
      </trkpt>
      <trkpt lat="43.70947" lon="3.46884">
        <ele>381</ele>
        <time>2016-11-13T10:10:15Z</time>
      </trkpt>
      <trkpt lat="43.70934" lon="3.46877">
        <ele>378.4</ele>
        <time>2016-11-13T10:10:17Z</time>
      </trkpt>
      <trkpt lat="43.70924" lon="3.4687">
        <ele>375.8</ele>
        <time>2016-11-13T10:10:19Z</time>
      </trkpt>
      <trkpt lat="43.70915" lon="3.46865">
        <ele>374.3</ele>
        <time>2016-11-13T10:10:21Z</time>
      </trkpt>
      <trkpt lat="43.70907" lon="3.46863">
        <ele>372.7</ele>
        <time>2016-11-13T10:10:23Z</time>
      </trkpt>
      <trkpt lat="43.70899" lon="3.46858">
        <ele>369.8</ele>
        <time>2016-11-13T10:10:25Z</time>
      </trkpt>
      <trkpt lat="43.70891" lon="3.46858">
        <ele>368.4</ele>
        <time>2016-11-13T10:10:27Z</time>
      </trkpt>
      <trkpt lat="43.7088" lon="3.46856">
        <ele>365.2</ele>
        <time>2016-11-13T10:10:29Z</time>
      </trkpt>
      <trkpt lat="43.70871" lon="3.46845">
        <ele>362.6</ele>
        <time>2016-11-13T10:10:31Z</time>
      </trkpt>
      <trkpt lat="43.70859" lon="3.46837">
        <ele>359.2</ele>
        <time>2016-11-13T10:10:33Z</time>
      </trkpt>
      <trkpt lat="43.70852" lon="3.46834">
        <ele>357.5</ele>
        <time>2016-11-13T10:10:34Z</time>
      </trkpt>
      <trkpt lat="43.7084" lon="3.46831">
        <ele>356.1</ele>
        <time>2016-11-13T10:10:36Z</time>
      </trkpt>
      <trkpt lat="43.70828" lon="3.46833">
        <ele>355.2</ele>
        <time>2016-11-13T10:10:38Z</time>
      </trkpt>
      <trkpt lat="43.70817" lon="3.46833">
        <ele>352.9</ele>
        <time>2016-11-13T10:10:40Z</time>
      </trkpt>
      <trkpt lat="43.70806" lon="3.46828">
        <ele>351.8</ele>
        <time>2016-11-13T10:10:42Z</time>
      </trkpt>
      <trkpt lat="43.70794" lon="3.46827">
        <ele>350.9</ele>
        <time>2016-11-13T10:10:44Z</time>
      </trkpt>
      <trkpt lat="43.70783" lon="3.46819">
        <ele>349.9</ele>
        <time>2016-11-13T10:10:46Z</time>
      </trkpt>
      <trkpt lat="43.70772" lon="3.46811">
        <ele>347.7</ele>
        <time>2016-11-13T10:10:48Z</time>
      </trkpt>
      <trkpt lat="43.70765" lon="3.46807">
        <ele>346.3</ele>
        <time>2016-11-13T10:10:49Z</time>
      </trkpt>
      <trkpt lat="43.70758" lon="3.46802">
        <ele>345.8</ele>
        <time>2016-11-13T10:10:50Z</time>
      </trkpt>
      <trkpt lat="43.70751" lon="3.46798">
        <ele>345.2</ele>
        <time>2016-11-13T10:10:51Z</time>
      </trkpt>
      <trkpt lat="43.70744" lon="3.46794">
        <ele>344.8</ele>
        <time>2016-11-13T10:10:52Z</time>
      </trkpt>
      <trkpt lat="43.70734" lon="3.46788">
        <ele>344.8</ele>
        <time>2016-11-13T10:10:54Z</time>
      </trkpt>
      <trkpt lat="43.70724" lon="3.46782">
        <ele>344.4</ele>
        <time>2016-11-13T10:10:56Z</time>
      </trkpt>
      <trkpt lat="43.70713" lon="3.46777">
        <ele>343.8</ele>
        <time>2016-11-13T10:10:58Z</time>
      </trkpt>
      <trkpt lat="43.70704" lon="3.46771">
        <ele>343.2</ele>
        <time>2016-11-13T10:11:00Z</time>
      </trkpt>
      <trkpt lat="43.70696" lon="3.4677">
        <ele>343.1</ele>
        <time>2016-11-13T10:11:03Z</time>
      </trkpt>
      <trkpt lat="43.70696" lon="3.46773">
        <ele>343</ele>
        <time>2016-11-13T10:11:10Z</time>
      </trkpt>
      <trkpt lat="43.70689" lon="3.46777">
        <ele>343.2</ele>
        <time>2016-11-13T10:13:23Z</time>
      </trkpt>
      <trkpt lat="43.70688" lon="3.46777">
        <ele>343.5</ele>
        <time>2016-11-13T10:13:30Z</time>
      </trkpt>
      <trkpt lat="43.7068" lon="3.46774">
        <ele>343.6</ele>
        <time>2016-11-13T10:13:31Z</time>
      </trkpt>
      <trkpt lat="43.70676" lon="3.46771">
        <ele>343.9</ele>
        <time>2016-11-13T10:13:38Z</time>
      </trkpt>
      <trkpt lat="43.70665" lon="3.46773">
        <ele>339.6</ele>
        <time>2016-11-13T10:16:26Z</time>
      </trkpt>
      <trkpt lat="43.70665" lon="3.46771">
        <ele>339.5</ele>
        <time>2016-11-13T10:16:33Z</time>
      </trkpt>
      <trkpt lat="43.70665" lon="3.46773">
        <ele>338.4</ele>
        <time>2016-11-13T10:16:54Z</time>
      </trkpt>
    </trkseg>
  </trk>
</gpx>